<?xml version='1.0' encoding='UTF-8'?><gpx version="1.1" creator="JPX - https://github.com/jenetics/jpx" xmlns="http://www.topografix.com/GPX/1/1"><trk><trkseg><trkpt lat="44.52350840615181" lon="10.845675801686092"><ele>145.0</ele><time>2026-03-25T13:59:40Z</time></trkpt><trkpt lat="44.52345461650626" lon="10.845738632929832"><ele>145.0</ele><time>2026-03-25T13:59:45Z</time></trkpt><trkpt lat="44.523402120554394" lon="10.84584527059002"><ele>145.0</ele><time>2026-03-25T13:59:48.999Z</time></trkpt><trkpt lat="44.52335808839825" lon="10.845918865607855"><ele>145.0</ele><time>2026-03-25T13:59:52.999Z</time></trkpt><trkpt lat="44.523319196572025" lon="10.845996479933927"><ele>145.0</ele><time>2026-03-25T13:59:56.999Z</time></trkpt><trkpt lat="44.52326681686516" lon="10.846085016995316"><ele>145.0</ele><time>2026-03-25T13:59:59.999Z</time></trkpt><trkpt lat="44.52321719030115" lon="10.84617713310437"><ele>145.85714285714286</ele><time>2026-03-25T14:00:02.999Z</time></trkpt><trkpt lat="44.5231698675268" lon="10.846261047725859"><ele>146.71428571428572</ele><time>2026-03-25T14:00:06.999Z</time></trkpt><trkpt lat="44.52310312258014" lon="10.846240216076106"><ele>147.57142857142858</ele><time>2026-03-25T14:00:09.999Z</time></trkpt><trkpt lat="44.5230424248088" lon="10.846182364706443"><ele>148.42857142857144</ele><time>2026-03-25T14:00:12.999Z</time></trkpt><trkpt lat="44.52297363564997" lon="10.846155228419365"><ele>149.28571428571428</ele><time>2026-03-25T14:00:16Z</time></trkpt><trkpt lat="44.52289094580472" lon="10.846171842446886"><ele>150.14285714285717</ele><time>2026-03-25T14:00:21Z</time></trkpt><trkpt lat="44.52282304858032" lon="10.846170972828874"><ele>151.0</ele><time>2026-03-25T14:00:25Z</time></trkpt><trkpt lat="44.52275222978126" lon="10.846158069658346"><ele>151.2857142857143</ele><time>2026-03-25T14:00:29Z</time></trkpt><trkpt lat="44.52268824258534" lon="10.846127771213661"><ele>151.57142857142858</ele><time>2026-03-25T14:00:33Z</time></trkpt><trkpt lat="44.52262368065525" lon="10.84610888030835"><ele>151.85714285714286</ele><time>2026-03-25T14:00:37Z</time></trkpt><trkpt lat="44.522559844413344" lon="10.846081749219747"><ele>152.14285714285717</ele><time>2026-03-25T14:00:41Z</time></trkpt><trkpt lat="44.5224836261035" lon="10.846058290717822"><ele>152.42857142857144</ele><time>2026-03-25T14:00:45Z</time></trkpt><trkpt lat="44.522415022724466" lon="10.84599885983987"><ele>152.71428571428572</ele><time>2026-03-25T14:00:50Z</time></trkpt><trkpt lat="44.522389535984296" lon="10.845903517871925"><ele>153.0</ele><time>2026-03-25T14:00:53Z</time></trkpt><trkpt lat="44.52237318125613" lon="10.845760790316008"><ele>153.0</ele><time>2026-03-25T14:00:56Z</time></trkpt><trkpt lat="44.522347146446" lon="10.845660463074264"><ele>153.0</ele><time>2026-03-25T14:00:58Z</time></trkpt><trkpt lat="44.52232120618159" lon="10.845563339735724"><ele>153.0</ele><time>2026-03-25T14:01:00Z</time></trkpt><trkpt lat="44.522275486175424" lon="10.845488953779887"><ele>153.0</ele><time>2026-03-25T14:01:02Z</time></trkpt><trkpt lat="44.52220739818769" lon="10.845446403060002"><ele>153.0</ele><time>2026-03-25T14:01:04Z</time></trkpt><trkpt lat="44.52214577321719" lon="10.84541995977859"><ele>153.0</ele><time>2026-03-25T14:01:06Z</time></trkpt><trkpt lat="44.5220687098185" lon="10.845371532940039"><ele>153.0</ele><time>2026-03-25T14:01:09Z</time></trkpt><trkpt lat="44.5220062022512" lon="10.845297756705275"><ele>155.5</ele><time>2026-03-25T14:01:12Z</time></trkpt><trkpt lat="44.521941301554754" lon="10.845243485466929"><ele>158.0</ele><time>2026-03-25T14:01:15Z</time></trkpt><trkpt lat="44.521873481764345" lon="10.845204445727115"><ele>160.5</ele><time>2026-03-25T14:01:17Z</time></trkpt><trkpt lat="44.52178461451544" lon="10.845210911396538"><ele>163.0</ele><time>2026-03-25T14:01:19Z</time></trkpt><trkpt lat="44.52172723532324" lon="10.845272861805084"><ele>165.5</ele><time>2026-03-25T14:01:21Z</time></trkpt><trkpt lat="44.521674481638705" lon="10.845359708365894"><ele>168.0</ele><time>2026-03-25T14:01:24Z</time></trkpt><trkpt lat="44.52163785068126" lon="10.845447817079613"><ele>168.0</ele><time>2026-03-25T14:01:27Z</time></trkpt><trkpt lat="44.52159952114453" lon="10.845538180102924"><ele>168.0</ele><time>2026-03-25T14:01:30Z</time></trkpt><trkpt lat="44.52152793457045" lon="10.845588626284828"><ele>168.0</ele><time>2026-03-25T14:01:34Z</time></trkpt><trkpt lat="44.5214622866295" lon="10.845575536851797"><ele>168.0</ele><time>2026-03-25T14:01:37Z</time></trkpt><trkpt lat="44.521455915760235" lon="10.845664902975345"><ele>168.0</ele><time>2026-03-25T14:01:40Z</time></trkpt><trkpt lat="44.52150848721379" lon="10.845736898183672"><ele>168.0</ele><time>2026-03-25T14:01:44Z</time></trkpt><trkpt lat="44.5215734132345" lon="10.845792577292652"><ele>168.0</ele><time>2026-03-25T14:01:47Z</time></trkpt><trkpt lat="44.52163450318908" lon="10.84587038234808"><ele>168.0</ele><time>2026-03-25T14:01:51Z</time></trkpt><trkpt lat="44.521560845743544" lon="10.845887047680952"><ele>168.0</ele><time>2026-03-25T14:01:55Z</time></trkpt><trkpt lat="44.52148998885256" lon="10.845889679140141"><ele>168.0</ele><time>2026-03-25T14:01:58Z</time></trkpt><trkpt lat="44.52141924538992" lon="10.845874960389768"><ele>168.0</ele><time>2026-03-25T14:02:01Z</time></trkpt><trkpt lat="44.5213436468947" lon="10.84586668204891"><ele>168.0</ele><time>2026-03-25T14:02:05Z</time></trkpt><trkpt lat="44.52127569139523" lon="10.845917521954803"><ele>168.0</ele><time>2026-03-25T14:02:09Z</time></trkpt><trkpt lat="44.521215176753245" lon="10.845989775324462"><ele>168.0</ele><time>2026-03-25T14:02:13Z</time></trkpt><trkpt lat="44.52113832961391" lon="10.846038449102249"><ele>168.0</ele><time>2026-03-25T14:02:17Z</time></trkpt><trkpt lat="44.52117330227984" lon="10.84612821548585"><ele>168.0</ele><time>2026-03-25T14:02:23Z</time></trkpt><trkpt lat="44.52124027235217" lon="10.846110804000817"><ele>168.0</ele><time>2026-03-25T14:02:29Z</time></trkpt><trkpt lat="44.5213092271824" lon="10.846075998829624"><ele>168.0</ele><time>2026-03-25T14:02:35Z</time></trkpt><trkpt lat="44.52138238219702" lon="10.846068943504974"><ele>168.0</ele><time>2026-03-25T14:02:39Z</time></trkpt><trkpt lat="44.5214523482391" lon="10.846071722313638"><ele>168.0</ele><time>2026-03-25T14:02:43Z</time></trkpt><trkpt lat="44.521400616675834" lon="10.846013312194133"><ele>168.0</ele><time>2026-03-25T14:03:16.001Z</time></trkpt><trkpt lat="44.5213496608032" lon="10.84596037947875"><ele>168.0</ele><time>2026-03-25T14:03:18.001Z</time></trkpt><trkpt lat="44.52129190154065" lon="10.845889010943365"><ele>168.0</ele><time>2026-03-25T14:03:22.001Z</time></trkpt><trkpt lat="44.52135307063591" lon="10.845867952952387"><ele>168.0</ele><time>2026-03-25T14:03:27.001Z</time></trkpt><trkpt lat="44.521435664063254" lon="10.84588648385093"><ele>168.0</ele><time>2026-03-25T14:03:35.001Z</time></trkpt><trkpt lat="44.521513340207" lon="10.845898737794963"><ele>168.0</ele><time>2026-03-25T14:03:37.001Z</time></trkpt><trkpt lat="44.52159528365007" lon="10.845891537317103"><ele>168.0</ele><time>2026-03-25T14:03:39.001Z</time></trkpt><trkpt lat="44.52154150807981" lon="10.845802775039504"><ele>168.0</ele><time>2026-03-25T14:03:45.001Z</time></trkpt><trkpt lat="44.521494181000534" lon="10.845735701968275"><ele>168.0</ele><time>2026-03-25T14:03:48.001Z</time></trkpt><trkpt lat="44.521454508571615" lon="10.845616219078876"><ele>168.0</ele><time>2026-03-25T14:03:51.001Z</time></trkpt><trkpt lat="44.52152878832145" lon="10.845602821587745"><ele>168.0</ele><time>2026-03-25T14:03:54.001Z</time></trkpt><trkpt lat="44.52159428125442" lon="10.84566891460275"><ele>168.0</ele><time>2026-03-25T14:03:57.001Z</time></trkpt><trkpt lat="44.521642642579884" lon="10.845580486412661"><ele>168.0</ele><time>2026-03-25T14:04:00Z</time></trkpt><trkpt lat="44.52157485567781" lon="10.845551931576955"><ele>168.0</ele><time>2026-03-25T14:04:05Z</time></trkpt><trkpt lat="44.52149991683782" lon="10.845572564851869"><ele>168.0</ele><time>2026-03-25T14:04:10Z</time></trkpt><trkpt lat="44.521452232330105" lon="10.845645019152116"><ele>168.0</ele><time>2026-03-25T14:04:16Z</time></trkpt><trkpt lat="44.52149919828727" lon="10.845722362601297"><ele>168.0</ele><time>2026-03-25T14:04:21Z</time></trkpt><trkpt lat="44.52155535156302" lon="10.845793656598795"><ele>168.0</ele><time>2026-03-25T14:04:25Z</time></trkpt><trkpt lat="44.52162341030721" lon="10.845842539240723"><ele>168.0</ele><time>2026-03-25T14:04:30Z</time></trkpt><trkpt lat="44.52155221681561" lon="10.845894554996198"><ele>168.0</ele><time>2026-03-25T14:04:36Z</time></trkpt><trkpt lat="44.521476004743775" lon="10.84589305963389"><ele>168.0</ele><time>2026-03-25T14:04:40Z</time></trkpt><trkpt lat="44.52140633575092" lon="10.845879479279134"><ele>168.0</ele><time>2026-03-25T14:04:43Z</time></trkpt><trkpt lat="44.521327368184885" lon="10.84586181472461"><ele>168.0</ele><time>2026-03-25T14:04:47Z</time></trkpt><trkpt lat="44.52136920090786" lon="10.845941623957158"><ele>168.0</ele><time>2026-03-25T14:04:52.001Z</time></trkpt><trkpt lat="44.521446804087866" lon="10.845985924822635"><ele>168.0</ele><time>2026-03-25T14:04:56.001Z</time></trkpt><trkpt lat="44.5215152658549" lon="10.846011790169618"><ele>169.71428571428572</ele><time>2026-03-25T14:04:59.001Z</time></trkpt><trkpt lat="44.521441087853624" lon="10.84605068302805"><ele>171.42857142857144</ele><time>2026-03-25T14:05:03.001Z</time></trkpt><trkpt lat="44.52137353625218" lon="10.846059798341836"><ele>173.14285714285714</ele><time>2026-03-25T14:05:06.001Z</time></trkpt><trkpt lat="44.52130765033729" lon="10.846076227814631"><ele>174.85714285714286</ele><time>2026-03-25T14:05:09.001Z</time></trkpt><trkpt lat="44.52124900985967" lon="10.846110284215106"><ele>176.57142857142858</ele><time>2026-03-25T14:05:12.001Z</time></trkpt><trkpt lat="44.521172193152566" lon="10.846123383138606"><ele>178.28571428571428</ele><time>2026-03-25T14:05:15.001Z</time></trkpt><trkpt lat="44.52108668360387" lon="10.846124077340498"><ele>180.0</ele><time>2026-03-25T14:05:18.001Z</time></trkpt><trkpt lat="44.52102280060738" lon="10.84615925155447"><ele>180.14285714285714</ele><time>2026-03-25T14:05:21.001Z</time></trkpt><trkpt lat="44.52099114522251" lon="10.846243605230558"><ele>180.2857142857143</ele><time>2026-03-25T14:05:24.001Z</time></trkpt><trkpt lat="44.520973579696886" lon="10.846340987199419"><ele>180.42857142857144</ele><time>2026-03-25T14:05:27.001Z</time></trkpt><trkpt lat="44.52096238650087" lon="10.846445708983692"><ele>180.57142857142856</ele><time>2026-03-25T14:05:30.001Z</time></trkpt><trkpt lat="44.52095717345028" lon="10.846546088378815"><ele>180.71428571428572</ele><time>2026-03-25T14:05:33.001Z</time></trkpt><trkpt lat="44.520963327105484" lon="10.846665505089552"><ele>180.85714285714286</ele><time>2026-03-25T14:05:36.001Z</time></trkpt><trkpt lat="44.52099284033796" lon="10.846751361254428"><ele>181.0</ele><time>2026-03-25T14:05:38.001Z</time></trkpt><trkpt lat="44.521035439830946" lon="10.846859390498805"><ele>181.0</ele><time>2026-03-25T14:05:40.001Z</time></trkpt><trkpt lat="44.52107037424484" lon="10.846966344134112"><ele>181.0</ele><time>2026-03-25T14:05:42.001Z</time></trkpt><trkpt lat="44.520981171351785" lon="10.846979461757401"><ele>181.0</ele><time>2026-03-25T14:05:45.001Z</time></trkpt><trkpt lat="44.52091471715397" lon="10.846937869100294"><ele>181.0</ele><time>2026-03-25T14:05:48.001Z</time></trkpt><trkpt lat="44.52084773609379" lon="10.846931804601006"><ele>181.0</ele><time>2026-03-25T14:05:51.001Z</time></trkpt><trkpt lat="44.520773226580225" lon="10.846908477838165"><ele>181.0</ele><time>2026-03-25T14:05:54.001Z</time></trkpt><trkpt lat="44.5207040335013" lon="10.846885608416653"><ele>181.0</ele><time>2026-03-25T14:05:57.001Z</time></trkpt><trkpt lat="44.52063842934204" lon="10.846862616431695"><ele>181.0</ele><time>2026-03-25T14:06:00.001Z</time></trkpt><trkpt lat="44.52057276966775" lon="10.846849659365244"><ele>181.0</ele><time>2026-03-25T14:06:03.001Z</time></trkpt><trkpt lat="44.52048874655503" lon="10.846832198930247"><ele>181.0</ele><time>2026-03-25T14:06:07.001Z</time></trkpt><trkpt lat="44.52042019464806" lon="10.84681882140616"><ele>181.0</ele><time>2026-03-25T14:06:10.001Z</time></trkpt><trkpt lat="44.52033808339897" lon="10.846793590916299"><ele>181.0</ele><time>2026-03-25T14:06:14.001Z</time></trkpt><trkpt lat="44.520273618076466" lon="10.846768341348215"><ele>181.0</ele><time>2026-03-25T14:06:17Z</time></trkpt><trkpt lat="44.520207691692676" lon="10.846744265025624"><ele>181.42857142857142</ele><time>2026-03-25T14:06:20Z</time></trkpt><trkpt lat="44.520141481510855" lon="10.846727141598711"><ele>181.85714285714283</ele><time>2026-03-25T14:06:23Z</time></trkpt><trkpt lat="44.52007480783692" lon="10.84670568652742"><ele>182.28571428571428</ele><time>2026-03-25T14:06:26Z</time></trkpt><trkpt lat="44.52001040353867" lon="10.846683376655747"><ele>182.71428571428572</ele><time>2026-03-25T14:06:29Z</time></trkpt><trkpt lat="44.51994333528306" lon="10.84664730663678"><ele>183.14285714285714</ele><time>2026-03-25T14:06:32Z</time></trkpt><trkpt lat="44.51987492733956" lon="10.84661665949382"><ele>183.57142857142858</ele><time>2026-03-25T14:06:35Z</time></trkpt><trkpt lat="44.51981399009106" lon="10.846586442921899"><ele>184.0</ele><time>2026-03-25T14:06:38Z</time></trkpt><trkpt lat="44.5197481281191" lon="10.846550662652279"><ele>184.0</ele><time>2026-03-25T14:06:41Z</time></trkpt><trkpt lat="44.51968004421886" lon="10.846512036988182"><ele>184.0</ele><time>2026-03-25T14:06:44Z</time></trkpt><trkpt lat="44.51960693485348" lon="10.84647891026879"><ele>184.0</ele><time>2026-03-25T14:06:47Z</time></trkpt><trkpt lat="44.519536937936564" lon="10.846440570238466"><ele>184.0</ele><time>2026-03-25T14:06:50Z</time></trkpt><trkpt lat="44.51946317012648" lon="10.846403739807746"><ele>184.0</ele><time>2026-03-25T14:06:53.001Z</time></trkpt><trkpt lat="44.51938752642924" lon="10.846372431226477"><ele>184.0</ele><time>2026-03-25T14:06:56.001Z</time></trkpt><trkpt lat="44.51933053333553" lon="10.84629979288496"><ele>184.66666666666669</ele><time>2026-03-25T14:06:59.001Z</time></trkpt><trkpt lat="44.519288310282676" lon="10.846211260458965"><ele>185.33333333333334</ele><time>2026-03-25T14:07:02.001Z</time></trkpt><trkpt lat="44.51924208928377" lon="10.846110448402523"><ele>186.0</ele><time>2026-03-25T14:07:05.001Z</time></trkpt><trkpt lat="44.519197008488604" lon="10.846020816124367"><ele>186.66666666666666</ele><time>2026-03-25T14:07:08.001Z</time></trkpt><trkpt lat="44.519144673722856" lon="10.845926670195263"><ele>187.33333333333331</ele><time>2026-03-25T14:07:11.001Z</time></trkpt><trkpt lat="44.51908722858898" lon="10.84582762128578"><ele>188.0</ele><time>2026-03-25T14:07:14.001Z</time></trkpt><trkpt lat="44.51903025921091" lon="10.845726848283533"><ele>188.0</ele><time>2026-03-25T14:07:17.001Z</time></trkpt><trkpt lat="44.51897575897414" lon="10.845634496176073"><ele>188.0</ele><time>2026-03-25T14:07:20.001Z</time></trkpt><trkpt lat="44.51891982863586" lon="10.84553423021676"><ele>188.0</ele><time>2026-03-25T14:07:23.001Z</time></trkpt><trkpt lat="44.518866788317915" lon="10.845436160272506"><ele>188.0</ele><time>2026-03-25T14:07:26.001Z</time></trkpt><trkpt lat="44.51881267513393" lon="10.845342462443803"><ele>188.0</ele><time>2026-03-25T14:07:29.001Z</time></trkpt><trkpt lat="44.51874534459791" lon="10.845265739817787"><ele>188.0</ele><time>2026-03-25T14:07:32.001Z</time></trkpt><trkpt lat="44.51866929613026" lon="10.845233556483661"><ele>188.33333333333331</ele><time>2026-03-25T14:07:35.001Z</time></trkpt><trkpt lat="44.51859461340958" lon="10.845209751920306"><ele>188.66666666666666</ele><time>2026-03-25T14:07:38.001Z</time></trkpt><trkpt lat="44.51851239125686" lon="10.845184914089653"><ele>189.0</ele><time>2026-03-25T14:07:41.001Z</time></trkpt><trkpt lat="44.518425397580216" lon="10.845156623214937"><ele>189.33333333333334</ele><time>2026-03-25T14:07:44.001Z</time></trkpt><trkpt lat="44.51833784345914" lon="10.845128592240798"><ele>189.66666666666669</ele><time>2026-03-25T14:07:47.001Z</time></trkpt><trkpt lat="44.5182565590947" lon="10.84510035196524"><ele>190.0</ele><time>2026-03-25T14:07:50.001Z</time></trkpt><trkpt lat="44.51817174406675" lon="10.845079910989153"><ele>190.0</ele><time>2026-03-25T14:07:53.001Z</time></trkpt><trkpt lat="44.518088106337785" lon="10.84506683004763"><ele>190.0</ele><time>2026-03-25T14:07:56.001Z</time></trkpt><trkpt lat="44.518014791014934" lon="10.845055968335672"><ele>190.0</ele><time>2026-03-25T14:07:59.001Z</time></trkpt><trkpt lat="44.51792425361426" lon="10.845055865169531"><ele>190.0</ele><time>2026-03-25T14:08:02.001Z</time></trkpt><trkpt lat="44.51784090507983" lon="10.845056889501436"><ele>190.0</ele><time>2026-03-25T14:08:05.001Z</time></trkpt><trkpt lat="44.51775720122787" lon="10.845068118396748"><ele>190.0</ele><time>2026-03-25T14:08:08.001Z</time></trkpt><trkpt lat="44.517669796136566" lon="10.84505837655508"><ele>190.83333333333334</ele><time>2026-03-25T14:08:11.001Z</time></trkpt><trkpt lat="44.517605595690334" lon="10.845045375668393"><ele>191.66666666666669</ele><time>2026-03-25T14:08:13.001Z</time></trkpt><trkpt lat="44.51750642873169" lon="10.845015186070535"><ele>192.5</ele><time>2026-03-25T14:08:16.001Z</time></trkpt><trkpt lat="44.517424085231234" lon="10.845004062349128"><ele>193.33333333333334</ele><time>2026-03-25T14:08:18.001Z</time></trkpt><trkpt lat="44.51734226255256" lon="10.844999388828253"><ele>194.16666666666666</ele><time>2026-03-25T14:08:20Z</time></trkpt><trkpt lat="44.517253585918425" lon="10.844982867914972"><ele>195.0</ele><time>2026-03-25T14:08:22Z</time></trkpt><trkpt lat="44.51716692701769" lon="10.84496605872555"><ele>195.0</ele><time>2026-03-25T14:08:24Z</time></trkpt><trkpt lat="44.51708699493095" lon="10.844970036349974"><ele>195.0</ele><time>2026-03-25T14:08:26Z</time></trkpt><trkpt lat="44.51700832576405" lon="10.844978756393957"><ele>195.0</ele><time>2026-03-25T14:08:28Z</time></trkpt><trkpt lat="44.516936261743126" lon="10.844995640691243"><ele>195.0</ele><time>2026-03-25T14:08:30Z</time></trkpt><trkpt lat="44.51687971021896" lon="10.84504563859875"><ele>195.0</ele><time>2026-03-25T14:08:32Z</time></trkpt><trkpt lat="44.516830268912585" lon="10.845105390523388"><ele>195.0</ele><time>2026-03-25T14:08:34Z</time></trkpt><trkpt lat="44.51679364776685" lon="10.845182208052643"><ele>195.0</ele><time>2026-03-25T14:08:37Z</time></trkpt><trkpt lat="44.516741355714885" lon="10.845271294568102"><ele>196.42857142857142</ele><time>2026-03-25T14:08:40Z</time></trkpt><trkpt lat="44.516704125345264" lon="10.845348954178986"><ele>197.85714285714283</ele><time>2026-03-25T14:08:43Z</time></trkpt><trkpt lat="44.51667084574266" lon="10.84542667063826"><ele>199.28571428571428</ele><time>2026-03-25T14:08:45Z</time></trkpt><trkpt lat="44.51662325199402" lon="10.845490522637272"><ele>200.71428571428572</ele><time>2026-03-25T14:08:47Z</time></trkpt><trkpt lat="44.51653915418437" lon="10.845531285368978"><ele>202.14285714285714</ele><time>2026-03-25T14:08:50Z</time></trkpt><trkpt lat="44.5164613749148" lon="10.845513401559893"><ele>203.57142857142858</ele><time>2026-03-25T14:08:53Z</time></trkpt><trkpt lat="44.51638443956845" lon="10.845472144977641"><ele>205.0</ele><time>2026-03-25T14:08:56Z</time></trkpt><trkpt lat="44.51630920711938" lon="10.845461576231779"><ele>205.57142857142858</ele><time>2026-03-25T14:08:59Z</time></trkpt><trkpt lat="44.516235365235694" lon="10.84547212483973"><ele>206.14285714285714</ele><time>2026-03-25T14:09:02Z</time></trkpt><trkpt lat="44.5161650872639" lon="10.845484850649132"><ele>206.71428571428572</ele><time>2026-03-25T14:09:05Z</time></trkpt><trkpt lat="44.516091180860236" lon="10.845496932290224"><ele>207.28571428571428</ele><time>2026-03-25T14:09:08Z</time></trkpt><trkpt lat="44.516020139019204" lon="10.845506866209503"><ele>207.85714285714283</ele><time>2026-03-25T14:09:11Z</time></trkpt><trkpt lat="44.515945976516484" lon="10.845524282619737"><ele>208.42857142857142</ele><time>2026-03-25T14:09:14Z</time></trkpt><trkpt lat="44.51587416936525" lon="10.845534446648196"><ele>209.0</ele><time>2026-03-25T14:09:17.001Z</time></trkpt><trkpt lat="44.51580300939167" lon="10.845539930878854"><ele>209.0</ele><time>2026-03-25T14:09:20.001Z</time></trkpt><trkpt lat="44.515733680433655" lon="10.845554780936421"><ele>209.0</ele><time>2026-03-25T14:09:23.001Z</time></trkpt><trkpt lat="44.51566648469251" lon="10.845564412288427"><ele>209.0</ele><time>2026-03-25T14:09:26.001Z</time></trkpt><trkpt lat="44.51559407747538" lon="10.845571107685672"><ele>209.0</ele><time>2026-03-25T14:09:29.001Z</time></trkpt><trkpt lat="44.51551517902115" lon="10.845591001311687"><ele>209.0</ele><time>2026-03-25T14:09:32.001Z</time></trkpt><trkpt lat="44.51544168312282" lon="10.845608206297154"><ele>209.0</ele><time>2026-03-25T14:09:35.001Z</time></trkpt><trkpt lat="44.51536957699369" lon="10.845625639749086"><ele>209.0</ele><time>2026-03-25T14:09:38.001Z</time></trkpt><trkpt lat="44.515307567508835" lon="10.845650581353743"><ele>209.71428571428572</ele><time>2026-03-25T14:09:41.001Z</time></trkpt><trkpt lat="44.51524552111254" lon="10.84567022945045"><ele>210.42857142857142</ele><time>2026-03-25T14:09:44.001Z</time></trkpt><trkpt lat="44.5151822698825" lon="10.845698462213665"><ele>211.14285714285717</ele><time>2026-03-25T14:09:47.001Z</time></trkpt><trkpt lat="44.51511114954723" lon="10.845733543329683"><ele>211.85714285714286</ele><time>2026-03-25T14:09:50.001Z</time></trkpt><trkpt lat="44.515049633371646" lon="10.845763459616489"><ele>212.57142857142858</ele><time>2026-03-25T14:09:53.001Z</time></trkpt><trkpt lat="44.514979709509795" lon="10.845786730302908"><ele>213.2857142857143</ele><time>2026-03-25T14:09:56.001Z</time></trkpt><trkpt lat="44.514912443850406" lon="10.845803674497994"><ele>214.0</ele><time>2026-03-25T14:09:59.001Z</time></trkpt><trkpt lat="44.51483933081696" lon="10.845822533838744"><ele>214.00000000000003</ele><time>2026-03-25T14:10:02.001Z</time></trkpt><trkpt lat="44.51477102399426" lon="10.845834013808004"><ele>214.0</ele><time>2026-03-25T14:10:05.001Z</time></trkpt><trkpt lat="44.51470157332197" lon="10.84584633799414"><ele>214.0</ele><time>2026-03-25T14:10:08.001Z</time></trkpt><trkpt lat="44.51463139990871" lon="10.845856691567999"><ele>214.0</ele><time>2026-03-25T14:10:11.001Z</time></trkpt><trkpt lat="44.514562842252865" lon="10.845866168418452"><ele>214.0</ele><time>2026-03-25T14:10:14.001Z</time></trkpt><trkpt lat="44.51449122381541" lon="10.845874038337316"><ele>214.00000000000003</ele><time>2026-03-25T14:10:17Z</time></trkpt><trkpt lat="44.514417130943734" lon="10.845870341952006"><ele>214.0</ele><time>2026-03-25T14:10:20Z</time></trkpt><trkpt lat="44.51434406879648" lon="10.845865354930726"><ele>214.99999999999997</ele><time>2026-03-25T14:10:23Z</time></trkpt><trkpt lat="44.51426248802362" lon="10.845851802609968"><ele>216.0</ele><time>2026-03-25T14:10:26Z</time></trkpt><trkpt lat="44.51418589217742" lon="10.845817915685403"><ele>217.0</ele><time>2026-03-25T14:10:29Z</time></trkpt><trkpt lat="44.51411458133909" lon="10.845764392905261"><ele>218.0</ele><time>2026-03-25T14:10:32Z</time></trkpt><trkpt lat="44.51404930262921" lon="10.845713083544172"><ele>218.99999999999997</ele><time>2026-03-25T14:10:35Z</time></trkpt><trkpt lat="44.513981053047694" lon="10.84566094054381"><ele>220.0</ele><time>2026-03-25T14:10:38Z</time></trkpt><trkpt lat="44.51391707268392" lon="10.845599600681956"><ele>219.99999999999997</ele><time>2026-03-25T14:10:41Z</time></trkpt><trkpt lat="44.51384976214187" lon="10.84553860161834"><ele>220.0</ele><time>2026-03-25T14:10:44Z</time></trkpt><trkpt lat="44.51378170247203" lon="10.845477187719439"><ele>220.0</ele><time>2026-03-25T14:10:47Z</time></trkpt><trkpt lat="44.513718651031645" lon="10.845409191878849"><ele>220.0</ele><time>2026-03-25T14:10:50Z</time></trkpt><trkpt lat="44.513652398628714" lon="10.845348182712574"><ele>219.99999999999997</ele><time>2026-03-25T14:10:53Z</time></trkpt><trkpt lat="44.51358291610561" lon="10.845292464200833"><ele>220.0</ele><time>2026-03-25T14:10:56Z</time></trkpt><trkpt lat="44.51351083102548" lon="10.845242209513502"><ele>221.42857142857142</ele><time>2026-03-25T14:10:59Z</time></trkpt><trkpt lat="44.513442760482754" lon="10.84518351673763"><ele>222.85714285714283</ele><time>2026-03-25T14:11:02Z</time></trkpt><trkpt lat="44.51338368018367" lon="10.84513221625258"><ele>224.28571428571428</ele><time>2026-03-25T14:11:05Z</time></trkpt><trkpt lat="44.51332239000174" lon="10.845070405774138"><ele>225.7142857142857</ele><time>2026-03-25T14:11:08Z</time></trkpt><trkpt lat="44.51326255931425" lon="10.845011520241268"><ele>227.14285714285714</ele><time>2026-03-25T14:11:11Z</time></trkpt><trkpt lat="44.513196134173775" lon="10.844958602395325"><ele>228.57142857142853</ele><time>2026-03-25T14:11:14Z</time></trkpt><trkpt lat="44.513134104756915" lon="10.844924909363344"><ele>229.99999999999997</ele><time>2026-03-25T14:11:17Z</time></trkpt><trkpt lat="44.51306790687465" lon="10.844880710389344"><ele>230.50000000000003</ele><time>2026-03-25T14:11:20Z</time></trkpt><trkpt lat="44.51299988324207" lon="10.844823003104018"><ele>231.0</ele><time>2026-03-25T14:11:23Z</time></trkpt><trkpt lat="44.512926750482464" lon="10.844769389032052"><ele>231.5</ele><time>2026-03-25T14:11:26Z</time></trkpt><trkpt lat="44.512868681579384" lon="10.844729536769995"><ele>232.0</ele><time>2026-03-25T14:11:29Z</time></trkpt><trkpt lat="44.5128106110044" lon="10.844680639225537"><ele>232.50000000000003</ele><time>2026-03-25T14:11:32Z</time></trkpt><trkpt lat="44.51274755277505" lon="10.844620998279007"><ele>233.0</ele><time>2026-03-25T14:11:35Z</time></trkpt><trkpt lat="44.51267361164692" lon="10.844567266054396"><ele>234.57142857142858</ele><time>2026-03-25T14:11:38Z</time></trkpt><trkpt lat="44.512608841108666" lon="10.844531005417153"><ele>236.1428571428571</ele><time>2026-03-25T14:11:41Z</time></trkpt><trkpt lat="44.512537030279276" lon="10.844492737538356"><ele>237.7142857142857</ele><time>2026-03-25T14:11:44Z</time></trkpt><trkpt lat="44.51245259373839" lon="10.844479495126112"><ele>239.28571428571428</ele><time>2026-03-25T14:11:47Z</time></trkpt><trkpt lat="44.51238944993839" lon="10.844468726296524"><ele>240.85714285714283</ele><time>2026-03-25T14:11:49.001Z</time></trkpt><trkpt lat="44.51231050928506" lon="10.844473385777322"><ele>242.4285714285714</ele><time>2026-03-25T14:11:52.001Z</time></trkpt><trkpt lat="44.512240820584125" lon="10.844492981995137"><ele>243.99999999999997</ele><time>2026-03-25T14:11:55.001Z</time></trkpt><trkpt lat="44.512161140155534" lon="10.844488896013345"><ele>245.49999999999997</ele><time>2026-03-25T14:11:58.001Z</time></trkpt><trkpt lat="44.51206966584373" lon="10.84450849070138"><ele>247.0</ele><time>2026-03-25T14:12:01.001Z</time></trkpt><trkpt lat="44.51199051674511" lon="10.844481646329752"><ele>248.5</ele><time>2026-03-25T14:12:05.001Z</time></trkpt><trkpt lat="44.51192580392374" lon="10.844482438434696"><ele>250.0</ele><time>2026-03-25T14:12:08.001Z</time></trkpt><trkpt lat="44.51184853832996" lon="10.844480727720434"><ele>251.49999999999997</ele><time>2026-03-25T14:12:12.001Z</time></trkpt><trkpt lat="44.51176467298838" lon="10.844493221641839"><ele>253.0</ele><time>2026-03-25T14:12:16.001Z</time></trkpt><trkpt lat="44.511693590552845" lon="10.844488983593008"><ele>253.00000000000003</ele><time>2026-03-25T14:12:19.001Z</time></trkpt><trkpt lat="44.51161900058971" lon="10.844493377349774"><ele>253.0</ele><time>2026-03-25T14:12:22.001Z</time></trkpt><trkpt lat="44.51154840830546" lon="10.844497269522252"><ele>253.00000000000003</ele><time>2026-03-25T14:12:25Z</time></trkpt><trkpt lat="44.51148059899449" lon="10.844508555640576"><ele>253.00000000000003</ele><time>2026-03-25T14:12:28Z</time></trkpt><trkpt lat="44.51140698456823" lon="10.8445228630163"><ele>253.0</ele><time>2026-03-25T14:12:31Z</time></trkpt><trkpt lat="44.51133518922681" lon="10.844523139125362"><ele>253.00000000000003</ele><time>2026-03-25T14:12:34Z</time></trkpt><trkpt lat="44.51126414386581" lon="10.844536219690422"><ele>253.00000000000003</ele><time>2026-03-25T14:12:37Z</time></trkpt><trkpt lat="44.5111952258995" lon="10.84455965658818"><ele>254.99999999999997</ele><time>2026-03-25T14:12:40Z</time></trkpt><trkpt lat="44.511118730844096" lon="10.844568202143192"><ele>257.0</ele><time>2026-03-25T14:12:44Z</time></trkpt><trkpt lat="44.511054361350396" lon="10.844578626229847"><ele>259.0</ele><time>2026-03-25T14:12:47Z</time></trkpt><trkpt lat="44.51096862709655" lon="10.84455108862619"><ele>261.0</ele><time>2026-03-25T14:12:50Z</time></trkpt><trkpt lat="44.510870784662174" lon="10.844552863356558"><ele>263.0</ele><time>2026-03-25T14:12:53Z</time></trkpt><trkpt lat="44.51080621589453" lon="10.844558286562265"><ele>265.0</ele><time>2026-03-25T14:12:55Z</time></trkpt><trkpt lat="44.51074390050862" lon="10.844571397736164"><ele>265.0</ele><time>2026-03-25T14:12:57Z</time></trkpt><trkpt lat="44.510655627472126" lon="10.844576681579415"><ele>265.0</ele><time>2026-03-25T14:13:00Z</time></trkpt><trkpt lat="44.51056706969141" lon="10.844588060474628"><ele>265.0</ele><time>2026-03-25T14:13:03Z</time></trkpt><trkpt lat="44.51048436174004" lon="10.844611283280225"><ele>265.0</ele><time>2026-03-25T14:13:06Z</time></trkpt><trkpt lat="44.51040393030075" lon="10.844643082343005"><ele>265.0</ele><time>2026-03-25T14:13:09Z</time></trkpt><trkpt lat="44.51032523679404" lon="10.84468014663719"><ele>265.0</ele><time>2026-03-25T14:13:12Z</time></trkpt><trkpt lat="44.51023991488116" lon="10.844712347451898"><ele>265.66666666666663</ele><time>2026-03-25T14:13:15Z</time></trkpt><trkpt lat="44.51014815401771" lon="10.844725341230834"><ele>266.3333333333333</ele><time>2026-03-25T14:13:18Z</time></trkpt><trkpt lat="44.510081340252846" lon="10.844722909358941"><ele>267.0</ele><time>2026-03-25T14:13:20Z</time></trkpt><trkpt lat="44.51001813863033" lon="10.844709332443001"><ele>267.6666666666667</ele><time>2026-03-25T14:13:22Z</time></trkpt><trkpt lat="44.50992785598584" lon="10.844685527455768"><ele>268.33333333333337</ele><time>2026-03-25T14:13:25Z</time></trkpt><trkpt lat="44.509840636368835" lon="10.844655162541805"><ele>269.0</ele><time>2026-03-25T14:13:28Z</time></trkpt><trkpt lat="44.509756113644706" lon="10.84461588090913"><ele>269.0</ele><time>2026-03-25T14:13:31Z</time></trkpt><trkpt lat="44.509671720664564" lon="10.844577444937094"><ele>269.0</ele><time>2026-03-25T14:13:34Z</time></trkpt><trkpt lat="44.50958816180567" lon="10.844537877818045"><ele>269.0</ele><time>2026-03-25T14:13:37Z</time></trkpt><trkpt lat="44.50950679165015" lon="10.844492337176165"><ele>269.0</ele><time>2026-03-25T14:13:40Z</time></trkpt><trkpt lat="44.50942502127399" lon="10.844446163527584"><ele>269.0</ele><time>2026-03-25T14:13:43Z</time></trkpt><trkpt lat="44.50934587536065" lon="10.84440016958621"><ele>269.0</ele><time>2026-03-25T14:13:46Z</time></trkpt><trkpt lat="44.509271107983054" lon="10.8443546428996"><ele>268.5</ele><time>2026-03-25T14:13:49Z</time></trkpt><trkpt lat="44.50920074831785" lon="10.844318142718812"><ele>268.0</ele><time>2026-03-25T14:13:52Z</time></trkpt><trkpt lat="44.50913781970268" lon="10.844281519204095"><ele>267.5</ele><time>2026-03-25T14:13:55Z</time></trkpt><trkpt lat="44.50906693114826" lon="10.844242452970118"><ele>267.0</ele><time>2026-03-25T14:13:58Z</time></trkpt><trkpt lat="44.50899050586039" lon="10.844206256286663"><ele>266.5</ele><time>2026-03-25T14:14:01Z</time></trkpt><trkpt lat="44.508912772650355" lon="10.844162090350695"><ele>266.0</ele><time>2026-03-25T14:14:04Z</time></trkpt><trkpt lat="44.50883423567656" lon="10.844125594929967"><ele>266.1666666666667</ele><time>2026-03-25T14:14:07Z</time></trkpt><trkpt lat="44.50875750418117" lon="10.84409210154136"><ele>266.33333333333337</ele><time>2026-03-25T14:14:10Z</time></trkpt><trkpt lat="44.50867701994812" lon="10.844092706680474"><ele>266.5</ele><time>2026-03-25T14:14:13Z</time></trkpt><trkpt lat="44.508604177051375" lon="10.844142729934807"><ele>266.6666666666667</ele><time>2026-03-25T14:14:16Z</time></trkpt><trkpt lat="44.5085395135812" lon="10.844214056812325"><ele>266.8333333333333</ele><time>2026-03-25T14:14:19Z</time></trkpt><trkpt lat="44.50847047943737" lon="10.844279550893008"><ele>267.0</ele><time>2026-03-25T14:14:22Z</time></trkpt><trkpt lat="44.50839513406162" lon="10.844303596491892"><ele>267.0</ele><time>2026-03-25T14:14:25Z</time></trkpt><trkpt lat="44.508313712092004" lon="10.844299036323658"><ele>267.0</ele><time>2026-03-25T14:14:28Z</time></trkpt><trkpt lat="44.50823661051323" lon="10.844280748741554"><ele>267.0</ele><time>2026-03-25T14:14:31Z</time></trkpt><trkpt lat="44.508155220566806" lon="10.844255957400152"><ele>267.0</ele><time>2026-03-25T14:14:34Z</time></trkpt><trkpt lat="44.508072487439215" lon="10.844231165150376"><ele>267.0</ele><time>2026-03-25T14:14:37Z</time></trkpt><trkpt lat="44.507990167930835" lon="10.844205290779318"><ele>267.0</ele><time>2026-03-25T14:14:40Z</time></trkpt><trkpt lat="44.50790631964649" lon="10.844186638510878"><ele>270.8333333333333</ele><time>2026-03-25T14:14:43Z</time></trkpt><trkpt lat="44.50781956557832" lon="10.844171266132074"><ele>274.6666666666667</ele><time>2026-03-25T14:14:46Z</time></trkpt><trkpt lat="44.50773528579577" lon="10.844151361711786"><ele>278.5</ele><time>2026-03-25T14:14:49Z</time></trkpt><trkpt lat="44.507649769035304" lon="10.844151876405554"><ele>282.33333333333337</ele><time>2026-03-25T14:14:52Z</time></trkpt><trkpt lat="44.507563392622295" lon="10.844141177134253"><ele>286.1666666666667</ele><time>2026-03-25T14:14:55Z</time></trkpt><trkpt lat="44.507482642893905" lon="10.844142781581416"><ele>290.0</ele><time>2026-03-25T14:14:58Z</time></trkpt><trkpt lat="44.50740303070355" lon="10.844132039208745"><ele>290.0</ele><time>2026-03-25T14:15:01Z</time></trkpt><trkpt lat="44.50731993397522" lon="10.84413111478146"><ele>290.0</ele><time>2026-03-25T14:15:04Z</time></trkpt><trkpt lat="44.5072365100369" lon="10.844132651245486"><ele>290.0</ele><time>2026-03-25T14:15:07Z</time></trkpt><trkpt lat="44.50715056391513" lon="10.844135234939342"><ele>290.0</ele><time>2026-03-25T14:15:10Z</time></trkpt><trkpt lat="44.50706708741177" lon="10.844161255885874"><ele>290.0</ele><time>2026-03-25T14:15:13Z</time></trkpt><trkpt lat="44.50698318335125" lon="10.8442131833161"><ele>290.0</ele><time>2026-03-25T14:15:16Z</time></trkpt><trkpt lat="44.506911454833926" lon="10.844285843725084"><ele>289.0</ele><time>2026-03-25T14:15:19Z</time></trkpt><trkpt lat="44.50684150616426" lon="10.844363126455642"><ele>288.0</ele><time>2026-03-25T14:15:22Z</time></trkpt><trkpt lat="44.50676982255182" lon="10.844446773878476"><ele>287.0</ele><time>2026-03-25T14:15:25Z</time></trkpt><trkpt lat="44.50671420098656" lon="10.8444972124124"><ele>286.0</ele><time>2026-03-25T14:15:27Z</time></trkpt><trkpt lat="44.50665768953307" lon="10.844549421870296"><ele>285.0</ele><time>2026-03-25T14:15:29Z</time></trkpt><trkpt lat="44.50659931337107" lon="10.844608320689176"><ele>284.0</ele><time>2026-03-25T14:15:31Z</time></trkpt><trkpt lat="44.50653968217831" lon="10.844656769489717"><ele>284.0</ele><time>2026-03-25T14:15:33Z</time></trkpt><trkpt lat="44.50647247854156" lon="10.844707970288601"><ele>284.0</ele><time>2026-03-25T14:15:35Z</time></trkpt><trkpt lat="44.50640876271595" lon="10.844763022283585"><ele>284.0</ele><time>2026-03-25T14:15:37Z</time></trkpt><trkpt lat="44.50633757631913" lon="10.844822074420954"><ele>284.0</ele><time>2026-03-25T14:15:39Z</time></trkpt><trkpt lat="44.50626274156877" lon="10.844885894394688"><ele>284.0</ele><time>2026-03-25T14:15:41Z</time></trkpt><trkpt lat="44.506189329410354" lon="10.844941557107994"><ele>284.0</ele><time>2026-03-25T14:15:43Z</time></trkpt><trkpt lat="44.506120514035544" lon="10.845013174400023"><ele>285.0</ele><time>2026-03-25T14:15:45Z</time></trkpt><trkpt lat="44.506055604779604" lon="10.845087801151564"><ele>286.0</ele><time>2026-03-25T14:15:47Z</time></trkpt><trkpt lat="44.505997029110574" lon="10.845175556378805"><ele>287.0</ele><time>2026-03-25T14:15:49Z</time></trkpt><trkpt lat="44.50595505822418" lon="10.845271343798895"><ele>288.0</ele><time>2026-03-25T14:15:51Z</time></trkpt><trkpt lat="44.50591058466885" lon="10.845358283914152"><ele>289.0</ele><time>2026-03-25T14:15:53Z</time></trkpt><trkpt lat="44.505871025258884" lon="10.845431051456671"><ele>290.0</ele><time>2026-03-25T14:15:55Z</time></trkpt><trkpt lat="44.50581933840357" lon="10.845511881532222"><ele>290.0</ele><time>2026-03-25T14:15:57Z</time></trkpt><trkpt lat="44.50576872892858" lon="10.845591477766407"><ele>290.0</ele><time>2026-03-25T14:15:59Z</time></trkpt><trkpt lat="44.505698626084914" lon="10.845649997474828"><ele>290.0</ele><time>2026-03-25T14:16:01Z</time></trkpt><trkpt lat="44.50561564506583" lon="10.845663825550478"><ele>290.0</ele><time>2026-03-25T14:16:03Z</time></trkpt><trkpt lat="44.50552992446191" lon="10.845632413450483"><ele>290.0</ele><time>2026-03-25T14:16:05Z</time></trkpt><trkpt lat="44.50544656638673" lon="10.845579359488758"><ele>290.0</ele><time>2026-03-25T14:16:07Z</time></trkpt><trkpt lat="44.505366277252996" lon="10.845515811739949"><ele>289.6</ele><time>2026-03-25T14:16:09Z</time></trkpt><trkpt lat="44.50527778579747" lon="10.845449749356828"><ele>289.2</ele><time>2026-03-25T14:16:11Z</time></trkpt><trkpt lat="44.50518884006243" lon="10.845400029351351"><ele>288.8</ele><time>2026-03-25T14:16:13Z</time></trkpt><trkpt lat="44.505095788027575" lon="10.845362571295517"><ele>288.4</ele><time>2026-03-25T14:16:15Z</time></trkpt><trkpt lat="44.50499254937942" lon="10.845336282652655"><ele>288.0</ele><time>2026-03-25T14:16:17Z</time></trkpt><trkpt lat="44.504889714269495" lon="10.845323746709926"><ele>288.0</ele><time>2026-03-25T14:16:19Z</time></trkpt><trkpt lat="44.50479203176371" lon="10.845311850287963"><ele>288.0</ele><time>2026-03-25T14:16:21Z</time></trkpt><trkpt lat="44.50470076434884" lon="10.845307528510437"><ele>288.0</ele><time>2026-03-25T14:16:23Z</time></trkpt><trkpt lat="44.504610427500225" lon="10.845317276018688"><ele>288.0</ele><time>2026-03-25T14:16:25Z</time></trkpt><trkpt lat="44.50452280142525" lon="10.845332641258619"><ele>288.0</ele><time>2026-03-25T14:16:27Z</time></trkpt><trkpt lat="44.50443629024757" lon="10.845343983080244"><ele>288.5</ele><time>2026-03-25T14:16:29Z</time></trkpt><trkpt lat="44.50435006514336" lon="10.845341932307058"><ele>289.0</ele><time>2026-03-25T14:16:31Z</time></trkpt><trkpt lat="44.5042643908986" lon="10.845348211928078"><ele>289.5</ele><time>2026-03-25T14:16:33Z</time></trkpt><trkpt lat="44.504185438947054" lon="10.845352540889388"><ele>290.0</ele><time>2026-03-25T14:16:35Z</time></trkpt><trkpt lat="44.50410585966173" lon="10.84536663544605"><ele>290.5</ele><time>2026-03-25T14:16:37Z</time></trkpt><trkpt lat="44.504027910570926" lon="10.845386028454854"><ele>291.0</ele><time>2026-03-25T14:16:39Z</time></trkpt><trkpt lat="44.5039469826646" lon="10.845410545558742"><ele>291.0</ele><time>2026-03-25T14:16:41Z</time></trkpt><trkpt lat="44.5038718944073" lon="10.84543253210989"><ele>291.0</ele><time>2026-03-25T14:16:43Z</time></trkpt><trkpt lat="44.5037943441823" lon="10.845458746467388"><ele>291.0</ele><time>2026-03-25T14:16:45Z</time></trkpt><trkpt lat="44.50370344865926" lon="10.845454715621804"><ele>291.0</ele><time>2026-03-25T14:16:47Z</time></trkpt><trkpt lat="44.503583313722714" lon="10.845382330926947"><ele>291.0</ele><time>2026-03-25T14:16:49Z</time></trkpt><trkpt lat="44.50351123718674" lon="10.845328230785844"><ele>290.2</ele><time>2026-03-25T14:16:50Z</time></trkpt><trkpt lat="44.50343485405021" lon="10.845265315383035"><ele>289.40000000000003</ele><time>2026-03-25T14:16:51Z</time></trkpt><trkpt lat="44.50335290931021" lon="10.845197817833332"><ele>288.6</ele><time>2026-03-25T14:16:52Z</time></trkpt><trkpt lat="44.50326568622915" lon="10.84511978299025"><ele>287.8</ele><time>2026-03-25T14:16:53Z</time></trkpt><trkpt lat="44.503174620725055" lon="10.845035132134115"><ele>287.0</ele><time>2026-03-25T14:16:54Z</time></trkpt><trkpt lat="44.5030746749178" lon="10.844959528479825"><ele>287.0</ele><time>2026-03-25T14:16:55Z</time></trkpt><trkpt lat="44.50297264335518" lon="10.844889013844996"><ele>287.0</ele><time>2026-03-25T14:16:56Z</time></trkpt><trkpt lat="44.50286758323264" lon="10.8448182881698"><ele>287.0</ele><time>2026-03-25T14:16:57Z</time></trkpt><trkpt lat="44.50276199418766" lon="10.844747408841565"><ele>287.0</ele><time>2026-03-25T14:16:58Z</time></trkpt><trkpt lat="44.50266120322142" lon="10.844673597831887"><ele>287.2</ele><time>2026-03-25T14:16:59Z</time></trkpt><trkpt lat="44.50255952386829" lon="10.844599832749887"><ele>287.4</ele><time>2026-03-25T14:17:00Z</time></trkpt><trkpt lat="44.50246029850305" lon="10.844523897235751"><ele>287.6</ele><time>2026-03-25T14:17:01Z</time></trkpt><trkpt lat="44.50236181944242" lon="10.84445472480715"><ele>287.8</ele><time>2026-03-25T14:17:02Z</time></trkpt><trkpt lat="44.5022698278488" lon="10.84438521474076"><ele>288.0</ele><time>2026-03-25T14:17:03Z</time></trkpt><trkpt lat="44.502180120671255" lon="10.84431420425558"><ele>285.6</ele><time>2026-03-25T14:17:04Z</time></trkpt><trkpt lat="44.50208621870814" lon="10.844249956889666"><ele>283.20000000000005</ele><time>2026-03-25T14:17:05Z</time></trkpt><trkpt lat="44.5019946290505" lon="10.844191024316483"><ele>280.8</ele><time>2026-03-25T14:17:06Z</time></trkpt><trkpt lat="44.50190929446636" lon="10.844119497440872"><ele>278.40000000000003</ele><time>2026-03-25T14:17:07Z</time></trkpt><trkpt lat="44.50182825592879" lon="10.84404544731857"><ele>276.0</ele><time>2026-03-25T14:17:08Z</time></trkpt><trkpt lat="44.50175008896275" lon="10.843973666842665"><ele>276.0</ele><time>2026-03-25T14:17:09Z</time></trkpt><trkpt lat="44.501674799623395" lon="10.843900837265696"><ele>276.0</ele><time>2026-03-25T14:17:10Z</time></trkpt><trkpt lat="44.501599748635456" lon="10.843826987618531"><ele>276.0</ele><time>2026-03-25T14:17:11Z</time></trkpt><trkpt lat="44.50152629117116" lon="10.843757068866502"><ele>276.0</ele><time>2026-03-25T14:17:12Z</time></trkpt><trkpt lat="44.50145482359682" lon="10.843691257024089"><ele>276.0</ele><time>2026-03-25T14:17:13Z</time></trkpt><trkpt lat="44.501389362705616" lon="10.843641122242046"><ele>276.0</ele><time>2026-03-25T14:17:14Z</time></trkpt><trkpt lat="44.501326758076374" lon="10.843596824251044"><ele>275.1666666666667</ele><time>2026-03-25T14:17:15Z</time></trkpt><trkpt lat="44.50123474908305" lon="10.843487091773877"><ele>274.3333333333333</ele><time>2026-03-25T14:17:17Z</time></trkpt><trkpt lat="44.50119041939071" lon="10.843424405381088"><ele>273.5</ele><time>2026-03-25T14:17:18Z</time></trkpt><trkpt lat="44.50114533374292" lon="10.843361827103625"><ele>272.66666666666663</ele><time>2026-03-25T14:17:19Z</time></trkpt><trkpt lat="44.50109800119513" lon="10.843294885685966"><ele>271.8333333333333</ele><time>2026-03-25T14:17:20Z</time></trkpt><trkpt lat="44.501044485542934" lon="10.843228300405876"><ele>271.0</ele><time>2026-03-25T14:17:21Z</time></trkpt><trkpt lat="44.50099145234303" lon="10.843162977301747"><ele>271.0</ele><time>2026-03-25T14:17:22Z</time></trkpt><trkpt lat="44.50093737815298" lon="10.843092911445385"><ele>271.0</ele><time>2026-03-25T14:17:23Z</time></trkpt><trkpt lat="44.5008757685852" lon="10.843037623705298"><ele>271.0</ele><time>2026-03-25T14:17:24Z</time></trkpt><trkpt lat="44.5007958002293" lon="10.843000094011195"><ele>271.0</ele><time>2026-03-25T14:17:25Z</time></trkpt><trkpt lat="44.50071355438104" lon="10.84298484353643"><ele>271.0</ele><time>2026-03-25T14:17:26Z</time></trkpt><trkpt lat="44.500630701471074" lon="10.842975345612377"><ele>271.0</ele><time>2026-03-25T14:17:27Z</time></trkpt><trkpt lat="44.50054941032068" lon="10.842967455508463"><ele>271.0</ele><time>2026-03-25T14:17:28Z</time></trkpt><trkpt lat="44.50046650882486" lon="10.842947734498047"><ele>271.0</ele><time>2026-03-25T14:17:29Z</time></trkpt><trkpt lat="44.500387467069814" lon="10.842905749177058"><ele>271.0</ele><time>2026-03-25T14:17:30Z</time></trkpt><trkpt lat="44.50031916679905" lon="10.842837980018821"><ele>271.0</ele><time>2026-03-25T14:17:31Z</time></trkpt><trkpt lat="44.500255181416776" lon="10.842762420504707"><ele>271.0</ele><time>2026-03-25T14:17:32Z</time></trkpt><trkpt lat="44.50020800125729" lon="10.842657530132453"><ele>271.0</ele><time>2026-03-25T14:17:33Z</time></trkpt><trkpt lat="44.50017621191077" lon="10.842543069263801"><ele>268.66666666666663</ele><time>2026-03-25T14:17:34Z</time></trkpt><trkpt lat="44.50015522873214" lon="10.842423940244057"><ele>266.3333333333333</ele><time>2026-03-25T14:17:35Z</time></trkpt><trkpt lat="44.5001331394262" lon="10.842309664402602"><ele>264.0</ele><time>2026-03-25T14:17:36Z</time></trkpt><trkpt lat="44.50010497140538" lon="10.842198190246469"><ele>261.6666666666667</ele><time>2026-03-25T14:17:37Z</time></trkpt><trkpt lat="44.50006602350213" lon="10.842092245094817"><ele>259.33333333333337</ele><time>2026-03-25T14:17:38Z</time></trkpt><trkpt lat="44.50001935344039" lon="10.84199718489753"><ele>257.0</ele><time>2026-03-25T14:17:39Z</time></trkpt><trkpt lat="44.499970804650275" lon="10.841902351241538"><ele>257.0</ele><time>2026-03-25T14:17:40Z</time></trkpt><trkpt lat="44.49992105468765" lon="10.841810007657223"><ele>257.0</ele><time>2026-03-25T14:17:41Z</time></trkpt><trkpt lat="44.49987817115845" lon="10.84171209108523"><ele>257.0</ele><time>2026-03-25T14:17:42Z</time></trkpt><trkpt lat="44.499844372620075" lon="10.841608760561732"><ele>257.0</ele><time>2026-03-25T14:17:43Z</time></trkpt><trkpt lat="44.49982244726437" lon="10.841498389931564"><ele>257.0</ele><time>2026-03-25T14:17:44Z</time></trkpt><trkpt lat="44.499805758155425" lon="10.841391935543896"><ele>257.0</ele><time>2026-03-25T14:17:45Z</time></trkpt><trkpt lat="44.499794655359736" lon="10.841284498009795"><ele>257.0</ele><time>2026-03-25T14:17:46Z</time></trkpt><trkpt lat="44.49978955789641" lon="10.841179464728153"><ele>257.0</ele><time>2026-03-25T14:17:47Z</time></trkpt><trkpt lat="44.499786870503485" lon="10.841076170268236"><ele>257.0</ele><time>2026-03-25T14:17:48Z</time></trkpt><trkpt lat="44.49978200337766" lon="10.840972199585776"><ele>257.0</ele><time>2026-03-25T14:17:49Z</time></trkpt><trkpt lat="44.4997758596855" lon="10.840868984108683"><ele>257.0</ele><time>2026-03-25T14:17:50Z</time></trkpt><trkpt lat="44.49976863184837" lon="10.840768549704883"><ele>257.0</ele><time>2026-03-25T14:17:51Z</time></trkpt><trkpt lat="44.49976596704184" lon="10.840665248542702"><ele>257.0</ele><time>2026-03-25T14:17:52Z</time></trkpt><trkpt lat="44.499766068451834" lon="10.84056496700166"><ele>257.0</ele><time>2026-03-25T14:17:53Z</time></trkpt><trkpt lat="44.49976412478056" lon="10.840462486271134"><ele>257.0</ele><time>2026-03-25T14:17:54Z</time></trkpt><trkpt lat="44.49975482013563" lon="10.84036376490818"><ele>257.0</ele><time>2026-03-25T14:17:55Z</time></trkpt><trkpt lat="44.49974287542711" lon="10.840269266186269"><ele>257.0</ele><time>2026-03-25T14:17:56Z</time></trkpt><trkpt lat="44.49972744955697" lon="10.84017978984645"><ele>257.0</ele><time>2026-03-25T14:17:57Z</time></trkpt><trkpt lat="44.49970803870435" lon="10.840094269185146"><ele>257.0</ele><time>2026-03-25T14:17:58Z</time></trkpt><trkpt lat="44.49965873817394" lon="10.83993738237436"><ele>256.6</ele><time>2026-03-25T14:18:00Z</time></trkpt><trkpt lat="44.49959761188907" lon="10.839791703952464"><ele>256.2</ele><time>2026-03-25T14:18:02Z</time></trkpt><trkpt lat="44.49953427983477" lon="10.839664646411237"><ele>255.8</ele><time>2026-03-25T14:18:04Z</time></trkpt><trkpt lat="44.499478642384744" lon="10.839540514298905"><ele>255.4</ele><time>2026-03-25T14:18:06Z</time></trkpt><trkpt lat="44.499429847602656" lon="10.83941169543936"><ele>255.0</ele><time>2026-03-25T14:18:08Z</time></trkpt><trkpt lat="44.49940520821478" lon="10.839272587310647"><ele>255.0</ele><time>2026-03-25T14:18:10Z</time></trkpt><trkpt lat="44.499419784525394" lon="10.839137060021452"><ele>255.0</ele><time>2026-03-25T14:18:12Z</time></trkpt><trkpt lat="44.49946172190957" lon="10.839013392036325"><ele>255.0</ele><time>2026-03-25T14:18:14Z</time></trkpt><trkpt lat="44.499507615427454" lon="10.8388934664195"><ele>255.0</ele><time>2026-03-25T14:18:16Z</time></trkpt><trkpt lat="44.49955000235828" lon="10.838771887108459"><ele>255.0</ele><time>2026-03-25T14:18:18Z</time></trkpt><trkpt lat="44.499597974499466" lon="10.838642130996647"><ele>255.4</ele><time>2026-03-25T14:18:20Z</time></trkpt><trkpt lat="44.49963884305773" lon="10.83851387454945"><ele>255.8</ele><time>2026-03-25T14:18:22Z</time></trkpt><trkpt lat="44.49967850666722" lon="10.838386401993182"><ele>256.2</ele><time>2026-03-25T14:18:24Z</time></trkpt><trkpt lat="44.49971732993174" lon="10.838265783634775"><ele>256.6</ele><time>2026-03-25T14:18:26Z</time></trkpt><trkpt lat="44.49975280383142" lon="10.838147407827735"><ele>257.0</ele><time>2026-03-25T14:18:28Z</time></trkpt><trkpt lat="44.499783462858495" lon="10.838036264418134"><ele>258.2</ele><time>2026-03-25T14:18:30Z</time></trkpt><trkpt lat="44.4998026678348" lon="10.837920801333766"><ele>259.4</ele><time>2026-03-25T14:18:32Z</time></trkpt><trkpt lat="44.49977799929605" lon="10.837797637143058"><ele>260.6</ele><time>2026-03-25T14:18:34Z</time></trkpt><trkpt lat="44.49970591707323" lon="10.837699590024778"><ele>261.8</ele><time>2026-03-25T14:18:36Z</time></trkpt><trkpt lat="44.4996051207214" lon="10.837663643112307"><ele>263.0</ele><time>2026-03-25T14:18:38Z</time></trkpt><trkpt lat="44.49949872354732" lon="10.837639435897387"><ele>263.0</ele><time>2026-03-25T14:18:40Z</time></trkpt><trkpt lat="44.49938983958656" lon="10.837622823184438"><ele>263.0</ele><time>2026-03-25T14:18:42Z</time></trkpt><trkpt lat="44.499283660631605" lon="10.837607576437234"><ele>263.0</ele><time>2026-03-25T14:18:44Z</time></trkpt><trkpt lat="44.49917388522338" lon="10.837589536822282"><ele>263.0</ele><time>2026-03-25T14:18:46Z</time></trkpt><trkpt lat="44.499059938088266" lon="10.837575146692233"><ele>263.0</ele><time>2026-03-25T14:18:48Z</time></trkpt><trkpt lat="44.49894109778446" lon="10.83756403418706"><ele>263.0</ele><time>2026-03-25T14:18:50Z</time></trkpt><trkpt lat="44.49887538199439" lon="10.837556916228518"><ele>263.0</ele><time>2026-03-25T14:18:51Z</time></trkpt><trkpt lat="44.498797173360806" lon="10.837550012211825"><ele>263.0</ele><time>2026-03-25T14:18:52Z</time></trkpt><trkpt lat="44.49871713297307" lon="10.837537943361003"><ele>263.0</ele><time>2026-03-25T14:18:53Z</time></trkpt><trkpt lat="44.49863132862322" lon="10.837504144697952"><ele>263.0</ele><time>2026-03-25T14:18:54Z</time></trkpt><trkpt lat="44.49855050212918" lon="10.8374475066856"><ele>263.0</ele><time>2026-03-25T14:18:55Z</time></trkpt><trkpt lat="44.49847658221245" lon="10.837365268844781"><ele>261.4</ele><time>2026-03-25T14:18:56Z</time></trkpt><trkpt lat="44.49842197715568" lon="10.837242484985044"><ele>259.8</ele><time>2026-03-25T14:18:57Z</time></trkpt><trkpt lat="44.498363709540946" lon="10.837124387005426"><ele>258.2</ele><time>2026-03-25T14:18:58Z</time></trkpt><trkpt lat="44.49830561716902" lon="10.837006249389557"><ele>256.6</ele><time>2026-03-25T14:18:59Z</time></trkpt><trkpt lat="44.49824626088381" lon="10.836882243391274"><ele>255.0</ele><time>2026-03-25T14:19:00Z</time></trkpt><trkpt lat="44.498188263546375" lon="10.836755534574847"><ele>255.0</ele><time>2026-03-25T14:19:01Z</time></trkpt><trkpt lat="44.49812837101544" lon="10.836629752537895"><ele>255.0</ele><time>2026-03-25T14:19:02Z</time></trkpt><trkpt lat="44.498067079991095" lon="10.836503347655437"><ele>255.0</ele><time>2026-03-25T14:19:03Z</time></trkpt><trkpt lat="44.49800066333173" lon="10.83638527006638"><ele>255.0</ele><time>2026-03-25T14:19:04Z</time></trkpt><trkpt lat="44.497929482618986" lon="10.836275398790331"><ele>255.0</ele><time>2026-03-25T14:19:05Z</time></trkpt><trkpt lat="44.49785975764513" lon="10.836175363624458"><ele>254.0</ele><time>2026-03-25T14:19:06Z</time></trkpt><trkpt lat="44.49780368038156" lon="10.836079690629287"><ele>253.0</ele><time>2026-03-25T14:19:07Z</time></trkpt><trkpt lat="44.497749604430844" lon="10.83599292341557"><ele>252.0</ele><time>2026-03-25T14:19:08Z</time></trkpt><trkpt lat="44.49770032517285" lon="10.835914710960987"><ele>251.0</ele><time>2026-03-25T14:19:09Z</time></trkpt><trkpt lat="44.49765974944982" lon="10.835845998670822"><ele>250.0</ele><time>2026-03-25T14:19:10Z</time></trkpt><trkpt lat="44.497588210161595" lon="10.835709479094929"><ele>249.0</ele><time>2026-03-25T14:19:12Z</time></trkpt><trkpt lat="44.4975372042721" lon="10.835553642245673"><ele>249.0</ele><time>2026-03-25T14:19:14Z</time></trkpt><trkpt lat="44.49753370107451" lon="10.835383571549702"><ele>249.0</ele><time>2026-03-25T14:19:16Z</time></trkpt><trkpt lat="44.49754156752898" lon="10.835214304562376"><ele>249.0</ele><time>2026-03-25T14:19:18Z</time></trkpt><trkpt lat="44.497554596605035" lon="10.835047558929626"><ele>249.0</ele><time>2026-03-25T14:19:20Z</time></trkpt><trkpt lat="44.49758948965786" lon="10.834896840017503"><ele>249.6</ele><time>2026-03-25T14:19:22Z</time></trkpt><trkpt lat="44.497642429596574" lon="10.834765664135857"><ele>250.2</ele><time>2026-03-25T14:19:24Z</time></trkpt><trkpt lat="44.49772075173317" lon="10.834657741823023"><ele>250.79999999999998</ele><time>2026-03-25T14:19:26Z</time></trkpt><trkpt lat="44.49781720279568" lon="10.834544849240528"><ele>251.39999999999998</ele><time>2026-03-25T14:19:28Z</time></trkpt><trkpt lat="44.49786934544983" lon="10.834488561115142"><ele>252.0</ele><time>2026-03-25T14:19:29Z</time></trkpt><trkpt lat="44.497919749960595" lon="10.834432490868311"><ele>252.0</ele><time>2026-03-25T14:19:30Z</time></trkpt><trkpt lat="44.4980183463749" lon="10.83432011419538"><ele>252.0</ele><time>2026-03-25T14:19:32Z</time></trkpt><trkpt lat="44.49811657888233" lon="10.834216413936497"><ele>252.0</ele><time>2026-03-25T14:19:34Z</time></trkpt><trkpt lat="44.4982059489108" lon="10.83410993154906"><ele>252.0</ele><time>2026-03-25T14:19:36Z</time></trkpt><trkpt lat="44.49828419954206" lon="10.834005832954697"><ele>253.2</ele><time>2026-03-25T14:19:38Z</time></trkpt><trkpt lat="44.498357472851175" lon="10.833901780467771"><ele>254.39999999999998</ele><time>2026-03-25T14:19:40Z</time></trkpt><trkpt lat="44.49841134403946" lon="10.833803049889749"><ele>255.60000000000002</ele><time>2026-03-25T14:19:42Z</time></trkpt><trkpt lat="44.49845509355664" lon="10.833683744474316"><ele>256.8</ele><time>2026-03-25T14:19:44Z</time></trkpt><trkpt lat="44.49849201708803" lon="10.833549818790491"><ele>258.0</ele><time>2026-03-25T14:19:46Z</time></trkpt><trkpt lat="44.49852834341014" lon="10.833399525145726"><ele>259.3333333333333</ele><time>2026-03-25T14:19:48Z</time></trkpt><trkpt lat="44.49856612533936" lon="10.83323495949385"><ele>260.6666666666667</ele><time>2026-03-25T14:19:50Z</time></trkpt><trkpt lat="44.49858844132908" lon="10.83314106388926"><ele>262.0</ele><time>2026-03-25T14:19:51Z</time></trkpt><trkpt lat="44.49861172710544" lon="10.833052759131483"><ele>263.33333333333337</ele><time>2026-03-25T14:19:52Z</time></trkpt><trkpt lat="44.49863617311478" lon="10.83296494166645"><ele>264.6666666666667</ele><time>2026-03-25T14:19:53Z</time></trkpt><trkpt lat="44.498663529447036" lon="10.832884109918062"><ele>266.0</ele><time>2026-03-25T14:19:54Z</time></trkpt><trkpt lat="44.49871571578565" lon="10.832732957406435"><ele>265.33333333333337</ele><time>2026-03-25T14:19:56Z</time></trkpt><trkpt lat="44.49876108556888" lon="10.832595263420298"><ele>264.6666666666667</ele><time>2026-03-25T14:19:58Z</time></trkpt><trkpt lat="44.498800693589956" lon="10.832479774488652"><ele>264.0</ele><time>2026-03-25T14:20:00Z</time></trkpt><trkpt lat="44.49883644943521" lon="10.832372353611367"><ele>263.3333333333333</ele><time>2026-03-25T14:20:02Z</time></trkpt><trkpt lat="44.49886793395725" lon="10.832271479257733"><ele>262.66666666666663</ele><time>2026-03-25T14:20:04Z</time></trkpt><trkpt lat="44.49889905685815" lon="10.83217509728514"><ele>262.0</ele><time>2026-03-25T14:20:06Z</time></trkpt><trkpt lat="44.498932011260024" lon="10.832077497034795"><ele>262.0</ele><time>2026-03-25T14:20:08Z</time></trkpt><trkpt lat="44.49896156480262" lon="10.831988003467394"><ele>262.0</ele><time>2026-03-25T14:20:10Z</time></trkpt><trkpt lat="44.498991632844266" lon="10.831896205949992"><ele>262.0</ele><time>2026-03-25T14:20:12Z</time></trkpt><trkpt lat="44.499019564661864" lon="10.831804469251955"><ele>262.0</ele><time>2026-03-25T14:20:14Z</time></trkpt><trkpt lat="44.49905198609728" lon="10.831714371061219"><ele>262.0</ele><time>2026-03-25T14:20:16Z</time></trkpt><trkpt lat="44.499080160239814" lon="10.831625174519953"><ele>262.0</ele><time>2026-03-25T14:20:18Z</time></trkpt><trkpt lat="44.49911315902587" lon="10.831505363689171"><ele>262.0</ele><time>2026-03-25T14:20:21Z</time></trkpt><trkpt lat="44.49915016510686" lon="10.831403155530081"><ele>263.5</ele><time>2026-03-25T14:20:24Z</time></trkpt><trkpt lat="44.49916868632888" lon="10.831306485863722"><ele>265.0</ele><time>2026-03-25T14:20:27Z</time></trkpt><trkpt lat="44.499086776105095" lon="10.831286440616987"><ele>266.5</ele><time>2026-03-25T14:21:03Z</time></trkpt><trkpt lat="44.49900985745671" lon="10.831300897241466"><ele>268.0</ele><time>2026-03-25T14:21:06Z</time></trkpt><trkpt lat="44.49892935636003" lon="10.831283697297938"><ele>269.5</ele><time>2026-03-25T14:21:09Z</time></trkpt><trkpt lat="44.49884986273277" lon="10.831262640837993"><ele>271.0</ele><time>2026-03-25T14:21:12Z</time></trkpt><trkpt lat="44.498771295978955" lon="10.831252128611933"><ele>273.16666666666663</ele><time>2026-03-25T14:21:15Z</time></trkpt><trkpt lat="44.498682015479964" lon="10.831246325553938"><ele>275.3333333333333</ele><time>2026-03-25T14:21:18Z</time></trkpt><trkpt lat="44.498596390315484" lon="10.831240472672278"><ele>277.5</ele><time>2026-03-25T14:21:21Z</time></trkpt><trkpt lat="44.4985134324197" lon="10.831231393642906"><ele>279.6666666666667</ele><time>2026-03-25T14:21:24Z</time></trkpt><trkpt lat="44.498433151143566" lon="10.831223901514937"><ele>281.83333333333337</ele><time>2026-03-25T14:21:27Z</time></trkpt><trkpt lat="44.49835305783151" lon="10.831225144717248"><ele>284.0</ele><time>2026-03-25T14:21:30Z</time></trkpt><trkpt lat="44.49826927464122" lon="10.83122348508259"><ele>284.0</ele><time>2026-03-25T14:21:33Z</time></trkpt><trkpt lat="44.49818483805882" lon="10.831210369976464"><ele>284.0</ele><time>2026-03-25T14:21:36Z</time></trkpt><trkpt lat="44.498097307533754" lon="10.831202040325284"><ele>284.0</ele><time>2026-03-25T14:21:39Z</time></trkpt><trkpt lat="44.49800932321919" lon="10.831189623156385"><ele>284.0</ele><time>2026-03-25T14:21:42Z</time></trkpt><trkpt lat="44.497924591555424" lon="10.831164483307067"><ele>284.0</ele><time>2026-03-25T14:21:45Z</time></trkpt><trkpt lat="44.49784244736901" lon="10.831145435566679"><ele>284.0</ele><time>2026-03-25T14:21:48Z</time></trkpt><trkpt lat="44.497767170219994" lon="10.831120581363601"><ele>284.42857142857144</ele><time>2026-03-25T14:21:51Z</time></trkpt><trkpt lat="44.497692540898086" lon="10.831102771032896"><ele>284.85714285714283</ele><time>2026-03-25T14:21:54Z</time></trkpt><trkpt lat="44.49762171848508" lon="10.831089132661877"><ele>285.2857142857143</ele><time>2026-03-25T14:21:57Z</time></trkpt><trkpt lat="44.497556611480796" lon="10.831082568293128"><ele>285.7142857142857</ele><time>2026-03-25T14:22:01Z</time></trkpt><trkpt lat="44.49749054758025" lon="10.83108774625365"><ele>286.1428571428571</ele><time>2026-03-25T14:22:09Z</time></trkpt><trkpt lat="44.49744922002514" lon="10.831155672009796"><ele>286.57142857142856</ele><time>2026-03-25T14:22:16Z</time></trkpt><trkpt lat="44.49739431458468" lon="10.83120371502396"><ele>287.0</ele><time>2026-03-25T14:22:20Z</time></trkpt><trkpt lat="44.49734105160352" lon="10.831257268263734"><ele>287.0</ele><time>2026-03-25T14:22:23Z</time></trkpt><trkpt lat="44.49728424775552" lon="10.831318590620123"><ele>287.0</ele><time>2026-03-25T14:22:26Z</time></trkpt><trkpt lat="44.497224947416726" lon="10.831369953374336"><ele>287.0</ele><time>2026-03-25T14:22:29Z</time></trkpt><trkpt lat="44.4971633316384" lon="10.831418814265552"><ele>287.0</ele><time>2026-03-25T14:22:32Z</time></trkpt><trkpt lat="44.49709740580869" lon="10.83145633854736"><ele>287.0</ele><time>2026-03-25T14:22:35Z</time></trkpt><trkpt lat="44.49703032901721" lon="10.831509015181803"><ele>287.0</ele><time>2026-03-25T14:22:38Z</time></trkpt><trkpt lat="44.49697443475038" lon="10.83156760514784"><ele>287.0</ele><time>2026-03-25T14:22:41Z</time></trkpt><trkpt lat="44.496913225010786" lon="10.831629959955869"><ele>287.7142857142857</ele><time>2026-03-25T14:22:44Z</time></trkpt><trkpt lat="44.49684422412152" lon="10.831684606167691"><ele>288.42857142857144</ele><time>2026-03-25T14:22:47Z</time></trkpt><trkpt lat="44.4967769895882" lon="10.831732023953363"><ele>289.1428571428571</ele><time>2026-03-25T14:22:50Z</time></trkpt><trkpt lat="44.49671666343504" lon="10.831779940530154"><ele>289.8571428571429</ele><time>2026-03-25T14:22:53Z</time></trkpt><trkpt lat="44.496652746054046" lon="10.831810337561476"><ele>290.57142857142856</ele><time>2026-03-25T14:22:56Z</time></trkpt><trkpt lat="44.49658263071036" lon="10.831843876457087"><ele>291.2857142857143</ele><time>2026-03-25T14:22:59Z</time></trkpt><trkpt lat="44.49650680855876" lon="10.831883009695998"><ele>292.0</ele><time>2026-03-25T14:23:03Z</time></trkpt><trkpt lat="44.496427496109966" lon="10.831918118926634"><ele>292.0</ele><time>2026-03-25T14:23:07Z</time></trkpt><trkpt lat="44.49635634896874" lon="10.831930151962617"><ele>292.0</ele><time>2026-03-25T14:23:10Z</time></trkpt><trkpt lat="44.49627690552846" lon="10.831922448884525"><ele>292.0</ele><time>2026-03-25T14:23:13Z</time></trkpt><trkpt lat="44.496212142196285" lon="10.831861863205566"><ele>292.0</ele><time>2026-03-25T14:23:16Z</time></trkpt><trkpt lat="44.496212393236604" lon="10.83175711327826"><ele>292.0</ele><time>2026-03-25T14:23:19Z</time></trkpt><trkpt lat="44.49626178210222" lon="10.831698382714993"><ele>292.0</ele><time>2026-03-25T14:23:21Z</time></trkpt><trkpt lat="44.496305902213926" lon="10.831604734573215"><ele>292.0</ele><time>2026-03-25T14:23:24Z</time></trkpt><trkpt lat="44.49631629451963" lon="10.831501824087534"><ele>293.2857142857143</ele><time>2026-03-25T14:23:27Z</time></trkpt><trkpt lat="44.496335725572195" lon="10.831417384384316"><ele>294.57142857142856</ele><time>2026-03-25T14:23:30Z</time></trkpt><trkpt lat="44.49637000241342" lon="10.831342189964149"><ele>295.8571428571429</ele><time>2026-03-25T14:23:33Z</time></trkpt><trkpt lat="44.49638879310982" lon="10.831246677684053"><ele>297.1428571428571</ele><time>2026-03-25T14:23:36Z</time></trkpt><trkpt lat="44.4964095532088" lon="10.831145363021403"><ele>298.42857142857144</ele><time>2026-03-25T14:23:39Z</time></trkpt><trkpt lat="44.49639507193478" lon="10.831041896509003"><ele>299.7142857142857</ele><time>2026-03-25T14:23:42Z</time></trkpt><trkpt lat="44.49637859115946" lon="10.830933599138701"><ele>301.0</ele><time>2026-03-25T14:23:45Z</time></trkpt><trkpt lat="44.496355218347105" lon="10.830850753506425"><ele>302.0</ele><time>2026-03-25T14:23:48Z</time></trkpt><trkpt lat="44.49631205661003" lon="10.830775946552011"><ele>303.0</ele><time>2026-03-25T14:23:52Z</time></trkpt><trkpt lat="44.496247276122986" lon="10.83075740631692"><ele>304.0</ele><time>2026-03-25T14:23:55Z</time></trkpt><trkpt lat="44.49617567231942" lon="10.830698244598295"><ele>305.0</ele><time>2026-03-25T14:23:59Z</time></trkpt><trkpt lat="44.496135294601075" lon="10.830630311990049"><ele>306.0</ele><time>2026-03-25T14:24:02Z</time></trkpt><trkpt lat="44.49609621888378" lon="10.830544603898902"><ele>307.0</ele><time>2026-03-25T14:24:05Z</time></trkpt><trkpt lat="44.496052129557036" lon="10.830466892503745"><ele>308.0</ele><time>2026-03-25T14:24:08Z</time></trkpt><trkpt lat="44.496006438549266" lon="10.830395589195984"><ele>309.2857142857143</ele><time>2026-03-25T14:24:11Z</time></trkpt><trkpt lat="44.49593867629511" lon="10.830339913406744"><ele>310.57142857142856</ele><time>2026-03-25T14:24:15Z</time></trkpt><trkpt lat="44.49586768349607" lon="10.83031425275136"><ele>311.8571428571429</ele><time>2026-03-25T14:24:19Z</time></trkpt><trkpt lat="44.495798771616755" lon="10.830302328197678"><ele>313.1428571428571</ele><time>2026-03-25T14:24:23Z</time></trkpt><trkpt lat="44.49573365544408" lon="10.830261535758753"><ele>314.42857142857144</ele><time>2026-03-25T14:24:27Z</time></trkpt><trkpt lat="44.495706630794764" lon="10.830177192152046"><ele>315.7142857142857</ele><time>2026-03-25T14:27:26Z</time></trkpt><trkpt lat="44.495645907561745" lon="10.830091480034357"><ele>317.0</ele><time>2026-03-25T14:27:30Z</time></trkpt><trkpt lat="44.495617659851064" lon="10.830011191027012"><ele>318.1666666666667</ele><time>2026-03-25T14:27:33Z</time></trkpt><trkpt lat="44.49558016139026" lon="10.829936034312896"><ele>319.33333333333337</ele><time>2026-03-25T14:27:36Z</time></trkpt><trkpt lat="44.49553550458933" lon="10.829857233248694"><ele>320.5</ele><time>2026-03-25T14:27:39Z</time></trkpt><trkpt lat="44.49548255011367" lon="10.829800778535343"><ele>321.6666666666667</ele><time>2026-03-25T14:27:42Z</time></trkpt><trkpt lat="44.495431712207306" lon="10.829696479041855"><ele>322.8333333333333</ele><time>2026-03-25T14:27:45Z</time></trkpt><trkpt lat="44.4953848233871" lon="10.829604722443444"><ele>324.0</ele><time>2026-03-25T14:27:47Z</time></trkpt><trkpt lat="44.495326722533974" lon="10.829504844146973"><ele>324.0</ele><time>2026-03-25T14:27:49Z</time></trkpt><trkpt lat="44.49524485828501" lon="10.829418337340076"><ele>324.0</ele><time>2026-03-25T14:27:51Z</time></trkpt><trkpt lat="44.495161300554535" lon="10.829329138112351"><ele>324.0</ele><time>2026-03-25T14:27:53Z</time></trkpt><trkpt lat="44.49509332178835" lon="10.829247057844015"><ele>324.0</ele><time>2026-03-25T14:27:55Z</time></trkpt><trkpt lat="44.49504093969547" lon="10.829151453214545"><ele>324.0</ele><time>2026-03-25T14:27:57Z</time></trkpt><trkpt lat="44.49499802057661" lon="10.829067427273326"><ele>325.5</ele><time>2026-03-25T14:27:59Z</time></trkpt><trkpt lat="44.494953904381546" lon="10.828979226862531"><ele>327.0</ele><time>2026-03-25T14:28:02Z</time></trkpt><trkpt lat="44.49490557450366" lon="10.828879647165124"><ele>328.5</ele><time>2026-03-25T14:28:06Z</time></trkpt><trkpt lat="44.49486252567751" lon="10.828791963686824"><ele>330.0</ele><time>2026-03-25T14:28:09Z</time></trkpt><trkpt lat="44.49481426551387" lon="10.828681720345486"><ele>331.5</ele><time>2026-03-25T14:28:12Z</time></trkpt><trkpt lat="44.494782359152445" lon="10.828596218528048"><ele>333.0</ele><time>2026-03-25T14:28:15Z</time></trkpt><trkpt lat="44.49475003454411" lon="10.828508082876025"><ele>332.42857142857144</ele><time>2026-03-25T14:28:18Z</time></trkpt><trkpt lat="44.4947184080158" lon="10.828422171822352"><ele>331.85714285714283</ele><time>2026-03-25T14:28:21Z</time></trkpt><trkpt lat="44.49469094411086" lon="10.828338003225657"><ele>331.2857142857143</ele><time>2026-03-25T14:28:24Z</time></trkpt><trkpt lat="44.49464146747691" lon="10.828236713632634"><ele>330.7142857142857</ele><time>2026-03-25T14:28:28Z</time></trkpt><trkpt lat="44.49459536645711" lon="10.828161395868284"><ele>330.1428571428571</ele><time>2026-03-25T14:28:31Z</time></trkpt><trkpt lat="44.49453944020353" lon="10.828095430153843"><ele>329.57142857142856</ele><time>2026-03-25T14:28:34Z</time></trkpt><trkpt lat="44.494487390960245" lon="10.828026879215425"><ele>329.0</ele><time>2026-03-25T14:28:37Z</time></trkpt><trkpt lat="44.494442300195566" lon="10.827954816982945"><ele>330.14285714285717</ele><time>2026-03-25T14:28:40Z</time></trkpt><trkpt lat="44.49439665903673" lon="10.827889725238363"><ele>331.2857142857143</ele><time>2026-03-25T14:28:43Z</time></trkpt><trkpt lat="44.49434380211789" lon="10.827819378445062"><ele>332.42857142857144</ele><time>2026-03-25T14:28:46Z</time></trkpt><trkpt lat="44.494293657588415" lon="10.827753258957987"><ele>333.57142857142856</ele><time>2026-03-25T14:28:49Z</time></trkpt><trkpt lat="44.49425115233834" lon="10.827668281796214"><ele>334.7142857142857</ele><time>2026-03-25T14:28:52Z</time></trkpt><trkpt lat="44.494228422728305" lon="10.827569609970737"><ele>335.8571428571429</ele><time>2026-03-25T14:28:55Z</time></trkpt><trkpt lat="44.49418586983104" lon="10.827462997548631"><ele>337.0</ele><time>2026-03-25T14:28:58Z</time></trkpt><trkpt lat="44.49415156176322" lon="10.827350556884575"><ele>338.28571428571433</ele><time>2026-03-25T14:29:01Z</time></trkpt><trkpt lat="44.494113722237785" lon="10.827279043171561"><ele>339.57142857142856</ele><time>2026-03-25T14:29:03Z</time></trkpt><trkpt lat="44.494085378581474" lon="10.827199371864609"><ele>340.8571428571429</ele><time>2026-03-25T14:29:05Z</time></trkpt><trkpt lat="44.494051900606706" lon="10.827116509879602"><ele>342.14285714285717</ele><time>2026-03-25T14:29:07Z</time></trkpt><trkpt lat="44.49402201089176" lon="10.827038282953321"><ele>343.42857142857144</ele><time>2026-03-25T14:29:09Z</time></trkpt><trkpt lat="44.49396773647737" lon="10.82693540805389"><ele>344.7142857142857</ele><time>2026-03-25T14:29:12Z</time></trkpt><trkpt lat="44.49390325473415" lon="10.82684625609756"><ele>346.0</ele><time>2026-03-25T14:29:15Z</time></trkpt><trkpt lat="44.49386310493178" lon="10.826778016488019"><ele>346.2857142857143</ele><time>2026-03-25T14:29:17Z</time></trkpt><trkpt lat="44.49381508949768" lon="10.826715963092653"><ele>346.5714285714286</ele><time>2026-03-25T14:29:19Z</time></trkpt><trkpt lat="44.49376176911399" lon="10.826666692070306"><ele>346.8571428571429</ele><time>2026-03-25T14:29:21Z</time></trkpt><trkpt lat="44.49370682651887" lon="10.826609557098609"><ele>347.1428571428571</ele><time>2026-03-25T14:29:23Z</time></trkpt><trkpt lat="44.493660247627396" lon="10.826548285883721"><ele>347.42857142857144</ele><time>2026-03-25T14:29:25Z</time></trkpt><trkpt lat="44.4935919513032" lon="10.826456638973788"><ele>347.7142857142857</ele><time>2026-03-25T14:29:28Z</time></trkpt><trkpt lat="44.493536973075166" lon="10.826380095669474"><ele>348.0</ele><time>2026-03-25T14:29:31Z</time></trkpt><trkpt lat="44.49345428839765" lon="10.826346158160646"><ele>348.0</ele><time>2026-03-25T14:29:33Z</time></trkpt><trkpt lat="44.49344770411333" lon="10.826248720743479"><ele>348.0</ele><time>2026-03-25T14:29:36Z</time></trkpt><trkpt lat="44.49340467694188" lon="10.826174857198174"><ele>348.0</ele><time>2026-03-25T14:29:39Z</time></trkpt><trkpt lat="44.4933697651933" lon="10.826090797207849"><ele>348.0</ele><time>2026-03-25T14:29:42Z</time></trkpt><trkpt lat="44.49334228322539" lon="10.8259914917108"><ele>348.0</ele><time>2026-03-25T14:29:46Z</time></trkpt><trkpt lat="44.49331355063345" lon="10.825889467772996"><ele>348.0</ele><time>2026-03-25T14:29:50Z</time></trkpt><trkpt lat="44.4932928342699" lon="10.825791631765489"><ele>348.0</ele><time>2026-03-25T14:29:54Z</time></trkpt><trkpt lat="44.49324758458058" lon="10.825702992693023"><ele>349.7142857142857</ele><time>2026-03-25T14:29:58Z</time></trkpt><trkpt lat="44.49319766068778" lon="10.825643884767926"><ele>351.42857142857144</ele><time>2026-03-25T14:30:01Z</time></trkpt><trkpt lat="44.49313490909511" lon="10.82560001321616"><ele>353.1428571428571</ele><time>2026-03-25T14:30:04Z</time></trkpt><trkpt lat="44.49308193713222" lon="10.825549008173592"><ele>354.8571428571429</ele><time>2026-03-25T14:30:07Z</time></trkpt><trkpt lat="44.493035580153034" lon="10.8254801224045"><ele>356.5714285714286</ele><time>2026-03-25T14:30:10Z</time></trkpt><trkpt lat="44.492990278936006" lon="10.8254165094096"><ele>358.2857142857143</ele><time>2026-03-25T14:30:13Z</time></trkpt><trkpt lat="44.492948131251985" lon="10.825342862379792"><ele>360.0</ele><time>2026-03-25T14:30:16Z</time></trkpt><trkpt lat="44.492885084738504" lon="10.82527920601645"><ele>360.0</ele><time>2026-03-25T14:30:20Z</time></trkpt><trkpt lat="44.49280611897422" lon="10.825238526576983"><ele>360.0</ele><time>2026-03-25T14:30:24Z</time></trkpt><trkpt lat="44.49274392544911" lon="10.825212188415216"><ele>360.0</ele><time>2026-03-25T14:30:27Z</time></trkpt><trkpt lat="44.492663971621774" lon="10.825183532837405"><ele>360.0</ele><time>2026-03-25T14:30:31Z</time></trkpt><trkpt lat="44.49259492923607" lon="10.82515307402752"><ele>360.0</ele><time>2026-03-25T14:30:34Z</time></trkpt><trkpt lat="44.492524518953324" lon="10.825118810382456"><ele>360.0</ele><time>2026-03-25T14:30:37Z</time></trkpt><trkpt lat="44.492440982734635" lon="10.825092809026817"><ele>361.8</ele><time>2026-03-25T14:30:41Z</time></trkpt><trkpt lat="44.492371142424886" lon="10.825075498311886"><ele>363.6</ele><time>2026-03-25T14:30:43Z</time></trkpt><trkpt lat="44.49229394168957" lon="10.825029515815242"><ele>365.4</ele><time>2026-03-25T14:30:45Z</time></trkpt><trkpt lat="44.49223361341369" lon="10.824919128034475"><ele>367.2</ele><time>2026-03-25T14:30:47Z</time></trkpt><trkpt lat="44.49219291880456" lon="10.824767808443289"><ele>369.0</ele><time>2026-03-25T14:30:49Z</time></trkpt><trkpt lat="44.492185172056175" lon="10.824620448911139"><ele>369.0</ele><time>2026-03-25T14:30:51Z</time></trkpt><trkpt lat="44.492165105019595" lon="10.824480585963185"><ele>369.0</ele><time>2026-03-25T14:30:53Z</time></trkpt><trkpt lat="44.49210785545853" lon="10.824406131265759"><ele>369.0</ele><time>2026-03-25T14:30:55Z</time></trkpt><trkpt lat="44.4920362930194" lon="10.824361955431877"><ele>369.0</ele><time>2026-03-25T14:30:57Z</time></trkpt><trkpt lat="44.49196902394713" lon="10.82434948006426"><ele>369.0</ele><time>2026-03-25T14:31:00Z</time></trkpt><trkpt lat="44.4918896566843" lon="10.824353708281963"><ele>369.0</ele><time>2026-03-25T14:31:05Z</time></trkpt><trkpt lat="44.49182597979612" lon="10.824349190675592"><ele>367.0</ele><time>2026-03-25T14:31:09Z</time></trkpt><trkpt lat="44.4917544164468" lon="10.824282074272563"><ele>365.0</ele><time>2026-03-25T14:31:13Z</time></trkpt><trkpt lat="44.491700554027545" lon="10.824173178396952"><ele>363.0</ele><time>2026-03-25T14:31:16Z</time></trkpt><trkpt lat="44.491640830921924" lon="10.824061519469957"><ele>361.0</ele><time>2026-03-25T14:31:18Z</time></trkpt><trkpt lat="44.49153057100886" lon="10.823974094363589"><ele>359.0</ele><time>2026-03-25T14:31:20Z</time></trkpt><trkpt lat="44.49145969489443" lon="10.823952267895535"><ele>359.0</ele><time>2026-03-25T14:31:21Z</time></trkpt><trkpt lat="44.49139239768624" lon="10.823936729278353"><ele>359.0</ele><time>2026-03-25T14:31:22Z</time></trkpt><trkpt lat="44.491333056625336" lon="10.823906191737168"><ele>359.0</ele><time>2026-03-25T14:31:23Z</time></trkpt><trkpt lat="44.49125183081523" lon="10.82384371808943"><ele>359.0</ele><time>2026-03-25T14:31:25Z</time></trkpt><trkpt lat="44.49119404264215" lon="10.823777654986532"><ele>359.0</ele><time>2026-03-25T14:31:28Z</time></trkpt><trkpt lat="44.49112786978087" lon="10.823731143686306"><ele>359.0</ele><time>2026-03-25T14:31:32Z</time></trkpt><trkpt lat="44.49105129952464" lon="10.823703790133337"><ele>359.0</ele><time>2026-03-25T14:31:35Z</time></trkpt><trkpt lat="44.490973596841194" lon="10.82371383743739"><ele>359.0</ele><time>2026-03-25T14:31:37Z</time></trkpt><trkpt lat="44.4908953777708" lon="10.823736984267457"><ele>359.0</ele><time>2026-03-25T14:31:39Z</time></trkpt><trkpt lat="44.49081022276847" lon="10.823734454646877"><ele>359.0</ele><time>2026-03-25T14:31:41Z</time></trkpt><trkpt lat="44.49074302231354" lon="10.823666228545816"><ele>359.0</ele><time>2026-03-25T14:31:43Z</time></trkpt><trkpt lat="44.49066529709616" lon="10.823610315309176"><ele>359.0</ele><time>2026-03-25T14:31:46Z</time></trkpt><trkpt lat="44.49059575705715" lon="10.823584116402724"><ele>359.0</ele><time>2026-03-25T14:31:49Z</time></trkpt><trkpt lat="44.49053293336764" lon="10.823598618897641"><ele>359.0</ele><time>2026-03-25T14:31:52Z</time></trkpt><trkpt lat="44.490466198080526" lon="10.823635099039953"><ele>359.0</ele><time>2026-03-25T14:31:55Z</time></trkpt><trkpt lat="44.49039957016567" lon="10.823671628125494"><ele>359.0</ele><time>2026-03-25T14:31:58Z</time></trkpt><trkpt lat="44.490332486279655" lon="10.823683239540525"><ele>359.0</ele><time>2026-03-25T14:32:01Z</time></trkpt><trkpt lat="44.49025396564799" lon="10.823650174907876"><ele>359.0</ele><time>2026-03-25T14:32:05Z</time></trkpt><trkpt lat="44.490178010630956" lon="10.82359998779964"><ele>359.0</ele><time>2026-03-25T14:32:09Z</time></trkpt><trkpt lat="44.49011488457085" lon="10.82356564471236"><ele>360.42857142857144</ele><time>2026-03-25T14:32:12Z</time></trkpt><trkpt lat="44.49004586750085" lon="10.82356094889522"><ele>361.8571428571429</ele><time>2026-03-25T14:32:15Z</time></trkpt><trkpt lat="44.48997276690608" lon="10.823579141628079"><ele>363.2857142857143</ele><time>2026-03-25T14:32:19Z</time></trkpt><trkpt lat="44.48990372718383" lon="10.823628455423156"><ele>364.7142857142857</ele><time>2026-03-25T14:32:23Z</time></trkpt><trkpt lat="44.489854959497094" lon="10.823705490717602"><ele>366.1428571428571</ele><time>2026-03-25T14:32:26Z</time></trkpt><trkpt lat="44.4897915693371" lon="10.82375555171738"><ele>367.57142857142856</ele><time>2026-03-25T14:32:29Z</time></trkpt><trkpt lat="44.48972943413236" lon="10.823796391142206"><ele>369.0</ele><time>2026-03-25T14:32:32Z</time></trkpt><trkpt lat="44.4896496302602" lon="10.823841941231594"><ele>369.0</ele><time>2026-03-25T14:32:36Z</time></trkpt><trkpt lat="44.48959286054097" lon="10.823883139885845"><ele>369.0</ele><time>2026-03-25T14:32:39Z</time></trkpt><trkpt lat="44.48953193906818" lon="10.823932741495979"><ele>369.0</ele><time>2026-03-25T14:32:42Z</time></trkpt><trkpt lat="44.48948401751647" lon="10.823992693125511"><ele>369.0</ele><time>2026-03-25T14:32:45Z</time></trkpt><trkpt lat="44.4894117822706" lon="10.824030357657369"><ele>369.0</ele><time>2026-03-25T14:32:49Z</time></trkpt><trkpt lat="44.48934687513227" lon="10.824047258357883"><ele>369.0</ele><time>2026-03-25T14:32:52Z</time></trkpt><trkpt lat="44.4892785783893" lon="10.824056753958576"><ele>369.0</ele><time>2026-03-25T14:32:55Z</time></trkpt><trkpt lat="44.48921244503318" lon="10.824051174460966"><ele>373.0</ele><time>2026-03-25T14:32:58Z</time></trkpt><trkpt lat="44.48914626412609" lon="10.824042779888451"><ele>377.0</ele><time>2026-03-25T14:33:01Z</time></trkpt><trkpt lat="44.48907796921087" lon="10.824029415544004"><ele>381.0</ele><time>2026-03-25T14:33:04Z</time></trkpt><trkpt lat="44.48900599079082" lon="10.824010824287921"><ele>385.0</ele><time>2026-03-25T14:33:07Z</time></trkpt><trkpt lat="44.48893481742603" lon="10.823978209527477"><ele>389.0</ele><time>2026-03-25T14:33:10Z</time></trkpt><trkpt lat="44.48885722460143" lon="10.823955275404616"><ele>393.0</ele><time>2026-03-25T14:33:13Z</time></trkpt><trkpt lat="44.48878044554219" lon="10.823937383681896"><ele>397.0</ele><time>2026-03-25T14:33:16Z</time></trkpt><trkpt lat="44.48870996761728" lon="10.823904596192351"><ele>397.00000000000006</ele><time>2026-03-25T14:33:19Z</time></trkpt><trkpt lat="44.488641949917366" lon="10.823861099629946"><ele>397.0</ele><time>2026-03-25T14:33:22Z</time></trkpt><trkpt lat="44.4885788418198" lon="10.823821110408229"><ele>397.0</ele><time>2026-03-25T14:33:25Z</time></trkpt><trkpt lat="44.48850805202004" lon="10.823777979148252"><ele>397.0</ele><time>2026-03-25T14:33:28Z</time></trkpt><trkpt lat="44.48843836103398" lon="10.823738246156893"><ele>397.00000000000006</ele><time>2026-03-25T14:33:31Z</time></trkpt><trkpt lat="44.48835472334732" lon="10.823708028181322"><ele>397.0</ele><time>2026-03-25T14:33:35Z</time></trkpt><trkpt lat="44.48828790690328" lon="10.823664380392866"><ele>397.0</ele><time>2026-03-25T14:33:40Z</time></trkpt><trkpt lat="44.48822240448995" lon="10.823634869983277"><ele>397.0</ele><time>2026-03-25T14:33:45Z</time></trkpt><trkpt lat="44.48815992930221" lon="10.823603830846517"><ele>397.0</ele><time>2026-03-25T14:33:50Z</time></trkpt><trkpt lat="44.488097353959" lon="10.823577569498799"><ele>397.0</ele><time>2026-03-25T14:33:55Z</time></trkpt><trkpt lat="44.488021540979084" lon="10.82355873514045"><ele>397.0</ele><time>2026-03-25T14:34:01Z</time></trkpt><trkpt lat="44.48795107409229" lon="10.823552759069099"><ele>397.0</ele><time>2026-03-25T14:34:07Z</time></trkpt><trkpt lat="44.48788603322261" lon="10.823542156734549"><ele>397.0</ele><time>2026-03-25T14:34:12Z</time></trkpt><trkpt lat="44.48781897471957" lon="10.823504738694528"><ele>399.7142857142857</ele><time>2026-03-25T14:34:17Z</time></trkpt><trkpt lat="44.48775546291619" lon="10.823459319911207"><ele>402.42857142857144</ele><time>2026-03-25T14:34:21.001Z</time></trkpt><trkpt lat="44.48770936495214" lon="10.823395326843023"><ele>405.1428571428571</ele><time>2026-03-25T14:34:25.001Z</time></trkpt><trkpt lat="44.4876755924815" lon="10.82331155607437"><ele>407.8571428571429</ele><time>2026-03-25T14:34:28.001Z</time></trkpt><trkpt lat="44.48765459799967" lon="10.823218566962215"><ele>410.5714285714286</ele><time>2026-03-25T14:34:31.001Z</time></trkpt><trkpt lat="44.48761892341016" lon="10.823102530859408"><ele>413.2857142857143</ele><time>2026-03-25T14:34:35.001Z</time></trkpt><trkpt lat="44.487587894540525" lon="10.823008707264064"><ele>416.0</ele><time>2026-03-25T14:34:38.001Z</time></trkpt><trkpt lat="44.48755821378027" lon="10.822915729278884"><ele>415.99999999999994</ele><time>2026-03-25T14:34:41.001Z</time></trkpt><trkpt lat="44.48751209740287" lon="10.822837800500874"><ele>416.0</ele><time>2026-03-25T14:34:44.001Z</time></trkpt><trkpt lat="44.48745506852955" lon="10.822765677320945"><ele>416.0</ele><time>2026-03-25T14:34:47.001Z</time></trkpt><trkpt lat="44.48739718466572" lon="10.82269886420351"><ele>416.0</ele><time>2026-03-25T14:34:50.001Z</time></trkpt><trkpt lat="44.487331029076636" lon="10.822643494950006"><ele>415.99999999999994</ele><time>2026-03-25T14:34:53.001Z</time></trkpt><trkpt lat="44.487259501785665" lon="10.822593453801343"><ele>416.0</ele><time>2026-03-25T14:34:56.001Z</time></trkpt><trkpt lat="44.48718827753973" lon="10.822549187297842"><ele>416.8333333333333</ele><time>2026-03-25T14:34:59.001Z</time></trkpt><trkpt lat="44.487117654613364" lon="10.822501024286355"><ele>417.66666666666663</ele><time>2026-03-25T14:35:02.001Z</time></trkpt><trkpt lat="44.48704987557894" lon="10.822447037931372"><ele>418.5</ele><time>2026-03-25T14:35:05.001Z</time></trkpt><trkpt lat="44.48698240550886" lon="10.822387005868217"><ele>419.33333333333337</ele><time>2026-03-25T14:35:08.001Z</time></trkpt><trkpt lat="44.486922417372696" lon="10.822324730816902"><ele>420.1666666666667</ele><time>2026-03-25T14:35:11.001Z</time></trkpt><trkpt lat="44.48685601404171" lon="10.822263082932684"><ele>421.0</ele><time>2026-03-25T14:35:14.001Z</time></trkpt><trkpt lat="44.48679537923311" lon="10.822213166788906"><ele>421.00000000000006</ele><time>2026-03-25T14:35:17.001Z</time></trkpt><trkpt lat="44.486733361027014" lon="10.822159447629947"><ele>421.0</ele><time>2026-03-25T14:35:20.001Z</time></trkpt><trkpt lat="44.48667371186598" lon="10.822108113392813"><ele>421.0</ele><time>2026-03-25T14:35:23.001Z</time></trkpt><trkpt lat="44.48660931348434" lon="10.822065332844463"><ele>421.0</ele><time>2026-03-25T14:35:26.001Z</time></trkpt><trkpt lat="44.48652024654387" lon="10.822009929542231"><ele>421.00000000000006</ele><time>2026-03-25T14:35:29.001Z</time></trkpt><trkpt lat="44.48645515045645" lon="10.821970515095828"><ele>421.0</ele><time>2026-03-25T14:35:31.001Z</time></trkpt><trkpt lat="44.48639295483523" lon="10.82192325224419"><ele>421.00000000000006</ele><time>2026-03-25T14:35:33.001Z</time></trkpt><trkpt lat="44.48633256498453" lon="10.821868811436923"><ele>421.0</ele><time>2026-03-25T14:35:35.001Z</time></trkpt><trkpt lat="44.486268202968745" lon="10.821817829418698"><ele>421.0</ele><time>2026-03-25T14:35:37.001Z</time></trkpt><trkpt lat="44.486203440838835" lon="10.821765890142812"><ele>421.0</ele><time>2026-03-25T14:35:39.001Z</time></trkpt><trkpt lat="44.48614660187136" lon="10.821695790893877"><ele>421.00000000000006</ele><time>2026-03-25T14:35:41.001Z</time></trkpt><trkpt lat="44.4860985886897" lon="10.821586016104156"><ele>421.0</ele><time>2026-03-25T14:35:44.001Z</time></trkpt><trkpt lat="44.486074710115176" lon="10.821491490348157"><ele>420.7142857142857</ele><time>2026-03-25T14:35:47.001Z</time></trkpt><trkpt lat="44.486074537414545" lon="10.821374849437719"><ele>420.42857142857144</ele><time>2026-03-25T14:35:51.001Z</time></trkpt><trkpt lat="44.48609065804645" lon="10.821285652998784"><ele>420.1428571428571</ele><time>2026-03-25T14:35:54.001Z</time></trkpt><trkpt lat="44.4861150547707" lon="10.821197285970078"><ele>419.8571428571429</ele><time>2026-03-25T14:35:56.001Z</time></trkpt><trkpt lat="44.48613035745635" lon="10.821107758873627"><ele>419.57142857142856</ele><time>2026-03-25T14:35:58.001Z</time></trkpt><trkpt lat="44.486128794487634" lon="10.820981018854857"><ele>419.2857142857143</ele><time>2026-03-25T14:36:01.001Z</time></trkpt><trkpt lat="44.48610889336932" lon="10.820886067674092"><ele>419.0</ele><time>2026-03-25T14:36:04.001Z</time></trkpt><trkpt lat="44.48607501151804" lon="10.820802225100362"><ele>419.57142857142856</ele><time>2026-03-25T14:36:07.001Z</time></trkpt><trkpt lat="44.48600868833053" lon="10.820716544929423"><ele>420.1428571428571</ele><time>2026-03-25T14:36:10.001Z</time></trkpt><trkpt lat="44.48594009756304" lon="10.820684476159503"><ele>420.71428571428567</ele><time>2026-03-25T14:36:13.001Z</time></trkpt><trkpt lat="44.48588367521278" lon="10.820637929251168"><ele>421.2857142857143</ele><time>2026-03-25T14:36:19.001Z</time></trkpt><trkpt lat="44.48581684618053" lon="10.820612443550278"><ele>421.8571428571429</ele><time>2026-03-25T14:37:05.001Z</time></trkpt><trkpt lat="44.48575515550134" lon="10.820548477519612"><ele>422.4285714285714</ele><time>2026-03-25T14:37:08.001Z</time></trkpt><trkpt lat="44.48569890662504" lon="10.820489900883082"><ele>423.0</ele><time>2026-03-25T14:37:11.001Z</time></trkpt><trkpt lat="44.485640954333824" lon="10.820418910300013"><ele>423.0</ele><time>2026-03-25T14:37:14.001Z</time></trkpt><trkpt lat="44.4855869317617" lon="10.820357237011224"><ele>423.0</ele><time>2026-03-25T14:37:17.001Z</time></trkpt><trkpt lat="44.485532828603006" lon="10.820282076858952"><ele>423.0</ele><time>2026-03-25T14:37:21.001Z</time></trkpt><trkpt lat="44.48546472361342" lon="10.820226632582319"><ele>423.0</ele><time>2026-03-25T14:37:25.001Z</time></trkpt><trkpt lat="44.48540402056093" lon="10.820177538003673"><ele>423.0</ele><time>2026-03-25T14:37:29.001Z</time></trkpt><trkpt lat="44.485341947416664" lon="10.820123501830356"><ele>423.0</ele><time>2026-03-25T14:37:33.001Z</time></trkpt><trkpt lat="44.48526798519713" lon="10.820085323031105"><ele>423.0</ele><time>2026-03-25T14:37:37Z</time></trkpt><trkpt lat="44.485191296359545" lon="10.82003982040046"><ele>425.7142857142857</ele><time>2026-03-25T14:37:41Z</time></trkpt><trkpt lat="44.48512761632761" lon="10.82000229106019"><ele>428.42857142857144</ele><time>2026-03-25T14:37:44Z</time></trkpt><trkpt lat="44.48507059854415" lon="10.819958402512915"><ele>431.14285714285717</ele><time>2026-03-25T14:37:47Z</time></trkpt><trkpt lat="44.48501934200373" lon="10.819897939639196"><ele>433.8571428571429</ele><time>2026-03-25T14:37:50Z</time></trkpt><trkpt lat="44.4849509629967" lon="10.819810462995889"><ele>436.57142857142856</ele><time>2026-03-25T14:37:53Z</time></trkpt><trkpt lat="44.48489990716519" lon="10.819756344663139"><ele>439.28571428571433</ele><time>2026-03-25T14:37:55Z</time></trkpt><trkpt lat="44.484833152702315" lon="10.819707589724805"><ele>442.0</ele><time>2026-03-25T14:37:58Z</time></trkpt><trkpt lat="44.484771315126665" lon="10.81965122774628"><ele>442.00000000000006</ele><time>2026-03-25T14:38:01Z</time></trkpt><trkpt lat="44.48470086288414" lon="10.819604819754577"><ele>442.0</ele><time>2026-03-25T14:38:04.001Z</time></trkpt><trkpt lat="44.48462875303583" lon="10.819549156136294"><ele>442.0</ele><time>2026-03-25T14:38:07.001Z</time></trkpt><trkpt lat="44.484560272178996" lon="10.819495385808022"><ele>442.0</ele><time>2026-03-25T14:38:10.001Z</time></trkpt><trkpt lat="44.48449074386901" lon="10.819446718101196"><ele>442.00000000000006</ele><time>2026-03-25T14:38:13.001Z</time></trkpt><trkpt lat="44.484432373768676" lon="10.819394756208412"><ele>442.0</ele><time>2026-03-25T14:38:16.001Z</time></trkpt><trkpt lat="44.48438521682267" lon="10.819316012664094"><ele>443.14285714285717</ele><time>2026-03-25T14:38:19.001Z</time></trkpt><trkpt lat="44.484345015965204" lon="10.819237350086759"><ele>444.28571428571433</ele><time>2026-03-25T14:38:22.001Z</time></trkpt><trkpt lat="44.48430629925458" lon="10.81915152555238"><ele>445.42857142857144</ele><time>2026-03-25T14:38:25.001Z</time></trkpt><trkpt lat="44.48426781972718" lon="10.81905088050744"><ele>446.5714285714286</ele><time>2026-03-25T14:38:28.001Z</time></trkpt><trkpt lat="44.48423662436961" lon="10.818948123555813"><ele>447.7142857142857</ele><time>2026-03-25T14:38:31.001Z</time></trkpt><trkpt lat="44.484208105594895" lon="10.818862463073984"><ele>448.85714285714295</ele><time>2026-03-25T14:38:33.001Z</time></trkpt><trkpt lat="44.48418130124932" lon="10.818773558324818"><ele>450.00000000000006</ele><time>2026-03-25T14:38:35.001Z</time></trkpt><trkpt lat="44.48415622986851" lon="10.818685063243535"><ele>450.00000000000006</ele><time>2026-03-25T14:38:37.001Z</time></trkpt><trkpt lat="44.484128246845984" lon="10.818600163427153"><ele>450.0</ele><time>2026-03-25T14:38:39.001Z</time></trkpt><trkpt lat="44.48409203063746" lon="10.818522532632644"><ele>450.00000000000006</ele><time>2026-03-25T14:38:41.001Z</time></trkpt><trkpt lat="44.48405340755333" lon="10.818421194385056"><ele>450.00000000000006</ele><time>2026-03-25T14:38:44.001Z</time></trkpt><trkpt lat="44.484020667758095" lon="10.818337633066344"><ele>450.0</ele><time>2026-03-25T14:38:46.001Z</time></trkpt><trkpt lat="44.4839852186383" lon="10.818258291857333"><ele>450.00000000000006</ele><time>2026-03-25T14:38:48.001Z</time></trkpt><trkpt lat="44.48394905558911" lon="10.818183220861368"><ele>450.00000000000006</ele><time>2026-03-25T14:38:50.001Z</time></trkpt><trkpt lat="44.483894070749436" lon="10.81807502543924"><ele>449.5</ele><time>2026-03-25T14:38:53.001Z</time></trkpt><trkpt lat="44.483844944658486" lon="10.817971157028008"><ele>449.0</ele><time>2026-03-25T14:38:56.001Z</time></trkpt><trkpt lat="44.483784442577424" lon="10.817880360358842"><ele>448.5</ele><time>2026-03-25T14:38:59.001Z</time></trkpt><trkpt lat="44.48373413449949" lon="10.817788335943611"><ele>448.0</ele><time>2026-03-25T14:39:02.001Z</time></trkpt><trkpt lat="44.48367868867172" lon="10.817718738547354"><ele>447.5</ele><time>2026-03-25T14:39:05.001Z</time></trkpt><trkpt lat="44.483591864079905" lon="10.817690115085059"><ele>447.0</ele><time>2026-03-25T14:39:08.001Z</time></trkpt><trkpt lat="44.48351525249961" lon="10.81765888460706"><ele>449.0</ele><time>2026-03-25T14:39:10.001Z</time></trkpt><trkpt lat="44.48343596153071" lon="10.817632298644593"><ele>451.0</ele><time>2026-03-25T14:39:12.001Z</time></trkpt><trkpt lat="44.483353633537384" lon="10.817611506236782"><ele>453.0</ele><time>2026-03-25T14:39:14.001Z</time></trkpt><trkpt lat="44.48327537474028" lon="10.817592220189644"><ele>455.0</ele><time>2026-03-25T14:39:16.001Z</time></trkpt><trkpt lat="44.48319110232864" lon="10.8175810733648"><ele>457.0</ele><time>2026-03-25T14:39:18.001Z</time></trkpt><trkpt lat="44.48309018512228" lon="10.817557786142359"><ele>459.0</ele><time>2026-03-25T14:39:20.001Z</time></trkpt><trkpt lat="44.48297190107842" lon="10.81753089310374"><ele>458.57142857142856</ele><time>2026-03-25T14:39:22.001Z</time></trkpt><trkpt lat="44.48290848759949" lon="10.817507351989782"><ele>458.1428571428571</ele><time>2026-03-25T14:39:23.001Z</time></trkpt><trkpt lat="44.48284094201775" lon="10.817472210446278"><ele>457.71428571428567</ele><time>2026-03-25T14:39:24.001Z</time></trkpt><trkpt lat="44.48277763946777" lon="10.817435075364438"><ele>457.2857142857143</ele><time>2026-03-25T14:39:25.001Z</time></trkpt><trkpt lat="44.48270838908745" lon="10.817399877596454"><ele>456.8571428571428</ele><time>2026-03-25T14:39:26.001Z</time></trkpt><trkpt lat="44.48263474652657" lon="10.817383397494423"><ele>456.4285714285714</ele><time>2026-03-25T14:39:27.001Z</time></trkpt><trkpt lat="44.4825625151057" lon="10.817391641550016"><ele>456.0</ele><time>2026-03-25T14:39:28.001Z</time></trkpt><trkpt lat="44.48249090731368" lon="10.817411207496361"><ele>456.0</ele><time>2026-03-25T14:39:29.001Z</time></trkpt><trkpt lat="44.48242517443516" lon="10.81742136841402"><ele>456.0</ele><time>2026-03-25T14:39:30.001Z</time></trkpt><trkpt lat="44.48231295333883" lon="10.817440961553485"><ele>456.0</ele><time>2026-03-25T14:39:32.001Z</time></trkpt><trkpt lat="44.48222085760599" lon="10.81745047706284"><ele>456.0</ele><time>2026-03-25T14:39:34.001Z</time></trkpt><trkpt lat="44.48215300161893" lon="10.817469597765747"><ele>456.0</ele><time>2026-03-25T14:39:36.001Z</time></trkpt><trkpt lat="44.48208449051587" lon="10.817472953475283"><ele>456.0</ele><time>2026-03-25T14:39:38.001Z</time></trkpt><trkpt lat="44.48201573448603" lon="10.817473522899597"><ele>456.5</ele><time>2026-03-25T14:39:40.001Z</time></trkpt><trkpt lat="44.481946677074056" lon="10.817476326677589"><ele>457.0</ele><time>2026-03-25T14:39:42Z</time></trkpt><trkpt lat="44.48185680961028" lon="10.817456208269206"><ele>457.5</ele><time>2026-03-25T14:39:45Z</time></trkpt><trkpt lat="44.48177135271572" lon="10.817424024404483"><ele>458.0</ele><time>2026-03-25T14:39:48Z</time></trkpt><trkpt lat="44.48168937237645" lon="10.817360024754207"><ele>458.5</ele><time>2026-03-25T14:39:51Z</time></trkpt><trkpt lat="44.48162692346217" lon="10.817333870467506"><ele>459.0</ele><time>2026-03-25T14:39:53Z</time></trkpt><trkpt lat="44.481559981789005" lon="10.817321706136259"><ele>459.0</ele><time>2026-03-25T14:39:55Z</time></trkpt><trkpt lat="44.48149754507563" lon="10.817306481640612"><ele>459.0</ele><time>2026-03-25T14:39:57Z</time></trkpt><trkpt lat="44.48143702093242" lon="10.817274630600062"><ele>459.0</ele><time>2026-03-25T14:39:59Z</time></trkpt><trkpt lat="44.4813524979236" lon="10.817221100097546"><ele>459.0</ele><time>2026-03-25T14:40:02Z</time></trkpt><trkpt lat="44.48128021911627" lon="10.817147458300349"><ele>459.0</ele><time>2026-03-25T14:40:05Z</time></trkpt><trkpt lat="44.48120648416409" lon="10.817082114941494"><ele>459.0</ele><time>2026-03-25T14:40:08Z</time></trkpt><trkpt lat="44.48113444866146" lon="10.817017058384216"><ele>457.5</ele><time>2026-03-25T14:40:11Z</time></trkpt><trkpt lat="44.481059991218" lon="10.816953703094338"><ele>456.0</ele><time>2026-03-25T14:40:14Z</time></trkpt><trkpt lat="44.481001257161196" lon="10.816914329662348"><ele>454.5</ele><time>2026-03-25T14:40:16Z</time></trkpt><trkpt lat="44.48091276081003" lon="10.81689203418026"><ele>453.0</ele><time>2026-03-25T14:40:19Z</time></trkpt><trkpt lat="44.48083124133679" lon="10.816896866013021"><ele>451.5</ele><time>2026-03-25T14:40:22Z</time></trkpt><trkpt lat="44.480747909877564" lon="10.816914579755915"><ele>450.0</ele><time>2026-03-25T14:40:25Z</time></trkpt><trkpt lat="44.48067818494936" lon="10.816910574619284"><ele>450.0</ele><time>2026-03-25T14:40:28Z</time></trkpt><trkpt lat="44.480596615368476" lon="10.81688471419601"><ele>450.0</ele><time>2026-03-25T14:40:32Z</time></trkpt><trkpt lat="44.480519112893404" lon="10.816870600661714"><ele>450.0</ele><time>2026-03-25T14:40:36.001Z</time></trkpt><trkpt lat="44.48044877684735" lon="10.816855804095743"><ele>450.0</ele><time>2026-03-25T14:40:40.001Z</time></trkpt><trkpt lat="44.48038035957201" lon="10.81684332225515"><ele>450.0</ele><time>2026-03-25T14:40:43.001Z</time></trkpt><trkpt lat="44.48030715221533" lon="10.816833864827972"><ele>450.0</ele><time>2026-03-25T14:40:45.001Z</time></trkpt><trkpt lat="44.480202670852506" lon="10.816819123461245"><ele>451.3333333333333</ele><time>2026-03-25T14:40:47.001Z</time></trkpt><trkpt lat="44.48009305655269" lon="10.816795454090528"><ele>452.66666666666663</ele><time>2026-03-25T14:40:49.001Z</time></trkpt><trkpt lat="44.48002774314189" lon="10.816778759372344"><ele>454.0</ele><time>2026-03-25T14:40:50.001Z</time></trkpt><trkpt lat="44.47996010344044" lon="10.816751206036935"><ele>455.3333333333333</ele><time>2026-03-25T14:40:51.001Z</time></trkpt><trkpt lat="44.479885702209025" lon="10.816717055001165"><ele>456.66666666666663</ele><time>2026-03-25T14:40:52.001Z</time></trkpt><trkpt lat="44.47981098944153" lon="10.816668656444268"><ele>458.0</ele><time>2026-03-25T14:40:53.001Z</time></trkpt><trkpt lat="44.479739266355324" lon="10.816617544105123"><ele>457.99999999999994</ele><time>2026-03-25T14:40:54.001Z</time></trkpt><trkpt lat="44.47967052968791" lon="10.816574756639382"><ele>458.0</ele><time>2026-03-25T14:40:55.001Z</time></trkpt><trkpt lat="44.47960591812781" lon="10.816538442734265"><ele>458.0</ele><time>2026-03-25T14:40:56.001Z</time></trkpt><trkpt lat="44.47954531718473" lon="10.81650441157417"><ele>458.0</ele><time>2026-03-25T14:40:57.001Z</time></trkpt><trkpt lat="44.479438391135375" lon="10.81643132529197"><ele>457.99999999999994</ele><time>2026-03-25T14:40:59.001Z</time></trkpt><trkpt lat="44.47935684218651" lon="10.816346224105384"><ele>458.0</ele><time>2026-03-25T14:41:01.001Z</time></trkpt><trkpt lat="44.47929367194789" lon="10.816268729740347"><ele>457.16666666666663</ele><time>2026-03-25T14:41:03.001Z</time></trkpt><trkpt lat="44.47922653919236" lon="10.816188644724864"><ele>456.3333333333333</ele><time>2026-03-25T14:41:05.001Z</time></trkpt><trkpt lat="44.479163906743885" lon="10.816118480045873"><ele>455.5</ele><time>2026-03-25T14:41:07.001Z</time></trkpt><trkpt lat="44.479110862608074" lon="10.816044965034774"><ele>454.66666666666663</ele><time>2026-03-25T14:41:09.001Z</time></trkpt><trkpt lat="44.479055620085376" lon="10.815975617074216"><ele>453.8333333333333</ele><time>2026-03-25T14:41:11.001Z</time></trkpt><trkpt lat="44.47900010455234" lon="10.815903460295209"><ele>453.0</ele><time>2026-03-25T14:41:13.001Z</time></trkpt><trkpt lat="44.47892891451458" lon="10.815837928563106"><ele>453.0</ele><time>2026-03-25T14:41:15.001Z</time></trkpt><trkpt lat="44.478852145729256" lon="10.81577573715984"><ele>453.0</ele><time>2026-03-25T14:41:17.001Z</time></trkpt><trkpt lat="44.47877679024911" lon="10.815732114224613"><ele>453.0</ele><time>2026-03-25T14:41:19.001Z</time></trkpt><trkpt lat="44.4787006400351" lon="10.81569049629857"><ele>453.0</ele><time>2026-03-25T14:41:21.001Z</time></trkpt><trkpt lat="44.47862789437455" lon="10.815660896718688"><ele>453.0</ele><time>2026-03-25T14:41:23.001Z</time></trkpt><trkpt lat="44.47855024975591" lon="10.815635172771897"><ele>453.0</ele><time>2026-03-25T14:41:25.001Z</time></trkpt><trkpt lat="44.4784496541913" lon="10.815603129742081"><ele>453.4</ele><time>2026-03-25T14:41:27.001Z</time></trkpt><trkpt lat="44.47833583859956" lon="10.815559450084429"><ele>453.79999999999995</ele><time>2026-03-25T14:41:29.001Z</time></trkpt><trkpt lat="44.478277771127516" lon="10.815524196812921"><ele>454.2</ele><time>2026-03-25T14:41:30.001Z</time></trkpt><trkpt lat="44.478171751953084" lon="10.81543765152111"><ele>454.6</ele><time>2026-03-25T14:41:32.001Z</time></trkpt><trkpt lat="44.47807765377466" lon="10.815336941307299"><ele>455.0</ele><time>2026-03-25T14:41:34.001Z</time></trkpt><trkpt lat="44.47797761745263" lon="10.8152551626914"><ele>454.6</ele><time>2026-03-25T14:41:36.001Z</time></trkpt><trkpt lat="44.47786474726898" lon="10.815191753542317"><ele>454.2</ele><time>2026-03-25T14:41:38.001Z</time></trkpt><trkpt lat="44.47775582678207" lon="10.81515378172752"><ele>453.79999999999995</ele><time>2026-03-25T14:41:40.001Z</time></trkpt><trkpt lat="44.47766165154987" lon="10.815102924151802"><ele>453.4</ele><time>2026-03-25T14:41:42.001Z</time></trkpt><trkpt lat="44.47756748353641" lon="10.815083051925471"><ele>453.0</ele><time>2026-03-25T14:41:44.001Z</time></trkpt><trkpt lat="44.477468361768786" lon="10.815070345200672"><ele>453.0</ele><time>2026-03-25T14:41:46.001Z</time></trkpt><trkpt lat="44.47737030425845" lon="10.815069538718545"><ele>452.99999999999994</ele><time>2026-03-25T14:41:48Z</time></trkpt><trkpt lat="44.477269959574016" lon="10.815065752525774"><ele>452.99999999999994</ele><time>2026-03-25T14:41:50Z</time></trkpt><trkpt lat="44.4771684525821" lon="10.815070516546008"><ele>453.0</ele><time>2026-03-25T14:41:52Z</time></trkpt><trkpt lat="44.4770619253003" lon="10.815079213450218"><ele>453.0</ele><time>2026-03-25T14:41:54Z</time></trkpt><trkpt lat="44.47695350571313" lon="10.81510880547841"><ele>452.4</ele><time>2026-03-25T14:41:56Z</time></trkpt><trkpt lat="44.4768474551267" lon="10.81516949564874"><ele>451.79999999999995</ele><time>2026-03-25T14:41:58Z</time></trkpt><trkpt lat="44.47675012153968" lon="10.815226406739447"><ele>451.2</ele><time>2026-03-25T14:42:00Z</time></trkpt><trkpt lat="44.47665176639541" lon="10.815259712530883"><ele>450.6</ele><time>2026-03-25T14:42:02Z</time></trkpt><trkpt lat="44.47656109953381" lon="10.815248845775246"><ele>450.0</ele><time>2026-03-25T14:42:04Z</time></trkpt><trkpt lat="44.4764930822004" lon="10.81522743328612"><ele>450.0</ele><time>2026-03-25T14:42:06Z</time></trkpt><trkpt lat="44.476405293957384" lon="10.81519560605782"><ele>450.0</ele><time>2026-03-25T14:42:09Z</time></trkpt><trkpt lat="44.47634155215982" lon="10.815190647941971"><ele>450.0</ele><time>2026-03-25T14:42:11Z</time></trkpt><trkpt lat="44.47627978720769" lon="10.81516044551703"><ele>450.0</ele><time>2026-03-25T14:42:13Z</time></trkpt><trkpt lat="44.476213024188176" lon="10.815124141146727"><ele>450.0</ele><time>2026-03-25T14:42:15Z</time></trkpt><trkpt lat="44.476133815653384" lon="10.815084416942103"><ele>450.0</ele><time>2026-03-25T14:42:17Z</time></trkpt><trkpt lat="44.47605017730206" lon="10.81503347777671"><ele>452.3333333333333</ele><time>2026-03-25T14:42:19Z</time></trkpt><trkpt lat="44.47596059423054" lon="10.814998755497353"><ele>454.66666666666663</ele><time>2026-03-25T14:42:21Z</time></trkpt><trkpt lat="44.4758764694592" lon="10.814965031360034"><ele>457.0</ele><time>2026-03-25T14:42:23Z</time></trkpt><trkpt lat="44.475796912397115" lon="10.814929196575537"><ele>459.3333333333333</ele><time>2026-03-25T14:42:25Z</time></trkpt><trkpt lat="44.47572393043408" lon="10.814892933745197"><ele>461.66666666666663</ele><time>2026-03-25T14:42:27Z</time></trkpt><trkpt lat="44.4756587426079" lon="10.814859235119924"><ele>464.0</ele><time>2026-03-25T14:42:29Z</time></trkpt><trkpt lat="44.47560401282922" lon="10.814804148129955"><ele>463.99999999999994</ele><time>2026-03-25T14:42:31Z</time></trkpt><trkpt lat="44.47553226910705" lon="10.814723526392367"><ele>464.0</ele><time>2026-03-25T14:42:34Z</time></trkpt><trkpt lat="44.47548641518934" lon="10.814659518815903"><ele>464.0</ele><time>2026-03-25T14:42:36Z</time></trkpt><trkpt lat="44.47543304384022" lon="10.81455875095047"><ele>464.0</ele><time>2026-03-25T14:42:39Z</time></trkpt><trkpt lat="44.47537972391653" lon="10.814438712097347"><ele>463.99999999999994</ele><time>2026-03-25T14:42:42Z</time></trkpt><trkpt lat="44.475331705808074" lon="10.814341866029785"><ele>464.0</ele><time>2026-03-25T14:42:44Z</time></trkpt><trkpt lat="44.47527715647348" lon="10.814236092466576"><ele>464.2</ele><time>2026-03-25T14:42:46Z</time></trkpt><trkpt lat="44.475215833130044" lon="10.814125030876237"><ele>464.4</ele><time>2026-03-25T14:42:48Z</time></trkpt><trkpt lat="44.4751492271551" lon="10.814023564462367"><ele>464.6</ele><time>2026-03-25T14:42:50Z</time></trkpt><trkpt lat="44.47509137012985" lon="10.81391641984414"><ele>464.8</ele><time>2026-03-25T14:42:52.001Z</time></trkpt><trkpt lat="44.47504212504579" lon="10.813801963603742"><ele>465.0</ele><time>2026-03-25T14:42:54.001Z</time></trkpt><trkpt lat="44.475003693870676" lon="10.813682130080863"><ele>465.0</ele><time>2026-03-25T14:42:56.001Z</time></trkpt><trkpt lat="44.47495578403435" lon="10.813571822331642"><ele>465.0</ele><time>2026-03-25T14:42:58.001Z</time></trkpt><trkpt lat="44.47489374838425" lon="10.813476856760772"><ele>465.0</ele><time>2026-03-25T14:43:00.001Z</time></trkpt><trkpt lat="44.47482105643191" lon="10.81341242287268"><ele>465.0</ele><time>2026-03-25T14:43:02.001Z</time></trkpt><trkpt lat="44.474737934604754" lon="10.813374453805963"><ele>465.0</ele><time>2026-03-25T14:43:04.001Z</time></trkpt><trkpt lat="44.474656492005394" lon="10.8133470432918"><ele>465.0</ele><time>2026-03-25T14:43:06.001Z</time></trkpt><trkpt lat="44.474573322458745" lon="10.81333598502439"><ele>465.8333333333333</ele><time>2026-03-25T14:43:08.001Z</time></trkpt><trkpt lat="44.474492175673554" lon="10.813318571714237"><ele>466.66666666666663</ele><time>2026-03-25T14:43:10.001Z</time></trkpt><trkpt lat="44.47441221630137" lon="10.813284384827103"><ele>467.5</ele><time>2026-03-25T14:43:12.001Z</time></trkpt><trkpt lat="44.474332020149376" lon="10.813247163887565"><ele>468.3333333333333</ele><time>2026-03-25T14:43:14.001Z</time></trkpt><trkpt lat="44.47425858326206" lon="10.813193483569314"><ele>469.16666666666663</ele><time>2026-03-25T14:43:16.001Z</time></trkpt><trkpt lat="44.47419955831793" lon="10.813113245597297"><ele>470.0</ele><time>2026-03-25T14:43:18.001Z</time></trkpt><trkpt lat="44.474139351839874" lon="10.813037245339874"><ele>470.0</ele><time>2026-03-25T14:43:20.001Z</time></trkpt><trkpt lat="44.474096832159184" lon="10.812947957754938"><ele>469.99999999999994</ele><time>2026-03-25T14:43:22.001Z</time></trkpt><trkpt lat="44.4740468913724" lon="10.812873908649378"><ele>470.0</ele><time>2026-03-25T14:43:24.001Z</time></trkpt><trkpt lat="44.47398773315786" lon="10.812818376621603"><ele>470.0</ele><time>2026-03-25T14:43:26.001Z</time></trkpt><trkpt lat="44.473925824044734" lon="10.812770322041898"><ele>469.99999999999994</ele><time>2026-03-25T14:43:28.001Z</time></trkpt><trkpt lat="44.47386486209851" lon="10.81271750097525"><ele>470.0</ele><time>2026-03-25T14:43:30.001Z</time></trkpt><trkpt lat="44.47379486611182" lon="10.812691006195147"><ele>470.0</ele><time>2026-03-25T14:43:32.001Z</time></trkpt><trkpt lat="44.47371971001126" lon="10.812685342046423"><ele>469.57142857142856</ele><time>2026-03-25T14:43:34.001Z</time></trkpt><trkpt lat="44.47364184580593" lon="10.812683300406693"><ele>469.1428571428571</ele><time>2026-03-25T14:43:36.001Z</time></trkpt><trkpt lat="44.47356639708717" lon="10.812673821801997"><ele>468.71428571428567</ele><time>2026-03-25T14:43:38.001Z</time></trkpt><trkpt lat="44.473494053876465" lon="10.81266999409063"><ele>468.2857142857142</ele><time>2026-03-25T14:43:40.001Z</time></trkpt><trkpt lat="44.47342395119464" lon="10.812640630583115"><ele>467.85714285714283</ele><time>2026-03-25T14:43:42.001Z</time></trkpt><trkpt lat="44.473356616568616" lon="10.812600991601666"><ele>467.42857142857133</ele><time>2026-03-25T14:43:44.001Z</time></trkpt><trkpt lat="44.4732858311434" lon="10.812559186294608"><ele>466.99999999999994</ele><time>2026-03-25T14:43:46.001Z</time></trkpt><trkpt lat="44.47321220229853" lon="10.812515759873028"><ele>468.71428571428567</ele><time>2026-03-25T14:43:48.001Z</time></trkpt><trkpt lat="44.47313876121744" lon="10.81247096253218"><ele>470.42857142857144</ele><time>2026-03-25T14:43:50.001Z</time></trkpt><trkpt lat="44.473079430899006" lon="10.812410694619391"><ele>472.1428571428571</ele><time>2026-03-25T14:43:52.001Z</time></trkpt><trkpt lat="44.47301984317303" lon="10.812342997191804"><ele>473.85714285714283</ele><time>2026-03-25T14:43:54Z</time></trkpt><trkpt lat="44.47297162258528" lon="10.812270328437055"><ele>475.57142857142856</ele><time>2026-03-25T14:43:56Z</time></trkpt><trkpt lat="44.47293536827962" lon="10.812182969340052"><ele>477.2857142857143</ele><time>2026-03-25T14:43:58Z</time></trkpt><trkpt lat="44.472908535610124" lon="10.812089749008246"><ele>479.0</ele><time>2026-03-25T14:44:00Z</time></trkpt><trkpt lat="44.47288300450364" lon="10.812000862226945"><ele>479.85714285714283</ele><time>2026-03-25T14:44:02Z</time></trkpt><trkpt lat="44.472847350055105" lon="10.811919988630294"><ele>480.7142857142858</ele><time>2026-03-25T14:44:04Z</time></trkpt><trkpt lat="44.47280850249241" lon="10.811841620264728"><ele>481.5714285714286</ele><time>2026-03-25T14:44:06Z</time></trkpt><trkpt lat="44.47275414686978" lon="10.811773137782023"><ele>482.42857142857144</ele><time>2026-03-25T14:44:08Z</time></trkpt><trkpt lat="44.47269791857111" lon="10.811718795261935"><ele>483.28571428571433</ele><time>2026-03-25T14:44:10Z</time></trkpt><trkpt lat="44.4726427266473" lon="10.811664321881572"><ele>484.1428571428572</ele><time>2026-03-25T14:44:12Z</time></trkpt><trkpt lat="44.4725858546786" lon="10.811602102755835"><ele>485.00000000000006</ele><time>2026-03-25T14:44:14Z</time></trkpt><trkpt lat="44.47253000829085" lon="10.811547932360506"><ele>485.28571428571433</ele><time>2026-03-25T14:44:16Z</time></trkpt><trkpt lat="44.47247313082222" lon="10.811493421861675"><ele>485.57142857142856</ele><time>2026-03-25T14:44:18Z</time></trkpt><trkpt lat="44.47241785847722" lon="10.811446168243128"><ele>485.8571428571429</ele><time>2026-03-25T14:44:20Z</time></trkpt><trkpt lat="44.47236186445517" lon="10.811392392835238"><ele>486.14285714285717</ele><time>2026-03-25T14:44:22Z</time></trkpt><trkpt lat="44.47230282905591" lon="10.811341637658465"><ele>486.42857142857144</ele><time>2026-03-25T14:44:24Z</time></trkpt><trkpt lat="44.47224475791515" lon="10.811285781541148"><ele>486.7142857142857</ele><time>2026-03-25T14:44:26Z</time></trkpt><trkpt lat="44.472188855476965" lon="10.811233519958044"><ele>487.0</ele><time>2026-03-25T14:44:28Z</time></trkpt><trkpt lat="44.47211981905039" lon="10.811151826483753"><ele>489.33333333333337</ele><time>2026-03-25T14:44:31Z</time></trkpt><trkpt lat="44.472052517232626" lon="10.811070328838108"><ele>491.6666666666667</ele><time>2026-03-25T14:44:34Z</time></trkpt><trkpt lat="44.47200138128479" lon="10.810972043689313"><ele>494.0</ele><time>2026-03-25T14:44:37Z</time></trkpt><trkpt lat="44.47196764498407" lon="10.810877115097336"><ele>496.33333333333337</ele><time>2026-03-25T14:44:40Z</time></trkpt><trkpt lat="44.47192637683611" lon="10.810789492004194"><ele>498.6666666666667</ele><time>2026-03-25T14:44:43Z</time></trkpt><trkpt lat="44.47188736479044" lon="10.810694100587423"><ele>501.0</ele><time>2026-03-25T14:44:46Z</time></trkpt><trkpt lat="44.47184757446168" lon="10.810603242955095"><ele>501.0</ele><time>2026-03-25T14:44:49Z</time></trkpt><trkpt lat="44.47179206399889" lon="10.810515687861411"><ele>501.0</ele><time>2026-03-25T14:44:52Z</time></trkpt><trkpt lat="44.47172341922002" lon="10.810448115084876"><ele>501.0</ele><time>2026-03-25T14:44:55Z</time></trkpt><trkpt lat="44.47165398194018" lon="10.810412436765223"><ele>501.0</ele><time>2026-03-25T14:44:58Z</time></trkpt><trkpt lat="44.471583799044645" lon="10.810362537320087"><ele>501.0</ele><time>2026-03-25T14:45:01Z</time></trkpt><trkpt lat="44.47151455314085" lon="10.810308352497964"><ele>501.0</ele><time>2026-03-25T14:45:04Z</time></trkpt><trkpt lat="44.47144137852255" lon="10.810260236262096"><ele>501.0</ele><time>2026-03-25T14:45:07Z</time></trkpt><trkpt lat="44.47136778600682" lon="10.810207747914385"><ele>501.0</ele><time>2026-03-25T14:45:10Z</time></trkpt><trkpt lat="44.471297686560256" lon="10.810158400197096"><ele>501.0</ele><time>2026-03-25T14:45:13Z</time></trkpt><trkpt lat="44.47123337723553" lon="10.810114241033405"><ele>501.0</ele><time>2026-03-25T14:45:16Z</time></trkpt><trkpt lat="44.471164228054995" lon="10.810072016348009"><ele>501.0</ele><time>2026-03-25T14:45:19Z</time></trkpt><trkpt lat="44.471101371230475" lon="10.810020783973128"><ele>501.0</ele><time>2026-03-25T14:45:22Z</time></trkpt><trkpt lat="44.47104022564155" lon="10.809971986867444"><ele>502.3333333333333</ele><time>2026-03-25T14:45:25Z</time></trkpt><trkpt lat="44.470981032912334" lon="10.809928304745414"><ele>503.66666666666663</ele><time>2026-03-25T14:45:28.001Z</time></trkpt><trkpt lat="44.470913069121444" lon="10.8098694627768"><ele>505.0</ele><time>2026-03-25T14:45:32.001Z</time></trkpt><trkpt lat="44.47089043683505" lon="10.809775124289516"><ele>506.3333333333333</ele><time>2026-03-25T14:45:37.001Z</time></trkpt><trkpt lat="44.47092646192917" lon="10.809699932789593"><ele>507.66666666666663</ele><time>2026-03-25T14:45:59Z</time></trkpt><trkpt lat="44.47096765195618" lon="10.8096212018199"><ele>509.0</ele><time>2026-03-25T14:46:03Z</time></trkpt><trkpt lat="44.4710338928243" lon="10.809520815785282"><ele>509.0</ele><time>2026-03-25T14:46:06Z</time></trkpt><trkpt lat="44.47109406087408" lon="10.809417642876157"><ele>509.0</ele><time>2026-03-25T14:46:08Z</time></trkpt><trkpt lat="44.471180328963406" lon="10.8092914533361"><ele>509.0</ele><time>2026-03-25T14:46:10Z</time></trkpt><trkpt lat="44.47122918298549" lon="10.809221823838698"><ele>509.0</ele><time>2026-03-25T14:46:11Z</time></trkpt><trkpt lat="44.47128707134915" lon="10.80913049062971"><ele>509.0</ele><time>2026-03-25T14:46:12Z</time></trkpt><trkpt lat="44.471355336256465" lon="10.809038465304548"><ele>504.0</ele><time>2026-03-25T14:46:13Z</time></trkpt><trkpt lat="44.47142607300176" lon="10.808944315047784"><ele>499.0</ele><time>2026-03-25T14:46:14Z</time></trkpt><trkpt lat="44.47150155461873" lon="10.808833253482177"><ele>494.0</ele><time>2026-03-25T14:46:15Z</time></trkpt><trkpt lat="44.4715844365942" lon="10.80872706361907"><ele>489.0</ele><time>2026-03-25T14:46:16Z</time></trkpt><trkpt lat="44.47166186107143" lon="10.808622357200607"><ele>484.0</ele><time>2026-03-25T14:46:17Z</time></trkpt><trkpt lat="44.4717394793505" lon="10.808531930512375"><ele>484.2</ele><time>2026-03-25T14:46:18Z</time></trkpt><trkpt lat="44.4718124592201" lon="10.808446271912066"><ele>484.4</ele><time>2026-03-25T14:46:19Z</time></trkpt><trkpt lat="44.4718819707545" lon="10.808347038116644"><ele>484.6</ele><time>2026-03-25T14:46:20Z</time></trkpt><trkpt lat="44.4719401334574" lon="10.808240539840968"><ele>484.8</ele><time>2026-03-25T14:46:21Z</time></trkpt><trkpt lat="44.47199512837089" lon="10.80812364868802"><ele>485.0</ele><time>2026-03-25T14:46:22Z</time></trkpt><trkpt lat="44.47202793430341" lon="10.808005642108482"><ele>484.99999999999994</ele><time>2026-03-25T14:46:23Z</time></trkpt><trkpt lat="44.47201805329154" lon="10.807887860233693"><ele>485.0</ele><time>2026-03-25T14:46:24Z</time></trkpt><trkpt lat="44.471975119767826" lon="10.807798318777794"><ele>485.0</ele><time>2026-03-25T14:46:25Z</time></trkpt><trkpt lat="44.47190822079807" lon="10.807738893267494"><ele>485.0</ele><time>2026-03-25T14:46:26Z</time></trkpt><trkpt lat="44.471827187773734" lon="10.807721648944026"><ele>484.99999999999994</ele><time>2026-03-25T14:46:27Z</time></trkpt><trkpt lat="44.47175257405596" lon="10.80774408271799"><ele>485.0</ele><time>2026-03-25T14:46:28Z</time></trkpt><trkpt lat="44.47168142883073" lon="10.807772728173202"><ele>484.99999999999994</ele><time>2026-03-25T14:46:29Z</time></trkpt><trkpt lat="44.47161592464663" lon="10.807781199676446"><ele>485.0</ele><time>2026-03-25T14:46:30Z</time></trkpt><trkpt lat="44.47157237725144" lon="10.807643113717916"><ele>485.0</ele><time>2026-03-25T14:46:32Z</time></trkpt><trkpt lat="44.471628889908686" lon="10.807570335365847"><ele>485.0</ele><time>2026-03-25T14:46:33Z</time></trkpt><trkpt lat="44.471707484981366" lon="10.807551440765769"><ele>484.99999999999994</ele><time>2026-03-25T14:46:34Z</time></trkpt><trkpt lat="44.471780996609404" lon="10.80754859343579"><ele>485.0</ele><time>2026-03-25T14:46:35Z</time></trkpt><trkpt lat="44.471843728267814" lon="10.807537883045493"><ele>483.66666666666663</ele><time>2026-03-25T14:46:36Z</time></trkpt><trkpt lat="44.471907741039026" lon="10.807523443345968"><ele>482.3333333333333</ele><time>2026-03-25T14:46:37Z</time></trkpt><trkpt lat="44.47197619849468" lon="10.80751358567496"><ele>481.0</ele><time>2026-03-25T14:46:38Z</time></trkpt><trkpt lat="44.47204946152742" lon="10.807498322669783"><ele>479.66666666666663</ele><time>2026-03-25T14:46:39Z</time></trkpt><trkpt lat="44.472125718091476" lon="10.80748833777492"><ele>478.3333333333333</ele><time>2026-03-25T14:46:40Z</time></trkpt><trkpt lat="44.472209439026024" lon="10.807487966922444"><ele>477.0</ele><time>2026-03-25T14:46:41Z</time></trkpt><trkpt lat="44.47229526820511" lon="10.807477843356253"><ele>475.6</ele><time>2026-03-25T14:46:42Z</time></trkpt><trkpt lat="44.47238690220284" lon="10.807465084390738"><ele>474.20000000000005</ele><time>2026-03-25T14:46:43Z</time></trkpt><trkpt lat="44.47248197098778" lon="10.80746006605157"><ele>472.8</ele><time>2026-03-25T14:46:44Z</time></trkpt><trkpt lat="44.47257820980886" lon="10.807455234533787"><ele>471.4</ele><time>2026-03-25T14:46:45Z</time></trkpt><trkpt lat="44.47267840977077" lon="10.807429199226792"><ele>470.0</ele><time>2026-03-25T14:46:46Z</time></trkpt><trkpt lat="44.47278482223817" lon="10.807400329466434"><ele>470.0</ele><time>2026-03-25T14:46:47Z</time></trkpt><trkpt lat="44.47288504246561" lon="10.8073431615862"><ele>470.0</ele><time>2026-03-25T14:46:48Z</time></trkpt><trkpt lat="44.47298066363107" lon="10.807262822951754"><ele>470.0</ele><time>2026-03-25T14:46:49Z</time></trkpt><trkpt lat="44.47307903661996" lon="10.807196506938565"><ele>470.0</ele><time>2026-03-25T14:46:50Z</time></trkpt><trkpt lat="44.47318103632479" lon="10.807133817880013"><ele>470.0</ele><time>2026-03-25T14:46:51Z</time></trkpt><trkpt lat="44.47328289406151" lon="10.80706467937775"><ele>467.5</ele><time>2026-03-25T14:46:52Z</time></trkpt><trkpt lat="44.47338935146705" lon="10.80699410113338"><ele>465.0</ele><time>2026-03-25T14:46:53Z</time></trkpt><trkpt lat="44.47348913101861" lon="10.806908332863646"><ele>462.5</ele><time>2026-03-25T14:46:54Z</time></trkpt><trkpt lat="44.473577181964004" lon="10.80680705669268"><ele>460.0</ele><time>2026-03-25T14:46:55Z</time></trkpt><trkpt lat="44.473658996741534" lon="10.806702791948243"><ele>459.2</ele><time>2026-03-25T14:46:56Z</time></trkpt><trkpt lat="44.47372838392048" lon="10.806590303814861"><ele>458.4</ele><time>2026-03-25T14:46:57Z</time></trkpt><trkpt lat="44.47377740219032" lon="10.806463947766872"><ele>457.6</ele><time>2026-03-25T14:46:58Z</time></trkpt><trkpt lat="44.47383039929712" lon="10.806349626806986"><ele>456.8</ele><time>2026-03-25T14:46:59Z</time></trkpt><trkpt lat="44.47388568169021" lon="10.806251609378648"><ele>456.0</ele><time>2026-03-25T14:47:00Z</time></trkpt><trkpt lat="44.47394060493134" lon="10.806165733267717"><ele>456.0</ele><time>2026-03-25T14:47:01Z</time></trkpt><trkpt lat="44.474003927032776" lon="10.806087648915225"><ele>456.0</ele><time>2026-03-25T14:47:02Z</time></trkpt><trkpt lat="44.47406909641581" lon="10.80601644094018"><ele>456.0</ele><time>2026-03-25T14:47:03Z</time></trkpt><trkpt lat="44.47413811550997" lon="10.805945321584923"><ele>456.0</ele><time>2026-03-25T14:47:04Z</time></trkpt><trkpt lat="44.4742069080638" lon="10.805874641736112"><ele>456.0</ele><time>2026-03-25T14:47:05Z</time></trkpt><trkpt lat="44.474279172221735" lon="10.80580111943583"><ele>456.0</ele><time>2026-03-25T14:47:06Z</time></trkpt><trkpt lat="44.47435464233695" lon="10.805721093537118"><ele>456.0</ele><time>2026-03-25T14:47:07Z</time></trkpt><trkpt lat="44.47444120107158" lon="10.805639416006272"><ele>456.0</ele><time>2026-03-25T14:47:08Z</time></trkpt><trkpt lat="44.4745361777763" lon="10.805567687133745"><ele>456.0</ele><time>2026-03-25T14:47:09Z</time></trkpt><trkpt lat="44.47463395927201" lon="10.805485306621412"><ele>456.0</ele><time>2026-03-25T14:47:10Z</time></trkpt><trkpt lat="44.47473337729666" lon="10.80539757261208"><ele>456.0</ele><time>2026-03-25T14:47:11Z</time></trkpt><trkpt lat="44.474836623010276" lon="10.805314181232022"><ele>453.5</ele><time>2026-03-25T14:47:12Z</time></trkpt><trkpt lat="44.47494375762226" lon="10.805231847734733"><ele>451.0</ele><time>2026-03-25T14:47:13Z</time></trkpt><trkpt lat="44.47505383816689" lon="10.805153954662744"><ele>448.5</ele><time>2026-03-25T14:47:14Z</time></trkpt><trkpt lat="44.475163561153195" lon="10.80507815879106"><ele>446.0</ele><time>2026-03-25T14:47:15Z</time></trkpt><trkpt lat="44.4752691513314" lon="10.805001422957139"><ele>446.0</ele><time>2026-03-25T14:47:16Z</time></trkpt><trkpt lat="44.47537073146708" lon="10.804908516988748"><ele>446.0</ele><time>2026-03-25T14:47:17Z</time></trkpt><trkpt lat="44.47547675127102" lon="10.804816171362454"><ele>446.0</ele><time>2026-03-25T14:47:18Z</time></trkpt><trkpt lat="44.47558839217934" lon="10.804726633328817"><ele>446.0</ele><time>2026-03-25T14:47:19Z</time></trkpt><trkpt lat="44.47570343061564" lon="10.804633985663877"><ele>443.5</ele><time>2026-03-25T14:47:20Z</time></trkpt><trkpt lat="44.47581067732053" lon="10.804538210567193"><ele>441.0</ele><time>2026-03-25T14:47:21Z</time></trkpt><trkpt lat="44.47591370943096" lon="10.804441326383127"><ele>438.5</ele><time>2026-03-25T14:47:22Z</time></trkpt><trkpt lat="44.4760108889046" lon="10.804341958162095"><ele>436.0</ele><time>2026-03-25T14:47:23Z</time></trkpt><trkpt lat="44.47610361648962" lon="10.804245009777643"><ele>436.0</ele><time>2026-03-25T14:47:24Z</time></trkpt><trkpt lat="44.476192020651006" lon="10.804153832731501"><ele>436.0</ele><time>2026-03-25T14:47:25Z</time></trkpt><trkpt lat="44.476274909273464" lon="10.804069526426648"><ele>436.0</ele><time>2026-03-25T14:47:26Z</time></trkpt><trkpt lat="44.47635277672214" lon="10.803992306639904"><ele>436.0</ele><time>2026-03-25T14:47:27Z</time></trkpt><trkpt lat="44.476430828036875" lon="10.803921598463313"><ele>436.0</ele><time>2026-03-25T14:47:28Z</time></trkpt><trkpt lat="44.47650869944947" lon="10.803865511951228"><ele>435.8571428571429</ele><time>2026-03-25T14:47:29Z</time></trkpt><trkpt lat="44.476579722521365" lon="10.803824107187245"><ele>435.7142857142857</ele><time>2026-03-25T14:47:30Z</time></trkpt><trkpt lat="44.476650631032165" lon="10.803781287839126"><ele>435.57142857142856</ele><time>2026-03-25T14:47:31Z</time></trkpt><trkpt lat="44.47671999312028" lon="10.803740504275334"><ele>435.42857142857144</ele><time>2026-03-25T14:47:32Z</time></trkpt><trkpt lat="44.476790279722074" lon="10.803706405952477"><ele>435.2857142857143</ele><time>2026-03-25T14:47:33Z</time></trkpt><trkpt lat="44.476859308371466" lon="10.803682098407505"><ele>435.14285714285717</ele><time>2026-03-25T14:47:34Z</time></trkpt><trkpt lat="44.47692565578994" lon="10.803654879873973"><ele>435.0</ele><time>2026-03-25T14:47:35Z</time></trkpt><trkpt lat="44.476987770452546" lon="10.803621876679522"><ele>435.0</ele><time>2026-03-25T14:47:36Z</time></trkpt><trkpt lat="44.47709329166225" lon="10.803554380455191"><ele>435.0</ele><time>2026-03-25T14:47:38Z</time></trkpt><trkpt lat="44.47717452984627" lon="10.803453632980037"><ele>435.0</ele><time>2026-03-25T14:47:40Z</time></trkpt><trkpt lat="44.477251110944245" lon="10.803353333228028"><ele>435.0</ele><time>2026-03-25T14:47:42Z</time></trkpt><trkpt lat="44.47734007252515" lon="10.803268029276486"><ele>435.0</ele><time>2026-03-25T14:47:44Z</time></trkpt><trkpt lat="44.47742939032854" lon="10.803163758866996"><ele>435.4</ele><time>2026-03-25T14:47:46Z</time></trkpt><trkpt lat="44.47751960478863" lon="10.80306485723785"><ele>435.8</ele><time>2026-03-25T14:47:48Z</time></trkpt><trkpt lat="44.47760936840749" lon="10.802986056821055"><ele>436.20000000000005</ele><time>2026-03-25T14:47:50Z</time></trkpt><trkpt lat="44.47770130108209" lon="10.802940657298842"><ele>436.6</ele><time>2026-03-25T14:47:52Z</time></trkpt><trkpt lat="44.4777804560506" lon="10.802902896121466"><ele>437.0</ele><time>2026-03-25T14:47:54Z</time></trkpt><trkpt lat="44.47785045481146" lon="10.802864165793276"><ele>437.0</ele><time>2026-03-25T14:47:56Z</time></trkpt><trkpt lat="44.477922311605994" lon="10.802861359773916"><ele>437.0</ele><time>2026-03-25T14:47:58Z</time></trkpt><trkpt lat="44.477990283581526" lon="10.802880605286868"><ele>437.0</ele><time>2026-03-25T14:48:00Z</time></trkpt><trkpt lat="44.47805807773908" lon="10.802885200761521"><ele>437.0</ele><time>2026-03-25T14:48:02Z</time></trkpt><trkpt lat="44.47812203508027" lon="10.802889208335976"><ele>437.0</ele><time>2026-03-25T14:48:04Z</time></trkpt><trkpt lat="44.478189960898646" lon="10.802891289647258"><ele>437.0</ele><time>2026-03-25T14:48:06Z</time></trkpt><trkpt lat="44.4782653891096" lon="10.80289288683082"><ele>437.0</ele><time>2026-03-25T14:48:08Z</time></trkpt><trkpt lat="44.478341933638454" lon="10.8028950237935"><ele>436.0</ele><time>2026-03-25T14:48:10Z</time></trkpt><trkpt lat="44.47842252022801" lon="10.802885243498594"><ele>435.00000000000006</ele><time>2026-03-25T14:48:12Z</time></trkpt><trkpt lat="44.47851730420479" lon="10.802873658423048"><ele>434.00000000000006</ele><time>2026-03-25T14:48:14Z</time></trkpt><trkpt lat="44.47862479244734" lon="10.802855078490758"><ele>433.0</ele><time>2026-03-25T14:48:16Z</time></trkpt><trkpt lat="44.47873918800337" lon="10.802841727958434"><ele>432.0</ele><time>2026-03-25T14:48:18Z</time></trkpt><trkpt lat="44.47886182309062" lon="10.802844766417751"><ele>432.0</ele><time>2026-03-25T14:48:20Z</time></trkpt><trkpt lat="44.47898325228149" lon="10.802878107692605"><ele>432.0</ele><time>2026-03-25T14:48:22Z</time></trkpt><trkpt lat="44.47904386184659" lon="10.802904303225604"><ele>432.0</ele><time>2026-03-25T14:48:23Z</time></trkpt><trkpt lat="44.47910239998659" lon="10.802938733630098"><ele>432.0</ele><time>2026-03-25T14:48:24Z</time></trkpt><trkpt lat="44.47916189383429" lon="10.802968341028553"><ele>432.0</ele><time>2026-03-25T14:48:25Z</time></trkpt><trkpt lat="44.47927350743325" lon="10.803030326432376"><ele>432.0</ele><time>2026-03-25T14:48:27Z</time></trkpt><trkpt lat="44.479362602497936" lon="10.803118050230406"><ele>432.0</ele><time>2026-03-25T14:48:29Z</time></trkpt><trkpt lat="44.479423737573434" lon="10.803147044234885"><ele>432.0</ele><time>2026-03-25T14:48:31Z</time></trkpt><trkpt lat="44.47938618033235" lon="10.803061225419318"><ele>432.0</ele><time>2026-03-25T14:48:39Z</time></trkpt><trkpt lat="44.47932087574084" lon="10.803058144084936"><ele>432.0</ele><time>2026-03-25T14:48:45Z</time></trkpt><trkpt lat="44.47939058453871" lon="10.803120597527581"><ele>432.0</ele><time>2026-03-25T14:48:49Z</time></trkpt><trkpt lat="44.4794617347799" lon="10.80313684741026"><ele>432.0</ele><time>2026-03-25T14:48:51Z</time></trkpt><trkpt lat="44.47954834942654" lon="10.803142532291085"><ele>432.0</ele><time>2026-03-25T14:48:53Z</time></trkpt><trkpt lat="44.47963688849298" lon="10.803128984932501"><ele>430.6</ele><time>2026-03-25T14:48:55Z</time></trkpt><trkpt lat="44.47974193662636" lon="10.8031138551907"><ele>429.20000000000005</ele><time>2026-03-25T14:48:57Z</time></trkpt><trkpt lat="44.479843312646445" lon="10.803093832736545"><ele>427.8</ele><time>2026-03-25T14:48:59Z</time></trkpt><trkpt lat="44.479971548409175" lon="10.80306857301259"><ele>426.4</ele><time>2026-03-25T14:49:01Z</time></trkpt><trkpt lat="44.48004558233582" lon="10.803066472608128"><ele>425.0</ele><time>2026-03-25T14:49:02Z</time></trkpt><trkpt lat="44.48014344295098" lon="10.803048076698538"><ele>424.99999999999994</ele><time>2026-03-25T14:49:04Z</time></trkpt><trkpt lat="44.48022822023158" lon="10.803029323101176"><ele>425.0</ele><time>2026-03-25T14:49:06Z</time></trkpt><trkpt lat="44.48030822194847" lon="10.803006101033267"><ele>425.0</ele><time>2026-03-25T14:49:08Z</time></trkpt><trkpt lat="44.48038338128878" lon="10.802980866286898"><ele>425.0</ele><time>2026-03-25T14:49:10Z</time></trkpt><trkpt lat="44.48044512647953" lon="10.802963514327056"><ele>424.99999999999994</ele><time>2026-03-25T14:49:12Z</time></trkpt><trkpt lat="44.48052483641522" lon="10.80293783586913"><ele>425.0</ele><time>2026-03-25T14:49:15Z</time></trkpt><trkpt lat="44.480590063403966" lon="10.802914210673247"><ele>422.8333333333333</ele><time>2026-03-25T14:49:18Z</time></trkpt><trkpt lat="44.48066844359931" lon="10.802884378979664"><ele>420.66666666666663</ele><time>2026-03-25T14:49:21Z</time></trkpt><trkpt lat="44.480753146307045" lon="10.802932854422117"><ele>418.5</ele><time>2026-03-25T14:49:23Z</time></trkpt><trkpt lat="44.48086633783868" lon="10.802941120368176"><ele>416.33333333333337</ele><time>2026-03-25T14:49:25Z</time></trkpt><trkpt lat="44.480930040103914" lon="10.802940854234349"><ele>414.1666666666667</ele><time>2026-03-25T14:49:26Z</time></trkpt><trkpt lat="44.48099699488637" lon="10.802939617023155"><ele>412.0</ele><time>2026-03-25T14:49:27Z</time></trkpt><trkpt lat="44.48106905052761" lon="10.802943552981679"><ele>412.00000000000006</ele><time>2026-03-25T14:49:28Z</time></trkpt><trkpt lat="44.48114800669535" lon="10.80295161300691"><ele>412.0</ele><time>2026-03-25T14:49:29Z</time></trkpt><trkpt lat="44.481232575556334" lon="10.8029513348481"><ele>412.0</ele><time>2026-03-25T14:49:30Z</time></trkpt><trkpt lat="44.48132317351375" lon="10.802954054782298"><ele>412.0</ele><time>2026-03-25T14:49:31Z</time></trkpt><trkpt lat="44.481419278189925" lon="10.802950211721567"><ele>412.00000000000006</ele><time>2026-03-25T14:49:32Z</time></trkpt><trkpt lat="44.48150927324463" lon="10.802965862769984"><ele>412.0</ele><time>2026-03-25T14:49:33Z</time></trkpt><trkpt lat="44.48159026174005" lon="10.802980043302512"><ele>411.83333333333337</ele><time>2026-03-25T14:49:34Z</time></trkpt><trkpt lat="44.481659724167855" lon="10.802987264274172"><ele>411.6666666666667</ele><time>2026-03-25T14:49:35Z</time></trkpt><trkpt lat="44.48172279838014" lon="10.802974509006036"><ele>411.5</ele><time>2026-03-25T14:49:36Z</time></trkpt><trkpt lat="44.481835829537445" lon="10.802923745614509"><ele>411.33333333333337</ele><time>2026-03-25T14:49:38Z</time></trkpt><trkpt lat="44.48191433074959" lon="10.802895277144142"><ele>411.1666666666667</ele><time>2026-03-25T14:49:40Z</time></trkpt><trkpt lat="44.48187607857466" lon="10.802812744054183"><ele>411.0</ele><time>2026-03-25T14:49:44Z</time></trkpt><trkpt lat="44.48179654959638" lon="10.802736702235874"><ele>411.0</ele><time>2026-03-25T14:49:47Z</time></trkpt><trkpt lat="44.48170218693569" lon="10.802719426640362"><ele>411.0</ele><time>2026-03-25T14:49:49Z</time></trkpt><trkpt lat="44.481632060195004" lon="10.802626782859814"><ele>411.0</ele><time>2026-03-25T14:49:51Z</time></trkpt><trkpt lat="44.48156201304988" lon="10.802514925760116"><ele>411.0</ele><time>2026-03-25T14:49:53Z</time></trkpt><trkpt lat="44.48147737814324" lon="10.802415933804427"><ele>411.0</ele><time>2026-03-25T14:49:55Z</time></trkpt><trkpt lat="44.481377313603026" lon="10.802307959274659"><ele>410.8</ele><time>2026-03-25T14:49:57Z</time></trkpt><trkpt lat="44.48130894776717" lon="10.802235056993114"><ele>410.6</ele><time>2026-03-25T14:49:58Z</time></trkpt><trkpt lat="44.4812451872382" lon="10.802178924398204"><ele>410.4</ele><time>2026-03-25T14:49:59Z</time></trkpt><trkpt lat="44.48118961060563" lon="10.802129127236933"><ele>410.2</ele><time>2026-03-25T14:50:00Z</time></trkpt><trkpt lat="44.481092191868534" lon="10.802017411405966"><ele>410.0</ele><time>2026-03-25T14:50:02Z</time></trkpt><trkpt lat="44.481020798094995" lon="10.801883374386586"><ele>407.4</ele><time>2026-03-25T14:50:04Z</time></trkpt><trkpt lat="44.480979664698076" lon="10.801732770750533"><ele>404.8</ele><time>2026-03-25T14:50:06Z</time></trkpt><trkpt lat="44.48096078410144" lon="10.801586084004196"><ele>402.20000000000005</ele><time>2026-03-25T14:50:08Z</time></trkpt><trkpt lat="44.48093237121898" lon="10.801465436124019"><ele>399.6</ele><time>2026-03-25T14:50:10Z</time></trkpt><trkpt lat="44.48090076150245" lon="10.801335176681894"><ele>397.0</ele><time>2026-03-25T14:50:12Z</time></trkpt><trkpt lat="44.4808711524218" lon="10.801210778806109"><ele>397.00000000000006</ele><time>2026-03-25T14:50:14Z</time></trkpt><trkpt lat="44.48086740006264" lon="10.801104194586635"><ele>397.0</ele><time>2026-03-25T14:50:16Z</time></trkpt><trkpt lat="44.48086571090865" lon="10.800986033508556"><ele>397.0</ele><time>2026-03-25T14:50:18Z</time></trkpt><trkpt lat="44.48088938554766" lon="10.800883356439153"><ele>397.0</ele><time>2026-03-25T14:50:32Z</time></trkpt><trkpt lat="44.48093583101953" lon="10.800807514752595"><ele>397.00000000000006</ele><time>2026-03-25T14:50:35Z</time></trkpt><trkpt lat="44.48096814050735" lon="10.800683700052572"><ele>397.0</ele><time>2026-03-25T14:50:38Z</time></trkpt><trkpt lat="44.48103227888727" lon="10.800609026414783"><ele>396.1666666666667</ele><time>2026-03-25T14:50:41Z</time></trkpt><trkpt lat="44.4810865933543" lon="10.800563889678637"><ele>395.33333333333337</ele><time>2026-03-25T14:50:43Z</time></trkpt><trkpt lat="44.48114479424287" lon="10.800481830882417"><ele>394.5</ele><time>2026-03-25T14:50:46Z</time></trkpt><trkpt lat="44.481206037057696" lon="10.800447048462262"><ele>393.66666666666663</ele><time>2026-03-25T14:50:48Z</time></trkpt><trkpt lat="44.481273266729204" lon="10.800392483242272"><ele>392.8333333333333</ele><time>2026-03-25T14:50:50Z</time></trkpt><trkpt lat="44.481350874738986" lon="10.800296270662743"><ele>392.0</ele><time>2026-03-25T14:50:52Z</time></trkpt><trkpt lat="44.48141797411185" lon="10.80017978316263"><ele>388.8</ele><time>2026-03-25T14:50:54Z</time></trkpt><trkpt lat="44.48148358214883" lon="10.800093267219292"><ele>385.6</ele><time>2026-03-25T14:50:56Z</time></trkpt><trkpt lat="44.481559152082575" lon="10.800051936978765"><ele>382.40000000000003</ele><time>2026-03-25T14:50:58Z</time></trkpt><trkpt lat="44.48162893053623" lon="10.800063047157762"><ele>379.20000000000005</ele><time>2026-03-25T14:51:05Z</time></trkpt><trkpt lat="44.481740365080306" lon="10.800058702873052"><ele>376.0</ele><time>2026-03-25T14:51:07Z</time></trkpt><trkpt lat="44.48184304891765" lon="10.800036906944626"><ele>376.0</ele><time>2026-03-25T14:51:09Z</time></trkpt><trkpt lat="44.48192908162333" lon="10.799942198300334"><ele>376.0</ele><time>2026-03-25T14:51:11Z</time></trkpt><trkpt lat="44.481997967043704" lon="10.799799750878783"><ele>376.0</ele><time>2026-03-25T14:51:13Z</time></trkpt><trkpt lat="44.48202194606357" lon="10.799710156600948"><ele>376.0</ele><time>2026-03-25T14:51:14Z</time></trkpt><trkpt lat="44.48204387970926" lon="10.799625478535086"><ele>376.0</ele><time>2026-03-25T14:51:15Z</time></trkpt><trkpt lat="44.48208357237464" lon="10.79948559956095"><ele>376.0</ele><time>2026-03-25T14:51:17Z</time></trkpt><trkpt lat="44.48215934036986" lon="10.799453452351226"><ele>376.0</ele><time>2026-03-25T14:51:19Z</time></trkpt><trkpt lat="44.48222639240258" lon="10.799423237316372"><ele>376.0</ele><time>2026-03-25T14:51:22Z</time></trkpt><trkpt lat="44.48228663710738" lon="10.799385630827935"><ele>376.0</ele><time>2026-03-25T14:51:26Z</time></trkpt><trkpt lat="44.48234975672728" lon="10.799343513736005"><ele>376.0</ele><time>2026-03-25T14:51:28Z</time></trkpt><trkpt lat="44.4824573361568" lon="10.799286362635456"><ele>376.0</ele><time>2026-03-25T14:51:30Z</time></trkpt><trkpt lat="44.48257562868317" lon="10.79923973774463"><ele>376.0</ele><time>2026-03-25T14:51:32Z</time></trkpt><trkpt lat="44.48269574894348" lon="10.799218872986055"><ele>376.0</ele><time>2026-03-25T14:51:34Z</time></trkpt><trkpt lat="44.482760630014674" lon="10.799231627736447"><ele>376.0</ele><time>2026-03-25T14:51:35Z</time></trkpt><trkpt lat="44.482860180587444" lon="10.799204752985446"><ele>376.0</ele><time>2026-03-25T14:51:37Z</time></trkpt><trkpt lat="44.48296235631429" lon="10.799181877412526"><ele>376.0</ele><time>2026-03-25T14:51:39Z</time></trkpt><trkpt lat="44.4830790538323" lon="10.799146431973515"><ele>370.4</ele><time>2026-03-25T14:51:41Z</time></trkpt><trkpt lat="44.483143933087305" lon="10.799119471052093"><ele>364.8</ele><time>2026-03-25T14:51:42Z</time></trkpt><trkpt lat="44.483208929693696" lon="10.799082346423258"><ele>359.2</ele><time>2026-03-25T14:51:43Z</time></trkpt><trkpt lat="44.48331447317109" lon="10.799020539812412"><ele>353.59999999999997</ele><time>2026-03-25T14:51:45Z</time></trkpt><trkpt lat="44.483421096800626" lon="10.7989437698197"><ele>348.0</ele><time>2026-03-25T14:51:47Z</time></trkpt><trkpt lat="44.48352095989166" lon="10.798850159882043"><ele>348.0</ele><time>2026-03-25T14:51:49Z</time></trkpt><trkpt lat="44.48361477174864" lon="10.798756755119864"><ele>348.0</ele><time>2026-03-25T14:51:51Z</time></trkpt><trkpt lat="44.4836957013259" lon="10.798682283391992"><ele>348.0</ele><time>2026-03-25T14:51:53Z</time></trkpt><trkpt lat="44.48373951562239" lon="10.79860171679046"><ele>348.0</ele><time>2026-03-25T14:51:55Z</time></trkpt><trkpt lat="44.48380768116574" lon="10.798531594518758"><ele>348.0</ele><time>2026-03-25T14:51:58Z</time></trkpt><trkpt lat="44.48386877966942" lon="10.798571862699708"><ele>348.0</ele><time>2026-03-25T14:52:02Z</time></trkpt><trkpt lat="44.48384157282618" lon="10.798655514015714"><ele>348.0</ele><time>2026-03-25T14:52:05Z</time></trkpt><trkpt lat="44.48380011507982" lon="10.798774185752583"><ele>348.0</ele><time>2026-03-25T14:52:24Z</time></trkpt><trkpt lat="44.48377925474956" lon="10.798869334429625"><ele>348.0</ele><time>2026-03-25T14:52:26Z</time></trkpt><trkpt lat="44.48376958316122" lon="10.798956648724717"><ele>348.0</ele><time>2026-03-25T14:52:28Z</time></trkpt><trkpt lat="44.48375855239771" lon="10.799048900622251"><ele>348.0</ele><time>2026-03-25T14:52:30Z</time></trkpt><trkpt lat="44.48372270016865" lon="10.799175839445276"><ele>348.0</ele><time>2026-03-25T14:52:32Z</time></trkpt><trkpt lat="44.483710166744956" lon="10.7992810035031"><ele>344.57142857142856</ele><time>2026-03-25T14:52:34Z</time></trkpt><trkpt lat="44.4836883842465" lon="10.799380451554237"><ele>341.14285714285717</ele><time>2026-03-25T14:52:36Z</time></trkpt><trkpt lat="44.48365709084489" lon="10.799460636296626"><ele>337.7142857142857</ele><time>2026-03-25T14:52:38Z</time></trkpt><trkpt lat="44.48363168738431" lon="10.799559906282294"><ele>334.2857142857143</ele><time>2026-03-25T14:52:40Z</time></trkpt><trkpt lat="44.48366437666743" lon="10.799635763275287"><ele>330.85714285714283</ele><time>2026-03-25T14:52:42Z</time></trkpt><trkpt lat="44.4837232960555" lon="10.799681470462072"><ele>327.42857142857144</ele><time>2026-03-25T14:52:47Z</time></trkpt><trkpt lat="44.48378259835177" lon="10.799607611651298"><ele>324.0</ele><time>2026-03-25T14:52:52Z</time></trkpt><trkpt lat="44.48381499171507" lon="10.799525905158468"><ele>321.5</ele><time>2026-03-25T14:52:54Z</time></trkpt><trkpt lat="44.48386971407739" lon="10.799476494226568"><ele>319.0</ele><time>2026-03-25T14:52:56Z</time></trkpt><trkpt lat="44.483950396901484" lon="10.799397482688763"><ele>316.5</ele><time>2026-03-25T14:52:58Z</time></trkpt><trkpt lat="44.48405553023699" lon="10.799314423516693"><ele>314.0</ele><time>2026-03-25T14:53:00Z</time></trkpt><trkpt lat="44.484121518039515" lon="10.799281782208158"><ele>311.5</ele><time>2026-03-25T14:53:01Z</time></trkpt><trkpt lat="44.4841995084577" lon="10.799252890142979"><ele>309.0</ele><time>2026-03-25T14:53:02Z</time></trkpt><trkpt lat="44.48426242687988" lon="10.799214661988902"><ele>309.0</ele><time>2026-03-25T14:53:03Z</time></trkpt><trkpt lat="44.484323174227384" lon="10.799081847088297"><ele>309.0</ele><time>2026-03-25T14:53:05Z</time></trkpt><trkpt lat="44.48433758692086" lon="10.798904802177855"><ele>309.0</ele><time>2026-03-25T14:53:07Z</time></trkpt><trkpt lat="44.48437624247721" lon="10.798737204426038"><ele>309.0</ele><time>2026-03-25T14:53:09Z</time></trkpt><trkpt lat="44.48440345593477" lon="10.798651985113423"><ele>309.0</ele><time>2026-03-25T14:53:10Z</time></trkpt><trkpt lat="44.48442417458648" lon="10.79856577608531"><ele>309.8333333333333</ele><time>2026-03-25T14:53:11Z</time></trkpt><trkpt lat="44.48444747011444" lon="10.798482850993635"><ele>310.6666666666667</ele><time>2026-03-25T14:53:12Z</time></trkpt><trkpt lat="44.48447873305143" lon="10.79840102866417"><ele>311.5</ele><time>2026-03-25T14:53:13Z</time></trkpt><trkpt lat="44.484541733517155" lon="10.79825003613353"><ele>312.33333333333337</ele><time>2026-03-25T14:53:15Z</time></trkpt><trkpt lat="44.484602839158256" lon="10.798116179547502"><ele>313.1666666666667</ele><time>2026-03-25T14:53:17Z</time></trkpt><trkpt lat="44.48462498137706" lon="10.798033042621626"><ele>314.0</ele><time>2026-03-25T14:53:18Z</time></trkpt><trkpt lat="44.48464523397432" lon="10.797947594811765"><ele>307.5</ele><time>2026-03-25T14:53:19Z</time></trkpt><trkpt lat="44.48466508627038" lon="10.797859017713627"><ele>301.0</ele><time>2026-03-25T14:53:20Z</time></trkpt><trkpt lat="44.48467695135706" lon="10.79776235566976"><ele>294.5</ele><time>2026-03-25T14:53:21Z</time></trkpt><trkpt lat="44.48469003177874" lon="10.797669864919701"><ele>288.0</ele><time>2026-03-25T14:53:22Z</time></trkpt><trkpt lat="44.48474581620135" lon="10.797526029644944"><ele>281.5</ele><time>2026-03-25T14:53:24Z</time></trkpt><trkpt lat="44.484782972230384" lon="10.797419224052355"><ele>275.0</ele><time>2026-03-25T14:53:26Z</time></trkpt><trkpt lat="44.48481614193686" lon="10.797330244333375"><ele>273.33333333333337</ele><time>2026-03-25T14:53:27Z</time></trkpt><trkpt lat="44.484853185428705" lon="10.797242191646486"><ele>271.6666666666667</ele><time>2026-03-25T14:53:28Z</time></trkpt><trkpt lat="44.484920142490495" lon="10.797184181019244"><ele>270.0</ele><time>2026-03-25T14:53:30Z</time></trkpt><trkpt lat="44.48502456468089" lon="10.797178135541676"><ele>268.3333333333333</ele><time>2026-03-25T14:53:32Z</time></trkpt><trkpt lat="44.485126988885476" lon="10.797162040981974"><ele>266.66666666666663</ele><time>2026-03-25T14:53:34Z</time></trkpt><trkpt lat="44.48518040567317" lon="10.797106977050415"><ele>265.0</ele><time>2026-03-25T14:53:36Z</time></trkpt><trkpt lat="44.48522108048426" lon="10.797029370515226"><ele>265.0</ele><time>2026-03-25T14:53:38Z</time></trkpt><trkpt lat="44.485266319408886" lon="10.796943969834402"><ele>265.0</ele><time>2026-03-25T14:53:40Z</time></trkpt><trkpt lat="44.48530954922751" lon="10.796847026878126"><ele>265.0</ele><time>2026-03-25T14:53:42Z</time></trkpt><trkpt lat="44.48535551016783" lon="10.796769243346759"><ele>265.0</ele><time>2026-03-25T14:53:45Z</time></trkpt><trkpt lat="44.48543466610488" lon="10.796670999188914"><ele>265.0</ele><time>2026-03-25T14:53:47Z</time></trkpt><trkpt lat="44.48551067108613" lon="10.796634624926101"><ele>265.0</ele><time>2026-03-25T14:53:49Z</time></trkpt><trkpt lat="44.48559047765178" lon="10.79662098434169"><ele>261.71428571428567</ele><time>2026-03-25T14:53:51Z</time></trkpt><trkpt lat="44.48565337296625" lon="10.796614889915762"><ele>258.42857142857144</ele><time>2026-03-25T14:53:53Z</time></trkpt><trkpt lat="44.48571591620799" lon="10.796629899331007"><ele>255.1428571428571</ele><time>2026-03-25T14:53:55Z</time></trkpt><trkpt lat="44.48579885546923" lon="10.796666781060685"><ele>251.85714285714283</ele><time>2026-03-25T14:53:58Z</time></trkpt><trkpt lat="44.485862291778375" lon="10.796691689377147"><ele>248.57142857142856</ele><time>2026-03-25T14:54:01Z</time></trkpt><trkpt lat="44.48593162910966" lon="10.79676221638676"><ele>245.28571428571428</ele><time>2026-03-25T14:54:04Z</time></trkpt><trkpt lat="44.48600401696431" lon="10.796731846632422"><ele>242.0</ele><time>2026-03-25T14:54:40Z</time></trkpt><trkpt lat="44.48604592713266" lon="10.796641990723167"><ele>242.0</ele><time>2026-03-25T14:54:44Z</time></trkpt><trkpt lat="44.486091362647784" lon="10.796542106336597"><ele>241.99999999999997</ele><time>2026-03-25T14:54:47Z</time></trkpt><trkpt lat="44.486151637589614" lon="10.796455374236947"><ele>242.0</ele><time>2026-03-25T14:54:50Z</time></trkpt><trkpt lat="44.48618487371822" lon="10.796379744393267"><ele>242.0</ele><time>2026-03-25T14:54:53Z</time></trkpt><trkpt lat="44.486228004556025" lon="10.7963122553175"><ele>241.99999999999997</ele><time>2026-03-25T14:54:57Z</time></trkpt><trkpt lat="44.48626361766528" lon="10.79622917071945"><ele>242.0</ele><time>2026-03-25T14:55:01Z</time></trkpt><trkpt lat="44.48629636136672" lon="10.796152133340557"><ele>242.0</ele><time>2026-03-25T14:55:05Z</time></trkpt><trkpt lat="44.48631696453806" lon="10.796059183649195"><ele>243.28571428571428</ele><time>2026-03-25T14:55:09Z</time></trkpt><trkpt lat="44.48634501051903" lon="10.79597961312796"><ele>244.57142857142856</ele><time>2026-03-25T14:55:12Z</time></trkpt><trkpt lat="44.486366857839876" lon="10.795881223857819"><ele>245.85714285714283</ele><time>2026-03-25T14:55:16Z</time></trkpt><trkpt lat="44.48639487294076" lon="10.795781517825871"><ele>247.1428571428571</ele><time>2026-03-25T14:55:20Z</time></trkpt><trkpt lat="44.48640586513435" lon="10.795691076140018"><ele>248.42857142857142</ele><time>2026-03-25T14:55:23Z</time></trkpt><trkpt lat="44.486431138982816" lon="10.795600183762321"><ele>249.71428571428567</ele><time>2026-03-25T14:55:26Z</time></trkpt><trkpt lat="44.48645273705636" lon="10.795505904349831"><ele>250.99999999999997</ele><time>2026-03-25T14:55:29Z</time></trkpt><trkpt lat="44.48647483209857" lon="10.79540953950741"><ele>250.99999999999997</ele><time>2026-03-25T14:55:32Z</time></trkpt><trkpt lat="44.48649680695241" lon="10.795320487200577"><ele>251.0</ele><time>2026-03-25T14:55:35Z</time></trkpt><trkpt lat="44.48650053203036" lon="10.795217372135236"><ele>250.99999999999997</ele><time>2026-03-25T14:55:38Z</time></trkpt><trkpt lat="44.48650395812738" lon="10.795116203567483"><ele>250.99999999999997</ele><time>2026-03-25T14:55:41Z</time></trkpt><trkpt lat="44.486493869673374" lon="10.795005866494902"><ele>251.0</ele><time>2026-03-25T14:55:44Z</time></trkpt><trkpt lat="44.486473655869524" lon="10.79491051623056"><ele>250.99999999999997</ele><time>2026-03-25T14:55:47Z</time></trkpt><trkpt lat="44.486441566969866" lon="10.794811239167927"><ele>250.99999999999997</ele><time>2026-03-25T14:55:50Z</time></trkpt><trkpt lat="44.486406444242" lon="10.794714593852122"><ele>251.66666666666669</ele><time>2026-03-25T14:55:53Z</time></trkpt><trkpt lat="44.486361917784265" lon="10.794622849526608"><ele>252.33333333333334</ele><time>2026-03-25T14:55:56Z</time></trkpt><trkpt lat="44.48631527991018" lon="10.79452522229663"><ele>253.0</ele><time>2026-03-25T14:55:59Z</time></trkpt><trkpt lat="44.486257893082986" lon="10.79446075060031"><ele>253.66666666666669</ele><time>2026-03-25T14:56:02Z</time></trkpt><trkpt lat="44.48619738742695" lon="10.79439519159959"><ele>254.33333333333334</ele><time>2026-03-25T14:56:05Z</time></trkpt><trkpt lat="44.48612535566089" lon="10.794322353153122"><ele>255.0</ele><time>2026-03-25T14:56:08Z</time></trkpt><trkpt lat="44.486084832021156" lon="10.794250832818316"><ele>256.57142857142856</ele><time>2026-03-25T14:56:10Z</time></trkpt><trkpt lat="44.48605858956777" lon="10.794162061381728"><ele>258.14285714285717</ele><time>2026-03-25T14:56:12Z</time></trkpt><trkpt lat="44.48606213524475" lon="10.794068249374037"><ele>259.7142857142857</ele><time>2026-03-25T14:56:14Z</time></trkpt><trkpt lat="44.486070880441844" lon="10.793967177957256"><ele>261.2857142857143</ele><time>2026-03-25T14:56:16Z</time></trkpt><trkpt lat="44.48604622832508" lon="10.793869883771801"><ele>262.8571428571429</ele><time>2026-03-25T14:56:18Z</time></trkpt><trkpt lat="44.486001361216786" lon="10.793792252257315"><ele>264.42857142857144</ele><time>2026-03-25T14:56:20Z</time></trkpt><trkpt lat="44.48594852241454" lon="10.79372814810868"><ele>266.0</ele><time>2026-03-25T14:56:22Z</time></trkpt><trkpt lat="44.48590146056318" lon="10.793659628650543"><ele>266.0</ele><time>2026-03-25T14:56:24Z</time></trkpt><trkpt lat="44.48585020634772" lon="10.793549133595452"><ele>266.0</ele><time>2026-03-25T14:56:27Z</time></trkpt><trkpt lat="44.485842487840614" lon="10.793450232331482"><ele>266.0</ele><time>2026-03-25T14:56:29Z</time></trkpt><trkpt lat="44.48584101109304" lon="10.793346804754039"><ele>266.0</ele><time>2026-03-25T14:56:31Z</time></trkpt><trkpt lat="44.48583603716586" lon="10.793245153694361"><ele>266.0</ele><time>2026-03-25T14:56:33Z</time></trkpt><trkpt lat="44.48583752132913" lon="10.793140597102513"><ele>266.0</ele><time>2026-03-25T14:56:35Z</time></trkpt><trkpt lat="44.485834618090635" lon="10.79303511875634"><ele>264.83333333333337</ele><time>2026-03-25T14:56:37Z</time></trkpt><trkpt lat="44.48581373431468" lon="10.792923358117708"><ele>263.6666666666667</ele><time>2026-03-25T14:56:39Z</time></trkpt><trkpt lat="44.48576935850321" lon="10.792818947150469"><ele>262.5</ele><time>2026-03-25T14:56:41Z</time></trkpt><trkpt lat="44.48571934102843" lon="10.792741251478818"><ele>261.3333333333333</ele><time>2026-03-25T14:56:43Z</time></trkpt><trkpt lat="44.48566860629465" lon="10.792658363403792"><ele>260.16666666666663</ele><time>2026-03-25T14:56:45Z</time></trkpt><trkpt lat="44.485616937553154" lon="10.792584675322756"><ele>259.0</ele><time>2026-03-25T14:56:47Z</time></trkpt><trkpt lat="44.48556459735545" lon="10.792513785809684"><ele>259.0</ele><time>2026-03-25T14:56:49Z</time></trkpt><trkpt lat="44.485500585324054" lon="10.792453008458644"><ele>259.0</ele><time>2026-03-25T14:56:51Z</time></trkpt><trkpt lat="44.48542157874857" lon="10.79241919417616"><ele>259.0</ele><time>2026-03-25T14:56:53Z</time></trkpt><trkpt lat="44.48534775375181" lon="10.792412750116762"><ele>259.0</ele><time>2026-03-25T14:56:55Z</time></trkpt><trkpt lat="44.48527959572357" lon="10.792424558905074"><ele>259.0</ele><time>2026-03-25T14:56:57Z</time></trkpt><trkpt lat="44.485216409601826" lon="10.792453186116568"><ele>259.0</ele><time>2026-03-25T14:56:59Z</time></trkpt><trkpt lat="44.48515109394376" lon="10.792494983728742"><ele>259.0</ele><time>2026-03-25T14:57:01Z</time></trkpt><trkpt lat="44.48509538591249" lon="10.792553631813128"><ele>258.2857142857143</ele><time>2026-03-25T14:57:03Z</time></trkpt><trkpt lat="44.48503843645715" lon="10.792613594728614"><ele>257.57142857142856</ele><time>2026-03-25T14:57:05Z</time></trkpt><trkpt lat="44.484991046993386" lon="10.792681416900491"><ele>256.8571428571429</ele><time>2026-03-25T14:57:07Z</time></trkpt><trkpt lat="44.48495130760217" lon="10.792758647634857"><ele>256.1428571428571</ele><time>2026-03-25T14:57:09Z</time></trkpt><trkpt lat="44.48491013518414" lon="10.792835880852836"><ele>255.42857142857142</ele><time>2026-03-25T14:57:11Z</time></trkpt><trkpt lat="44.48486765394649" lon="10.792904200677992"><ele>254.71428571428572</ele><time>2026-03-25T14:57:13Z</time></trkpt><trkpt lat="44.48483099747684" lon="10.792978897182374"><ele>254.0</ele><time>2026-03-25T14:57:15Z</time></trkpt><trkpt lat="44.4847911658998" lon="10.793054179875412"><ele>253.83333333333334</ele><time>2026-03-25T14:57:17Z</time></trkpt><trkpt lat="44.484751779134" lon="10.793125771799792"><ele>253.66666666666669</ele><time>2026-03-25T14:57:19Z</time></trkpt><trkpt lat="44.48471560101428" lon="10.7932022357358"><ele>253.5</ele><time>2026-03-25T14:57:21Z</time></trkpt><trkpt lat="44.48467468049557" lon="10.793271886977431"><ele>253.33333333333331</ele><time>2026-03-25T14:57:23Z</time></trkpt><trkpt lat="44.48462049622679" lon="10.793377473379678"><ele>253.16666666666666</ele><time>2026-03-25T14:57:26Z</time></trkpt><trkpt lat="44.48456854943795" lon="10.793482303768453"><ele>253.0</ele><time>2026-03-25T14:57:29Z</time></trkpt><trkpt lat="44.48451271056705" lon="10.793574098077386"><ele>253.66666666666666</ele><time>2026-03-25T14:57:32Z</time></trkpt><trkpt lat="44.4844527661483" lon="10.793658189724832"><ele>254.33333333333331</ele><time>2026-03-25T14:57:35Z</time></trkpt><trkpt lat="44.48439299382775" lon="10.793732142570747"><ele>255.0</ele><time>2026-03-25T14:57:38Z</time></trkpt><trkpt lat="44.484315431167765" lon="10.793781142486738"><ele>255.66666666666669</ele><time>2026-03-25T14:57:41Z</time></trkpt><trkpt lat="44.48423655104356" lon="10.793811494893266"><ele>256.33333333333337</ele><time>2026-03-25T14:57:44Z</time></trkpt><trkpt lat="44.4841532710742" lon="10.793800101696238"><ele>257.0</ele><time>2026-03-25T14:57:47Z</time></trkpt><trkpt lat="44.48407922145357" lon="10.793752133905071"><ele>257.0</ele><time>2026-03-25T14:57:50Z</time></trkpt><trkpt lat="44.484023234108214" lon="10.793676648714928"><ele>257.0</ele><time>2026-03-25T14:57:53Z</time></trkpt><trkpt lat="44.48398647293122" lon="10.793572140945816"><ele>257.0</ele><time>2026-03-25T14:57:56Z</time></trkpt><trkpt lat="44.4839561961218" lon="10.793468972221394"><ele>257.0</ele><time>2026-03-25T14:57:59Z</time></trkpt><trkpt lat="44.48392860423878" lon="10.793357896818971"><ele>257.0</ele><time>2026-03-25T14:58:02Z</time></trkpt><trkpt lat="44.48389380427164" lon="10.79324330747714"><ele>257.0</ele><time>2026-03-25T14:58:05Z</time></trkpt><trkpt lat="44.483858015156876" lon="10.79314298821536"><ele>257.1428571428571</ele><time>2026-03-25T14:58:08Z</time></trkpt><trkpt lat="44.48381447399562" lon="10.793033195744899"><ele>257.2857142857143</ele><time>2026-03-25T14:58:11Z</time></trkpt><trkpt lat="44.483776405825424" lon="10.79296202513657"><ele>257.42857142857144</ele><time>2026-03-25T14:58:13Z</time></trkpt><trkpt lat="44.48374072483802" lon="10.792888757322741"><ele>257.57142857142856</ele><time>2026-03-25T14:58:15Z</time></trkpt><trkpt lat="44.48368159177501" lon="10.79278414961553"><ele>257.7142857142857</ele><time>2026-03-25T14:58:18Z</time></trkpt><trkpt lat="44.48364183423597" lon="10.79271526523333"><ele>257.85714285714283</ele><time>2026-03-25T14:58:20Z</time></trkpt><trkpt lat="44.48359832542759" lon="10.792646396283853"><ele>258.0</ele><time>2026-03-25T14:58:22Z</time></trkpt><trkpt lat="44.483548757917106" lon="10.792579803517517"><ele>257.99999999999994</ele><time>2026-03-25T14:58:24Z</time></trkpt><trkpt lat="44.4834894441985" lon="10.792542300501543"><ele>258.0</ele><time>2026-03-25T14:58:26Z</time></trkpt><trkpt lat="44.48341579115412" lon="10.792550769205349"><ele>258.0</ele><time>2026-03-25T14:58:28Z</time></trkpt><trkpt lat="44.483345756374966" lon="10.792591327467607"><ele>258.0</ele><time>2026-03-25T14:58:30Z</time></trkpt><trkpt lat="44.483279528366" lon="10.792651127206389"><ele>258.0</ele><time>2026-03-25T14:58:32Z</time></trkpt><trkpt lat="44.48321415098864" lon="10.792708386149974"><ele>257.99999999999994</ele><time>2026-03-25T14:58:34Z</time></trkpt><trkpt lat="44.48315072554305" lon="10.792765376197833"><ele>258.0</ele><time>2026-03-25T14:58:36Z</time></trkpt><trkpt lat="44.48308399572453" lon="10.792825143068837"><ele>258.0</ele><time>2026-03-25T14:58:38Z</time></trkpt><trkpt lat="44.483013633031334" lon="10.79287942290959"><ele>258.0</ele><time>2026-03-25T14:58:40Z</time></trkpt><trkpt lat="44.482928695321725" lon="10.792898495637182"><ele>258.0</ele><time>2026-03-25T14:58:42Z</time></trkpt><trkpt lat="44.482853822693315" lon="10.792900773613045"><ele>258.0</ele><time>2026-03-25T14:58:44Z</time></trkpt><trkpt lat="44.48278132266839" lon="10.792885564569225"><ele>258.0</ele><time>2026-03-25T14:58:46Z</time></trkpt><trkpt lat="44.4827113849202" lon="10.792870597500317"><ele>258.0</ele><time>2026-03-25T14:58:48Z</time></trkpt><trkpt lat="44.48264180353135" lon="10.79285761932443"><ele>257.85714285714283</ele><time>2026-03-25T14:58:50Z</time></trkpt><trkpt lat="44.482572743091914" lon="10.792831272536384"><ele>257.7142857142857</ele><time>2026-03-25T14:58:52Z</time></trkpt><trkpt lat="44.48250105734358" lon="10.792806245875905"><ele>257.57142857142856</ele><time>2026-03-25T14:58:54Z</time></trkpt><trkpt lat="44.4824309642843" lon="10.792756500936717"><ele>257.42857142857144</ele><time>2026-03-25T14:58:56Z</time></trkpt><trkpt lat="44.48236331285902" lon="10.792713376087859"><ele>257.2857142857143</ele><time>2026-03-25T14:58:58Z</time></trkpt><trkpt lat="44.482301653755215" lon="10.792657099318502"><ele>257.1428571428571</ele><time>2026-03-25T14:59:00Z</time></trkpt><trkpt lat="44.48224660477195" lon="10.792587389483646"><ele>257.0</ele><time>2026-03-25T14:59:02Z</time></trkpt><trkpt lat="44.48219105363963" lon="10.792528950664567"><ele>257.0</ele><time>2026-03-25T14:59:04Z</time></trkpt><trkpt lat="44.48214313773221" lon="10.792455469141707"><ele>257.0</ele><time>2026-03-25T14:59:06Z</time></trkpt><trkpt lat="44.482087876337516" lon="10.792386869587892"><ele>257.0</ele><time>2026-03-25T14:59:08Z</time></trkpt><trkpt lat="44.48204153723627" lon="10.792326653387109"><ele>257.0</ele><time>2026-03-25T14:59:10Z</time></trkpt><trkpt lat="44.48198952460603" lon="10.792267973518333"><ele>257.0</ele><time>2026-03-25T14:59:12Z</time></trkpt><trkpt lat="44.481939988363735" lon="10.792210357256952"><ele>257.0</ele><time>2026-03-25T14:59:14Z</time></trkpt><trkpt lat="44.48187595954542" lon="10.792115150968689"><ele>257.0</ele><time>2026-03-25T14:59:17Z</time></trkpt><trkpt lat="44.48182741925869" lon="10.792050435852607"><ele>258.1428571428571</ele><time>2026-03-25T14:59:19Z</time></trkpt><trkpt lat="44.48177699639499" lon="10.791981445683785"><ele>259.2857142857143</ele><time>2026-03-25T14:59:21Z</time></trkpt><trkpt lat="44.48171164061621" lon="10.791922484119757"><ele>260.42857142857144</ele><time>2026-03-25T14:59:23Z</time></trkpt><trkpt lat="44.48163661373974" lon="10.791876567760939"><ele>261.57142857142856</ele><time>2026-03-25T14:59:25Z</time></trkpt><trkpt lat="44.48156720765074" lon="10.791843368096059"><ele>262.7142857142857</ele><time>2026-03-25T14:59:27Z</time></trkpt><trkpt lat="44.48149870170307" lon="10.791816317161288"><ele>263.85714285714283</ele><time>2026-03-25T14:59:29Z</time></trkpt><trkpt lat="44.48143553521967" lon="10.79178778389692"><ele>265.0</ele><time>2026-03-25T14:59:31Z</time></trkpt><trkpt lat="44.48137218925951" lon="10.791763723919278"><ele>264.99999999999994</ele><time>2026-03-25T14:59:33Z</time></trkpt><trkpt lat="44.48130709646287" lon="10.791736995500715"><ele>265.0</ele><time>2026-03-25T14:59:35Z</time></trkpt><trkpt lat="44.48124005190261" lon="10.791709547543636"><ele>265.0</ele><time>2026-03-25T14:59:37Z</time></trkpt><trkpt lat="44.48117556758097" lon="10.791681218551142"><ele>265.0</ele><time>2026-03-25T14:59:39Z</time></trkpt><trkpt lat="44.481113146530866" lon="10.791653577544075"><ele>265.0</ele><time>2026-03-25T14:59:41Z</time></trkpt><trkpt lat="44.4810495649136" lon="10.791627758076647"><ele>264.99999999999994</ele><time>2026-03-25T14:59:43Z</time></trkpt><trkpt lat="44.48098515757154" lon="10.791605661762977"><ele>265.0</ele><time>2026-03-25T14:59:45Z</time></trkpt><trkpt lat="44.480920597973565" lon="10.791585850737325"><ele>265.1428571428571</ele><time>2026-03-25T14:59:47Z</time></trkpt><trkpt lat="44.480857354695054" lon="10.791572187317364"><ele>265.2857142857143</ele><time>2026-03-25T14:59:49Z</time></trkpt><trkpt lat="44.480790183580744" lon="10.791567856961594"><ele>265.42857142857144</ele><time>2026-03-25T14:59:51Z</time></trkpt><trkpt lat="44.480723871519736" lon="10.791559042222914"><ele>265.57142857142856</ele><time>2026-03-25T14:59:53Z</time></trkpt><trkpt lat="44.4806545098501" lon="10.791563738816793"><ele>265.7142857142857</ele><time>2026-03-25T14:59:55Z</time></trkpt><trkpt lat="44.48055979500467" lon="10.791568354473178"><ele>265.85714285714283</ele><time>2026-03-25T14:59:58Z</time></trkpt><trkpt lat="44.48049611018156" lon="10.791566740781061"><ele>266.0</ele><time>2026-03-25T15:00:00Z</time></trkpt><trkpt lat="44.4804292699775" lon="10.791573914086412"><ele>266.85714285714283</ele><time>2026-03-25T15:00:02Z</time></trkpt><trkpt lat="44.48036578937141" lon="10.791578385222714"><ele>267.7142857142857</ele><time>2026-03-25T15:00:04Z</time></trkpt><trkpt lat="44.480297827234004" lon="10.791589699537267"><ele>268.57142857142856</ele><time>2026-03-25T15:00:06Z</time></trkpt><trkpt lat="44.48023207053002" lon="10.791589010908892"><ele>269.42857142857144</ele><time>2026-03-25T15:00:08Z</time></trkpt><trkpt lat="44.48016103657193" lon="10.79159422250141"><ele>270.2857142857143</ele><time>2026-03-25T15:00:10Z</time></trkpt><trkpt lat="44.48008896819695" lon="10.791594126772232"><ele>271.1428571428571</ele><time>2026-03-25T15:00:12Z</time></trkpt><trkpt lat="44.48001627449772" lon="10.79160402901422"><ele>272.0</ele><time>2026-03-25T15:00:14Z</time></trkpt><trkpt lat="44.47994238452983" lon="10.791614134578504"><ele>271.99999999999994</ele><time>2026-03-25T15:00:16Z</time></trkpt><trkpt lat="44.47986505562985" lon="10.791615710578933"><ele>272.0</ele><time>2026-03-25T15:00:18Z</time></trkpt><trkpt lat="44.47978990942613" lon="10.791593425559938"><ele>272.0</ele><time>2026-03-25T15:00:20Z</time></trkpt><trkpt lat="44.479723505590805" lon="10.791568739916272"><ele>272.0</ele><time>2026-03-25T15:00:22Z</time></trkpt><trkpt lat="44.479636609062155" lon="10.791543132010993"><ele>272.0</ele><time>2026-03-25T15:00:25Z</time></trkpt><trkpt lat="44.47957255589667" lon="10.791526272240949"><ele>271.99999999999994</ele><time>2026-03-25T15:00:28Z</time></trkpt><trkpt lat="44.47950966611083" lon="10.791494286481637"><ele>272.0</ele><time>2026-03-25T15:00:31Z</time></trkpt><trkpt lat="44.47947275291043" lon="10.791422211864866"><ele>271.99999999999994</ele><time>2026-03-25T15:00:35Z</time></trkpt><trkpt lat="44.47951839845177" lon="10.79135313348973"><ele>272.0</ele><time>2026-03-25T15:00:38Z</time></trkpt><trkpt lat="44.47959367191532" lon="10.791344129992805"><ele>272.0</ele><time>2026-03-25T15:00:41Z</time></trkpt><trkpt lat="44.47966329507576" lon="10.791323826105687"><ele>272.0</ele><time>2026-03-25T15:00:44Z</time></trkpt><trkpt lat="44.47972941072277" lon="10.791286898263268"><ele>272.0</ele><time>2026-03-25T15:00:47Z</time></trkpt><trkpt lat="44.479783532370064" lon="10.7912215861882"><ele>271.99999999999994</ele><time>2026-03-25T15:00:50Z</time></trkpt><trkpt lat="44.479832561490255" lon="10.791149991071872"><ele>272.0</ele><time>2026-03-25T15:00:53Z</time></trkpt><trkpt lat="44.47989035970231" lon="10.791084974444685"><ele>271.99999999999994</ele><time>2026-03-25T15:00:56Z</time></trkpt><trkpt lat="44.479947288428136" lon="10.791018962471965"><ele>272.0</ele><time>2026-03-25T15:00:59Z</time></trkpt><trkpt lat="44.48000590909081" lon="10.790955071250211"><ele>272.0</ele><time>2026-03-25T15:01:02Z</time></trkpt><trkpt lat="44.4800516965352" lon="10.790891926427859"><ele>272.0</ele><time>2026-03-25T15:01:05Z</time></trkpt><trkpt lat="44.48011255678478" lon="10.79083796125343"><ele>272.0</ele><time>2026-03-25T15:01:08Z</time></trkpt><trkpt lat="44.48017163058713" lon="10.790785527247028"><ele>271.99999999999994</ele><time>2026-03-25T15:01:11Z</time></trkpt><trkpt lat="44.48023039410119" lon="10.790735122076786"><ele>272.0</ele><time>2026-03-25T15:01:14Z</time></trkpt><trkpt lat="44.480289258104925" lon="10.790680083044471"><ele>271.99999999999994</ele><time>2026-03-25T15:01:17Z</time></trkpt><trkpt lat="44.48034676429715" lon="10.790629611871807"><ele>272.0</ele><time>2026-03-25T15:01:20Z</time></trkpt><trkpt lat="44.48041339484406" lon="10.79055895935834"><ele>272.0</ele><time>2026-03-25T15:01:24Z</time></trkpt><trkpt lat="44.480466878991635" lon="10.790506240799042"><ele>272.0</ele><time>2026-03-25T15:01:27Z</time></trkpt><trkpt lat="44.48053128898544" lon="10.790438133835192"><ele>272.0</ele><time>2026-03-25T15:01:31Z</time></trkpt><trkpt lat="44.48057628435675" lon="10.790375270375389"><ele>271.99999999999994</ele><time>2026-03-25T15:01:34Z</time></trkpt><trkpt lat="44.48062024087042" lon="10.790303640389125"><ele>272.0</ele><time>2026-03-25T15:01:37Z</time></trkpt><trkpt lat="44.48066982081245" lon="10.790208904590587"><ele>274.33333333333337</ele><time>2026-03-25T15:01:41Z</time></trkpt><trkpt lat="44.480716863350374" lon="10.790111117430309"><ele>276.6666666666667</ele><time>2026-03-25T15:01:45Z</time></trkpt><trkpt lat="44.48074800790463" lon="10.79002316848077"><ele>279.0</ele><time>2026-03-25T15:01:48Z</time></trkpt><trkpt lat="44.48078161944468" lon="10.789936422419382"><ele>281.3333333333333</ele><time>2026-03-25T15:01:51Z</time></trkpt><trkpt lat="44.48081253450142" lon="10.789830506842119"><ele>283.66666666666663</ele><time>2026-03-25T15:01:54Z</time></trkpt><trkpt lat="44.48083261749588" lon="10.78972216744337"><ele>286.0</ele><time>2026-03-25T15:01:57Z</time></trkpt><trkpt lat="44.48085158440483" lon="10.789617196820931"><ele>285.99999999999994</ele><time>2026-03-25T15:02:00Z</time></trkpt><trkpt lat="44.480854575665916" lon="10.78950916406315"><ele>286.0</ele><time>2026-03-25T15:02:03Z</time></trkpt><trkpt lat="44.48085415209583" lon="10.789411039045527"><ele>286.0</ele><time>2026-03-25T15:02:06Z</time></trkpt><trkpt lat="44.48083947215961" lon="10.789310625692178"><ele>286.0</ele><time>2026-03-25T15:02:09Z</time></trkpt><trkpt lat="44.48081721292843" lon="10.789216060575107"><ele>286.0</ele><time>2026-03-25T15:02:12Z</time></trkpt><trkpt lat="44.48078409312382" lon="10.789130757647685"><ele>285.99999999999994</ele><time>2026-03-25T15:02:15Z</time></trkpt><trkpt lat="44.48073571296702" lon="10.78906318311497"><ele>286.0</ele><time>2026-03-25T15:02:18Z</time></trkpt><trkpt lat="44.480686272993225" lon="10.788995035976928"><ele>287.4285714285714</ele><time>2026-03-25T15:02:21Z</time></trkpt><trkpt lat="44.48062841136416" lon="10.788940278975385"><ele>288.85714285714283</ele><time>2026-03-25T15:02:24Z</time></trkpt><trkpt lat="44.48056181490706" lon="10.788914309181044"><ele>290.2857142857143</ele><time>2026-03-25T15:02:27Z</time></trkpt><trkpt lat="44.48049101984806" lon="10.788911969929032"><ele>291.71428571428567</ele><time>2026-03-25T15:02:30Z</time></trkpt><trkpt lat="44.48042270364848" lon="10.788934450086497"><ele>293.1428571428571</ele><time>2026-03-25T15:02:33Z</time></trkpt><trkpt lat="44.48035507533821" lon="10.788968695796635"><ele>294.57142857142856</ele><time>2026-03-25T15:02:36Z</time></trkpt><trkpt lat="44.48029457045461" lon="10.789008743263706"><ele>296.0</ele><time>2026-03-25T15:02:39Z</time></trkpt><trkpt lat="44.48023049245165" lon="10.78903758857215"><ele>297.5</ele><time>2026-03-25T15:02:42Z</time></trkpt><trkpt lat="44.480153767543406" lon="10.789050873732446"><ele>299.0</ele><time>2026-03-25T15:02:45Z</time></trkpt><trkpt lat="44.48008524682194" lon="10.789056704280249"><ele>300.5</ele><time>2026-03-25T15:02:48Z</time></trkpt><trkpt lat="44.48003730744812" lon="10.788971424665338"><ele>302.0</ele><time>2026-03-25T15:02:51Z</time></trkpt><trkpt lat="44.48004960090801" lon="10.788854072189775"><ele>303.5</ele><time>2026-03-25T15:02:54Z</time></trkpt><trkpt lat="44.48006050786419" lon="10.788747327014484"><ele>305.0</ele><time>2026-03-25T15:02:57Z</time></trkpt><trkpt lat="44.480061255582356" lon="10.788640697471497"><ele>305.0</ele><time>2026-03-25T15:03:00Z</time></trkpt><trkpt lat="44.480053965972814" lon="10.7885367520472"><ele>305.0</ele><time>2026-03-25T15:03:03Z</time></trkpt><trkpt lat="44.480047617082406" lon="10.788429335641528"><ele>305.0</ele><time>2026-03-25T15:03:06Z</time></trkpt><trkpt lat="44.480038680808605" lon="10.788321847002681"><ele>305.0</ele><time>2026-03-25T15:03:09Z</time></trkpt><trkpt lat="44.48003739564245" lon="10.78820490534238"><ele>305.0</ele><time>2026-03-25T15:03:12Z</time></trkpt><trkpt lat="44.48004788063149" lon="10.788079697084768"><ele>305.0</ele><time>2026-03-25T15:03:15Z</time></trkpt><trkpt lat="44.480073274427895" lon="10.78796378739028"><ele>306.6666666666667</ele><time>2026-03-25T15:03:18Z</time></trkpt><trkpt lat="44.48011351313651" lon="10.787859811497972"><ele>308.33333333333337</ele><time>2026-03-25T15:03:21Z</time></trkpt><trkpt lat="44.480153231990904" lon="10.787754495526983"><ele>310.0</ele><time>2026-03-25T15:03:24Z</time></trkpt><trkpt lat="44.48018246863048" lon="10.787628530101157"><ele>311.6666666666667</ele><time>2026-03-25T15:03:27Z</time></trkpt><trkpt lat="44.4801744022079" lon="10.787519811850485"><ele>313.3333333333333</ele><time>2026-03-25T15:03:30Z</time></trkpt><trkpt lat="44.48013648205692" lon="10.787421243658311"><ele>315.0</ele><time>2026-03-25T15:03:33Z</time></trkpt><trkpt lat="44.48008551626529" lon="10.78735187384827"><ele>315.57142857142856</ele><time>2026-03-25T15:03:36Z</time></trkpt><trkpt lat="44.48002544465195" lon="10.787308645212041"><ele>316.1428571428571</ele><time>2026-03-25T15:03:39Z</time></trkpt><trkpt lat="44.47996664399166" lon="10.787273424525834"><ele>316.7142857142857</ele><time>2026-03-25T15:03:42Z</time></trkpt><trkpt lat="44.479902742067" lon="10.787268599097896"><ele>317.2857142857143</ele><time>2026-03-25T15:03:45Z</time></trkpt><trkpt lat="44.47982701750424" lon="10.787276575813468"><ele>317.85714285714283</ele><time>2026-03-25T15:03:48Z</time></trkpt><trkpt lat="44.47974433617907" lon="10.787298535166538"><ele>318.42857142857144</ele><time>2026-03-25T15:03:51Z</time></trkpt><trkpt lat="44.479668765694804" lon="10.787321193789955"><ele>319.0</ele><time>2026-03-25T15:03:54Z</time></trkpt><trkpt lat="44.47959311627537" lon="10.787332903235303"><ele>320.7142857142857</ele><time>2026-03-25T15:03:57Z</time></trkpt><trkpt lat="44.47952146507614" lon="10.787336994440576"><ele>322.4285714285714</ele><time>2026-03-25T15:04:00Z</time></trkpt><trkpt lat="44.47945430229799" lon="10.787342638450856"><ele>324.1428571428571</ele><time>2026-03-25T15:04:03Z</time></trkpt><trkpt lat="44.479391715529175" lon="10.787372842925807"><ele>325.8571428571429</ele><time>2026-03-25T15:04:06Z</time></trkpt><trkpt lat="44.47934083140098" lon="10.787443381203431"><ele>327.57142857142856</ele><time>2026-03-25T15:04:09Z</time></trkpt><trkpt lat="44.47932579211853" lon="10.78754778222819"><ele>329.2857142857143</ele><time>2026-03-25T15:04:12Z</time></trkpt><trkpt lat="44.47933524716794" lon="10.787651178384923"><ele>331.0</ele><time>2026-03-25T15:04:15Z</time></trkpt><trkpt lat="44.47932831400741" lon="10.787747288331117"><ele>331.0</ele><time>2026-03-25T15:04:18Z</time></trkpt><trkpt lat="44.47931561712201" lon="10.787842447619783"><ele>331.0</ele><time>2026-03-25T15:04:21Z</time></trkpt><trkpt lat="44.479293305825784" lon="10.787931756622712"><ele>331.0</ele><time>2026-03-25T15:04:24Z</time></trkpt><trkpt lat="44.47926030208641" lon="10.788014644076686"><ele>331.0</ele><time>2026-03-25T15:04:27Z</time></trkpt><trkpt lat="44.47921339227589" lon="10.788097151376771"><ele>331.0</ele><time>2026-03-25T15:04:30Z</time></trkpt><trkpt lat="44.479164982466024" lon="10.788175246390006"><ele>331.0</ele><time>2026-03-25T15:04:33Z</time></trkpt><trkpt lat="44.4791189719413" lon="10.788246143863713"><ele>331.0</ele><time>2026-03-25T15:04:36Z</time></trkpt><trkpt lat="44.479075625349864" lon="10.788320455984481"><ele>331.0</ele><time>2026-03-25T15:04:39Z</time></trkpt><trkpt lat="44.47903026296717" lon="10.788388320062928"><ele>331.0</ele><time>2026-03-25T15:04:42Z</time></trkpt><trkpt lat="44.478981348124826" lon="10.788463591699587"><ele>331.0</ele><time>2026-03-25T15:04:45Z</time></trkpt><trkpt lat="44.47891756865621" lon="10.788511354264173"><ele>331.0</ele><time>2026-03-25T15:04:48Z</time></trkpt><trkpt lat="44.47884242950806" lon="10.788522424672504"><ele>331.0</ele><time>2026-03-25T15:04:51Z</time></trkpt><trkpt lat="44.47877524488126" lon="10.788486393030709"><ele>331.0</ele><time>2026-03-25T15:04:54Z</time></trkpt><trkpt lat="44.47870801015595" lon="10.788430932913007"><ele>331.0</ele><time>2026-03-25T15:04:57Z</time></trkpt><trkpt lat="44.47865134054912" lon="10.78838127537109"><ele>331.2857142857143</ele><time>2026-03-25T15:05:00Z</time></trkpt><trkpt lat="44.4785923420395" lon="10.788346035744333"><ele>331.57142857142856</ele><time>2026-03-25T15:05:03Z</time></trkpt><trkpt lat="44.478527819246516" lon="10.788328310426248"><ele>331.8571428571429</ele><time>2026-03-25T15:05:06Z</time></trkpt><trkpt lat="44.478452464542634" lon="10.788303993972967"><ele>332.1428571428571</ele><time>2026-03-25T15:05:10Z</time></trkpt><trkpt lat="44.478378579242055" lon="10.788268934842456"><ele>332.4285714285714</ele><time>2026-03-25T15:05:14Z</time></trkpt><trkpt lat="44.47831778450176" lon="10.788237142435309"><ele>332.7142857142857</ele><time>2026-03-25T15:05:17Z</time></trkpt><trkpt lat="44.47823614252954" lon="10.788205641507927"><ele>333.0</ele><time>2026-03-25T15:05:21Z</time></trkpt><trkpt lat="44.47818937045875" lon="10.788134908423075"><ele>333.0</ele><time>2026-03-25T15:05:24Z</time></trkpt><trkpt lat="44.47817887876468" lon="10.7880449512984"><ele>333.0</ele><time>2026-03-25T15:05:27Z</time></trkpt><trkpt lat="44.478216363296895" lon="10.787970428772454"><ele>333.0</ele><time>2026-03-25T15:05:30Z</time></trkpt><trkpt lat="44.47827905807129" lon="10.78792595808222"><ele>333.0</ele><time>2026-03-25T15:05:33Z</time></trkpt><trkpt lat="44.4783503201545" lon="10.787928136893484"><ele>333.0</ele><time>2026-03-25T15:05:36Z</time></trkpt><trkpt lat="44.47841815701701" lon="10.787891618859163"><ele>333.0</ele><time>2026-03-25T15:05:40Z</time></trkpt><trkpt lat="44.4784734953237" lon="10.787847923069261"><ele>333.0</ele><time>2026-03-25T15:05:43Z</time></trkpt><trkpt lat="44.47851677402179" lon="10.787777872079142"><ele>335.0</ele><time>2026-03-25T15:05:46Z</time></trkpt><trkpt lat="44.478532881921524" lon="10.787673856926606"><ele>337.0</ele><time>2026-03-25T15:05:49Z</time></trkpt><trkpt lat="44.478521991525135" lon="10.787577418378163"><ele>339.0</ele><time>2026-03-25T15:05:52Z</time></trkpt><trkpt lat="44.478486882697766" lon="10.787482731796333"><ele>341.0</ele><time>2026-03-25T15:05:55Z</time></trkpt><trkpt lat="44.478461022152366" lon="10.787396750115926"><ele>343.0</ele><time>2026-03-25T15:05:58Z</time></trkpt><trkpt lat="44.478436945959515" lon="10.787312842796645"><ele>345.0</ele><time>2026-03-25T15:06:01Z</time></trkpt><trkpt lat="44.47839282245514" lon="10.7872152148346"><ele>347.0</ele><time>2026-03-25T15:06:05Z</time></trkpt><trkpt lat="44.47836487629356" lon="10.787125604185785"><ele>347.0</ele><time>2026-03-25T15:06:08Z</time></trkpt><trkpt lat="44.47832411907352" lon="10.787025857218909"><ele>347.0</ele><time>2026-03-25T15:06:12Z</time></trkpt><trkpt lat="44.47829363778342" lon="10.786948086465074"><ele>347.0</ele><time>2026-03-25T15:06:15Z</time></trkpt><trkpt lat="44.47824505878875" lon="10.786855284088508"><ele>347.0</ele><time>2026-03-25T15:06:19Z</time></trkpt><trkpt lat="44.47820078039108" lon="10.78678466897201"><ele>347.0</ele><time>2026-03-25T15:06:22Z</time></trkpt><trkpt lat="44.47815420832262" lon="10.786721143991329"><ele>347.0</ele><time>2026-03-25T15:06:25Z</time></trkpt><trkpt lat="44.478091663620674" lon="10.786667292989614"><ele>347.0</ele><time>2026-03-25T15:06:28Z</time></trkpt><trkpt lat="44.47803330437205" lon="10.786608002582092"><ele>347.14285714285717</ele><time>2026-03-25T15:06:31Z</time></trkpt><trkpt lat="44.47798165779461" lon="10.786537920653126"><ele>347.2857142857143</ele><time>2026-03-25T15:06:34Z</time></trkpt><trkpt lat="44.47792606566601" lon="10.78647744605818"><ele>347.42857142857144</ele><time>2026-03-25T15:06:37Z</time></trkpt><trkpt lat="44.47788474089138" lon="10.786399347133026"><ele>347.57142857142856</ele><time>2026-03-25T15:06:40Z</time></trkpt><trkpt lat="44.477839359572094" lon="10.786331352113844"><ele>347.7142857142857</ele><time>2026-03-25T15:06:43Z</time></trkpt><trkpt lat="44.47777361743909" lon="10.786265498281278"><ele>347.85714285714283</ele><time>2026-03-25T15:06:47Z</time></trkpt><trkpt lat="44.47771669691922" lon="10.786205204548715"><ele>348.0</ele><time>2026-03-25T15:06:51Z</time></trkpt><trkpt lat="44.47765462243371" lon="10.786143890485942"><ele>349.7142857142857</ele><time>2026-03-25T15:06:55Z</time></trkpt><trkpt lat="44.47758900788711" lon="10.786083319182463"><ele>351.42857142857144</ele><time>2026-03-25T15:07:00Z</time></trkpt><trkpt lat="44.477538235221225" lon="10.786010680959626"><ele>353.1428571428571</ele><time>2026-03-25T15:07:04Z</time></trkpt><trkpt lat="44.47748251160893" lon="10.785950385095587"><ele>354.8571428571429</ele><time>2026-03-25T15:07:08Z</time></trkpt><trkpt lat="44.477442391452115" lon="10.785845535654149"><ele>356.5714285714286</ele><time>2026-03-25T15:07:12Z</time></trkpt><trkpt lat="44.47741969115151" lon="10.785762705025332"><ele>358.2857142857143</ele><time>2026-03-25T15:07:15Z</time></trkpt><trkpt lat="44.47741021870589" lon="10.785673067365513"><ele>360.0</ele><time>2026-03-25T15:07:18Z</time></trkpt><trkpt lat="44.47739580009188" lon="10.78557891573315"><ele>361.85714285714283</ele><time>2026-03-25T15:07:21Z</time></trkpt><trkpt lat="44.47741177912983" lon="10.785492149021742"><ele>363.7142857142857</ele><time>2026-03-25T15:07:24Z</time></trkpt><trkpt lat="44.47744644822673" lon="10.785409672706308"><ele>365.57142857142856</ele><time>2026-03-25T15:07:27Z</time></trkpt><trkpt lat="44.47749815596816" lon="10.785349915123533"><ele>367.42857142857144</ele><time>2026-03-25T15:07:30Z</time></trkpt><trkpt lat="44.47755442436402" lon="10.78530159474889"><ele>369.28571428571433</ele><time>2026-03-25T15:07:33Z</time></trkpt><trkpt lat="44.4776156851108" lon="10.785272851936691"><ele>371.14285714285717</ele><time>2026-03-25T15:07:36Z</time></trkpt><trkpt lat="44.47767995867336" lon="10.785233266998107"><ele>373.0</ele><time>2026-03-25T15:07:39Z</time></trkpt><trkpt lat="44.47775598950871" lon="10.785214512230123"><ele>373.0</ele><time>2026-03-25T15:07:43Z</time></trkpt><trkpt lat="44.47783519632087" lon="10.78518033488772"><ele>373.0</ele><time>2026-03-25T15:07:47Z</time></trkpt><trkpt lat="44.47789868157603" lon="10.785172869547814"><ele>373.0</ele><time>2026-03-25T15:07:50Z</time></trkpt><trkpt lat="44.4779787677613" lon="10.785169627298727"><ele>373.0</ele><time>2026-03-25T15:07:54Z</time></trkpt><trkpt lat="44.478063370762506" lon="10.785178687999"><ele>373.0</ele><time>2026-03-25T15:07:58Z</time></trkpt><trkpt lat="44.478124829830946" lon="10.7851588632776"><ele>373.0</ele><time>2026-03-25T15:08:01Z</time></trkpt><trkpt lat="44.478153929377434" lon="10.78507953697424"><ele>373.0</ele><time>2026-03-25T15:08:04Z</time></trkpt><trkpt lat="44.478131209065936" lon="10.78498449610886"><ele>374.0</ele><time>2026-03-25T15:08:07Z</time></trkpt><trkpt lat="44.47808016719103" lon="10.784920491526622"><ele>375.0</ele><time>2026-03-25T15:08:10Z</time></trkpt><trkpt lat="44.47800773994797" lon="10.784874153893282"><ele>376.0</ele><time>2026-03-25T15:08:14Z</time></trkpt><trkpt lat="44.47794269137473" lon="10.784836549789944"><ele>377.0</ele><time>2026-03-25T15:08:18Z</time></trkpt><trkpt lat="44.47787723685329" lon="10.784790233347065"><ele>378.0</ele><time>2026-03-25T15:08:22Z</time></trkpt><trkpt lat="44.47781273491026" lon="10.784746626312186"><ele>379.0</ele><time>2026-03-25T15:08:26Z</time></trkpt><trkpt lat="44.47773948544074" lon="10.784721166534375"><ele>380.0</ele><time>2026-03-25T15:08:30Z</time></trkpt><trkpt lat="44.477666914946724" lon="10.784694870515919"><ele>381.7142857142857</ele><time>2026-03-25T15:08:34Z</time></trkpt><trkpt lat="44.47760221251109" lon="10.784663759909224"><ele>383.42857142857144</ele><time>2026-03-25T15:08:38Z</time></trkpt><trkpt lat="44.47753716388518" lon="10.784673099623923"><ele>385.1428571428571</ele><time>2026-03-25T15:08:41Z</time></trkpt><trkpt lat="44.47747864938913" lon="10.784630703853304"><ele>386.8571428571429</ele><time>2026-03-25T15:08:44Z</time></trkpt><trkpt lat="44.477419850911" lon="10.784598822811667"><ele>388.57142857142856</ele><time>2026-03-25T15:08:47Z</time></trkpt><trkpt lat="44.47736455163339" lon="10.784548949823021"><ele>390.2857142857143</ele><time>2026-03-25T15:08:50Z</time></trkpt><trkpt lat="44.477294351133224" lon="10.784494988889032"><ele>392.0</ele><time>2026-03-25T15:08:53Z</time></trkpt><trkpt lat="44.47723909627215" lon="10.784431889768053"><ele>392.0</ele><time>2026-03-25T15:08:56Z</time></trkpt><trkpt lat="44.477180956484766" lon="10.784375570875659"><ele>392.0</ele><time>2026-03-25T15:08:59Z</time></trkpt><trkpt lat="44.47711037626793" lon="10.784351457968933"><ele>392.0</ele><time>2026-03-25T15:09:02Z</time></trkpt><trkpt lat="44.47704239942312" lon="10.784342378595843"><ele>392.0</ele><time>2026-03-25T15:09:05Z</time></trkpt><trkpt lat="44.47697649918653" lon="10.784345032071068"><ele>392.0</ele><time>2026-03-25T15:09:08Z</time></trkpt><trkpt lat="44.47691418562336" lon="10.784372946622105"><ele>392.0</ele><time>2026-03-25T15:09:11Z</time></trkpt><trkpt lat="44.47684552142781" lon="10.784374620541511"><ele>392.0</ele><time>2026-03-25T15:09:14Z</time></trkpt><trkpt lat="44.476781300340555" lon="10.784346613570108"><ele>394.7142857142857</ele><time>2026-03-25T15:09:17Z</time></trkpt><trkpt lat="44.47672619782538" lon="10.784282632313582"><ele>397.42857142857144</ele><time>2026-03-25T15:09:20Z</time></trkpt><trkpt lat="44.476698623812304" lon="10.784195976666856"><ele>400.1428571428571</ele><time>2026-03-25T15:09:23Z</time></trkpt><trkpt lat="44.4766880273783" lon="10.784094732168745"><ele>402.8571428571429</ele><time>2026-03-25T15:09:26Z</time></trkpt><trkpt lat="44.47664435572246" lon="10.78401694929668"><ele>405.57142857142856</ele><time>2026-03-25T15:09:29Z</time></trkpt><trkpt lat="44.476588518375756" lon="10.78395729617863"><ele>408.2857142857143</ele><time>2026-03-25T15:09:32Z</time></trkpt><trkpt lat="44.47652860079204" lon="10.783921493777354"><ele>411.0</ele><time>2026-03-25T15:09:35Z</time></trkpt><trkpt lat="44.47646134465444" lon="10.783895812177846"><ele>411.0</ele><time>2026-03-25T15:09:38Z</time></trkpt><trkpt lat="44.47639182079606" lon="10.783885097037427"><ele>411.0</ele><time>2026-03-25T15:09:41Z</time></trkpt><trkpt lat="44.47630806459204" lon="10.783868119345412"><ele>411.0</ele><time>2026-03-25T15:09:45Z</time></trkpt><trkpt lat="44.47624135565952" lon="10.783873623855085"><ele>411.0</ele><time>2026-03-25T15:09:48Z</time></trkpt><trkpt lat="44.47617275344209" lon="10.783901841530797"><ele>411.0</ele><time>2026-03-25T15:09:51Z</time></trkpt><trkpt lat="44.47611767428713" lon="10.783955264619019"><ele>411.0</ele><time>2026-03-25T15:09:54Z</time></trkpt><trkpt lat="44.476053664583674" lon="10.783960061773268"><ele>411.0</ele><time>2026-03-25T15:09:57Z</time></trkpt><trkpt lat="44.47597335498995" lon="10.783940620825138"><ele>412.8333333333333</ele><time>2026-03-25T15:10:01Z</time></trkpt><trkpt lat="44.475909354675416" lon="10.783912192887238"><ele>414.66666666666663</ele><time>2026-03-25T15:10:04Z</time></trkpt><trkpt lat="44.475847681947904" lon="10.783876226109472"><ele>416.5</ele><time>2026-03-25T15:10:07Z</time></trkpt><trkpt lat="44.47577145917054" lon="10.783829695658037"><ele>418.3333333333333</ele><time>2026-03-25T15:10:11Z</time></trkpt><trkpt lat="44.4757031042664" lon="10.783785049721661"><ele>420.16666666666663</ele><time>2026-03-25T15:10:15Z</time></trkpt><trkpt lat="44.47563806926105" lon="10.783719082886936"><ele>422.0</ele><time>2026-03-25T15:10:19Z</time></trkpt><trkpt lat="44.47558380057466" lon="10.783622431751619"><ele>422.0</ele><time>2026-03-25T15:10:23Z</time></trkpt><trkpt lat="44.47555364448047" lon="10.783532990566103"><ele>422.0</ele><time>2026-03-25T15:10:26Z</time></trkpt><trkpt lat="44.47552151992426" lon="10.783456337021557"><ele>422.0</ele><time>2026-03-25T15:10:29Z</time></trkpt><trkpt lat="44.47547435417872" lon="10.783385439013077"><ele>422.0</ele><time>2026-03-25T15:10:32Z</time></trkpt><trkpt lat="44.47541183378269" lon="10.783321789862278"><ele>422.0</ele><time>2026-03-25T15:10:35Z</time></trkpt><trkpt lat="44.47534602182833" lon="10.783242581932388"><ele>422.0</ele><time>2026-03-25T15:10:39Z</time></trkpt><trkpt lat="44.47529430036193" lon="10.783178198061858"><ele>422.0</ele><time>2026-03-25T15:10:42Z</time></trkpt><trkpt lat="44.47526496776316" lon="10.783084772619917"><ele>424.42857142857144</ele><time>2026-03-25T15:10:45Z</time></trkpt><trkpt lat="44.475234382955655" lon="10.782995727771155"><ele>426.8571428571429</ele><time>2026-03-25T15:10:48Z</time></trkpt><trkpt lat="44.475213042549235" lon="10.78289249798716"><ele>429.2857142857143</ele><time>2026-03-25T15:10:51Z</time></trkpt><trkpt lat="44.47521315728471" lon="10.78279486617382"><ele>431.7142857142857</ele><time>2026-03-25T15:10:54Z</time></trkpt><trkpt lat="44.47518975035299" lon="10.782698732464182"><ele>434.1428571428571</ele><time>2026-03-25T15:10:57Z</time></trkpt><trkpt lat="44.47517579439246" lon="10.782598444317845"><ele>436.57142857142856</ele><time>2026-03-25T15:11:00Z</time></trkpt><trkpt lat="44.47515215638225" lon="10.782496132015668"><ele>439.0</ele><time>2026-03-25T15:11:03Z</time></trkpt><trkpt lat="44.47512299070733" lon="10.78239738000152"><ele>440.1666666666667</ele><time>2026-03-25T15:11:06Z</time></trkpt><trkpt lat="44.47509426064015" lon="10.782297197416899"><ele>441.33333333333337</ele><time>2026-03-25T15:11:09Z</time></trkpt><trkpt lat="44.47507168537436" lon="10.782197107174015"><ele>442.5</ele><time>2026-03-25T15:11:12Z</time></trkpt><trkpt lat="44.47507108406848" lon="10.782088792808059"><ele>443.66666666666663</ele><time>2026-03-25T15:11:15Z</time></trkpt><trkpt lat="44.47509364722182" lon="10.781987352017392"><ele>444.8333333333333</ele><time>2026-03-25T15:11:18Z</time></trkpt><trkpt lat="44.47512233436164" lon="10.781889154209344"><ele>446.0</ele><time>2026-03-25T15:11:21Z</time></trkpt><trkpt lat="44.475159157684345" lon="10.78179937782024"><ele>447.66666666666663</ele><time>2026-03-25T15:11:24Z</time></trkpt><trkpt lat="44.4751912746501" lon="10.781698542377159"><ele>449.3333333333333</ele><time>2026-03-25T15:11:27Z</time></trkpt><trkpt lat="44.475227474776105" lon="10.78160065788711"><ele>451.0</ele><time>2026-03-25T15:11:30Z</time></trkpt><trkpt lat="44.47525888925152" lon="10.781501486843297"><ele>452.66666666666663</ele><time>2026-03-25T15:11:33Z</time></trkpt><trkpt lat="44.475291406811415" lon="10.781402066556039"><ele>454.3333333333333</ele><time>2026-03-25T15:11:36Z</time></trkpt><trkpt lat="44.4753216973689" lon="10.781296752493942"><ele>456.0</ele><time>2026-03-25T15:11:39Z</time></trkpt><trkpt lat="44.47535058656967" lon="10.781198469787915"><ele>456.0</ele><time>2026-03-25T15:11:42Z</time></trkpt><trkpt lat="44.47536826332109" lon="10.78109931851827"><ele>456.0</ele><time>2026-03-25T15:11:45Z</time></trkpt><trkpt lat="44.475377995351295" lon="10.780995570108681"><ele>456.0</ele><time>2026-03-25T15:11:48Z</time></trkpt><trkpt lat="44.47538714568438" lon="10.780887298329375"><ele>456.0</ele><time>2026-03-25T15:11:51Z</time></trkpt><trkpt lat="44.475374792419125" lon="10.780777527902902"><ele>456.0</ele><time>2026-03-25T15:11:54Z</time></trkpt><trkpt lat="44.47535689739479" lon="10.780683564635941"><ele>456.0</ele><time>2026-03-25T15:11:57Z</time></trkpt><trkpt lat="44.47532758097238" lon="10.78058410470732"><ele>457.2857142857143</ele><time>2026-03-25T15:12:00Z</time></trkpt><trkpt lat="44.47529294969695" lon="10.780485455229737"><ele>458.57142857142856</ele><time>2026-03-25T15:12:03Z</time></trkpt><trkpt lat="44.475261706191326" lon="10.780396593011373"><ele>459.85714285714283</ele><time>2026-03-25T15:12:06Z</time></trkpt><trkpt lat="44.47524077707275" lon="10.780302373107821"><ele>461.1428571428571</ele><time>2026-03-25T15:12:09Z</time></trkpt><trkpt lat="44.475221734365704" lon="10.780207260014597"><ele>462.42857142857144</ele><time>2026-03-25T15:12:12Z</time></trkpt><trkpt lat="44.47522069651264" lon="10.780098299904921"><ele>463.71428571428567</ele><time>2026-03-25T15:12:15Z</time></trkpt><trkpt lat="44.47523676591903" lon="10.7799948605532"><ele>465.0</ele><time>2026-03-25T15:12:18Z</time></trkpt><trkpt lat="44.47526329865405" lon="10.779896675200979"><ele>465.8333333333333</ele><time>2026-03-25T15:12:21Z</time></trkpt><trkpt lat="44.475301497534126" lon="10.779811999553246"><ele>466.66666666666663</ele><time>2026-03-25T15:12:24Z</time></trkpt><trkpt lat="44.47535906200039" lon="10.77973230442613"><ele>467.5</ele><time>2026-03-25T15:12:27Z</time></trkpt><trkpt lat="44.475418041644055" lon="10.779663379725516"><ele>468.3333333333333</ele><time>2026-03-25T15:12:30Z</time></trkpt><trkpt lat="44.47547888515581" lon="10.779597613111287"><ele>469.16666666666663</ele><time>2026-03-25T15:12:33Z</time></trkpt><trkpt lat="44.47554293244693" lon="10.779549344632718"><ele>470.0</ele><time>2026-03-25T15:12:36Z</time></trkpt><trkpt lat="44.47561498127164" lon="10.779499988944181"><ele>470.8333333333333</ele><time>2026-03-25T15:12:39Z</time></trkpt><trkpt lat="44.475688689588935" lon="10.77945634339082"><ele>471.66666666666663</ele><time>2026-03-25T15:12:42Z</time></trkpt><trkpt lat="44.475753975547796" lon="10.779403630480505"><ele>472.5</ele><time>2026-03-25T15:12:45Z</time></trkpt><trkpt lat="44.475816411966505" lon="10.77934099915313"><ele>473.33333333333337</ele><time>2026-03-25T15:12:48Z</time></trkpt><trkpt lat="44.47588380958215" lon="10.779281465083088"><ele>474.1666666666667</ele><time>2026-03-25T15:12:51Z</time></trkpt><trkpt lat="44.475940346771374" lon="10.77921526281031"><ele>475.0</ele><time>2026-03-25T15:12:54Z</time></trkpt><trkpt lat="44.475995102834865" lon="10.779141251020306"><ele>475.0</ele><time>2026-03-25T15:12:57Z</time></trkpt><trkpt lat="44.476046087637954" lon="10.77906239160938"><ele>475.00000000000006</ele><time>2026-03-25T15:13:00Z</time></trkpt><trkpt lat="44.476101159493076" lon="10.778984623946993"><ele>475.0</ele><time>2026-03-25T15:13:03Z</time></trkpt><trkpt lat="44.47614603600265" lon="10.778907537179814"><ele>475.0</ele><time>2026-03-25T15:13:06Z</time></trkpt><trkpt lat="44.476195498018726" lon="10.778829504536004"><ele>475.00000000000006</ele><time>2026-03-25T15:13:09Z</time></trkpt><trkpt lat="44.476247353866455" lon="10.778753272568826"><ele>475.0</ele><time>2026-03-25T15:13:12Z</time></trkpt><trkpt lat="44.47629325366437" lon="10.778677879203896"><ele>475.0</ele><time>2026-03-25T15:13:15Z</time></trkpt><trkpt lat="44.47630411268155" lon="10.778571704680967"><ele>475.33333333333337</ele><time>2026-03-25T15:13:18Z</time></trkpt><trkpt lat="44.47627729973336" lon="10.778481501980819"><ele>475.6666666666667</ele><time>2026-03-25T15:13:21Z</time></trkpt><trkpt lat="44.47620463172362" lon="10.778422734589078"><ele>476.0</ele><time>2026-03-25T15:13:24Z</time></trkpt><trkpt lat="44.47613206452693" lon="10.778411995429291"><ele>476.33333333333337</ele><time>2026-03-25T15:13:27Z</time></trkpt><trkpt lat="44.47605414579538" lon="10.77841727749667"><ele>476.6666666666667</ele><time>2026-03-25T15:13:30Z</time></trkpt><trkpt lat="44.475979097726245" lon="10.778409748163087"><ele>477.0</ele><time>2026-03-25T15:13:33Z</time></trkpt><trkpt lat="44.47590478057539" lon="10.778409609950165"><ele>478.3333333333333</ele><time>2026-03-25T15:13:36Z</time></trkpt><trkpt lat="44.475833546714085" lon="10.77840589667531"><ele>479.66666666666663</ele><time>2026-03-25T15:13:39Z</time></trkpt><trkpt lat="44.47576265883866" lon="10.778371895368162"><ele>481.0</ele><time>2026-03-25T15:13:42Z</time></trkpt><trkpt lat="44.47572104214506" lon="10.778288763073522"><ele>482.3333333333333</ele><time>2026-03-25T15:13:45Z</time></trkpt><trkpt lat="44.475720709502625" lon="10.7781859702544"><ele>483.66666666666663</ele><time>2026-03-25T15:13:48Z</time></trkpt><trkpt lat="44.47579228039985" lon="10.77811730028809"><ele>485.0</ele><time>2026-03-25T15:13:51Z</time></trkpt><trkpt lat="44.47586334192505" lon="10.7780834358324"><ele>485.00000000000006</ele><time>2026-03-25T15:13:54Z</time></trkpt><trkpt lat="44.47592229831006" lon="10.778022129466633"><ele>485.0</ele><time>2026-03-25T15:13:57Z</time></trkpt><trkpt lat="44.47596600235056" lon="10.7779439075422"><ele>485.00000000000006</ele><time>2026-03-25T15:14:00Z</time></trkpt><trkpt lat="44.47598786928526" lon="10.777849660585519"><ele>485.00000000000006</ele><time>2026-03-25T15:14:03Z</time></trkpt><trkpt lat="44.475981259228455" lon="10.777752769483747"><ele>485.0</ele><time>2026-03-25T15:14:06Z</time></trkpt><trkpt lat="44.47595315153907" lon="10.777657780309934"><ele>485.00000000000006</ele><time>2026-03-25T15:14:09Z</time></trkpt><trkpt lat="44.47591978152539" lon="10.77757985608061"><ele>485.00000000000006</ele><time>2026-03-25T15:14:12Z</time></trkpt><trkpt lat="44.47589251377886" lon="10.777491394749568"><ele>486.28571428571433</ele><time>2026-03-25T15:14:15Z</time></trkpt><trkpt lat="44.47586297577627" lon="10.777413058296649"><ele>487.57142857142856</ele><time>2026-03-25T15:14:18Z</time></trkpt><trkpt lat="44.47582623352365" lon="10.777332740717085"><ele>488.8571428571429</ele><time>2026-03-25T15:14:21Z</time></trkpt><trkpt lat="44.475779111526656" lon="10.777233396860773"><ele>490.14285714285717</ele><time>2026-03-25T15:14:25Z</time></trkpt><trkpt lat="44.47574389419297" lon="10.777158162301651"><ele>491.42857142857144</ele><time>2026-03-25T15:14:28Z</time></trkpt><trkpt lat="44.47571149279551" lon="10.777080050463677"><ele>492.7142857142857</ele><time>2026-03-25T15:14:32Z</time></trkpt><trkpt lat="44.47575811887285" lon="10.776998411319578"><ele>494.0</ele><time>2026-03-25T15:14:39Z</time></trkpt><trkpt lat="44.47582570173385" lon="10.776974132152297"><ele>494.0</ele><time>2026-03-25T15:14:44Z</time></trkpt><trkpt lat="44.475862895811105" lon="10.776890229616045"><ele>494.0</ele><time>2026-03-25T15:17:12Z</time></trkpt><trkpt lat="44.4759065486754" lon="10.77681669291012"><ele>494.0</ele><time>2026-03-25T15:17:17Z</time></trkpt><trkpt lat="44.47596124635443" lon="10.776753988076125"><ele>494.0</ele><time>2026-03-25T15:17:22Z</time></trkpt><trkpt lat="44.476033862880264" lon="10.776715295749923"><ele>494.0</ele><time>2026-03-25T15:17:29Z</time></trkpt><trkpt lat="44.476090677783546" lon="10.77665521759662"><ele>494.0</ele><time>2026-03-25T15:18:02Z</time></trkpt><trkpt lat="44.476147944301985" lon="10.776582115441927"><ele>494.0</ele><time>2026-03-25T15:18:05Z</time></trkpt><trkpt lat="44.476192426122566" lon="10.776482814677712"><ele>494.49999999999994</ele><time>2026-03-25T15:18:08Z</time></trkpt><trkpt lat="44.4762562965334" lon="10.77638833379739"><ele>495.0</ele><time>2026-03-25T15:18:11Z</time></trkpt><trkpt lat="44.47631155283049" lon="10.776292100903254"><ele>495.5</ele><time>2026-03-25T15:18:14Z</time></trkpt><trkpt lat="44.47637144806384" lon="10.776204697772888"><ele>496.0</ele><time>2026-03-25T15:18:17Z</time></trkpt><trkpt lat="44.47641191454575" lon="10.776135719913189"><ele>496.49999999999994</ele><time>2026-03-25T15:18:19Z</time></trkpt><trkpt lat="44.476452471283906" lon="10.776067306211083"><ele>497.0</ele><time>2026-03-25T15:18:21Z</time></trkpt><trkpt lat="44.47649063791016" lon="10.775995688734582"><ele>497.7142857142857</ele><time>2026-03-25T15:18:23Z</time></trkpt><trkpt lat="44.4765301366362" lon="10.775920526563063"><ele>498.42857142857144</ele><time>2026-03-25T15:18:25Z</time></trkpt><trkpt lat="44.47655557585795" lon="10.775828614353596"><ele>499.1428571428571</ele><time>2026-03-25T15:18:27Z</time></trkpt><trkpt lat="44.47659908815518" lon="10.775735435223481"><ele>499.85714285714283</ele><time>2026-03-25T15:18:30Z</time></trkpt><trkpt lat="44.47665432623966" lon="10.77568085202153"><ele>500.57142857142856</ele><time>2026-03-25T15:18:34Z</time></trkpt><trkpt lat="44.47672804461192" lon="10.775628826029491"><ele>501.2857142857142</ele><time>2026-03-25T15:18:37Z</time></trkpt><trkpt lat="44.476790306538945" lon="10.775565922108008"><ele>501.99999999999994</ele><time>2026-03-25T15:18:39Z</time></trkpt><trkpt lat="44.47686661447664" lon="10.775485708569835"><ele>502.0</ele><time>2026-03-25T15:18:41Z</time></trkpt><trkpt lat="44.47695552286194" lon="10.775402507835123"><ele>502.00000000000006</ele><time>2026-03-25T15:18:43Z</time></trkpt><trkpt lat="44.47704821907395" lon="10.775316973975436"><ele>502.00000000000006</ele><time>2026-03-25T15:18:45Z</time></trkpt><trkpt lat="44.477139526422704" lon="10.77523462531599"><ele>502.0</ele><time>2026-03-25T15:18:47Z</time></trkpt><trkpt lat="44.47722957206085" lon="10.775156678447129"><ele>502.0</ele><time>2026-03-25T15:18:49Z</time></trkpt><trkpt lat="44.47731490362258" lon="10.775088478498684"><ele>501.00000000000006</ele><time>2026-03-25T15:18:51Z</time></trkpt><trkpt lat="44.47738608236615" lon="10.775015781212883"><ele>500.0</ele><time>2026-03-25T15:18:53Z</time></trkpt><trkpt lat="44.47744752192142" lon="10.774936509456163"><ele>499.0</ele><time>2026-03-25T15:18:55Z</time></trkpt><trkpt lat="44.477502544158064" lon="10.77484926789868"><ele>498.0</ele><time>2026-03-25T15:18:57Z</time></trkpt><trkpt lat="44.477554235445595" lon="10.774749053523012"><ele>497.00000000000006</ele><time>2026-03-25T15:18:59Z</time></trkpt><trkpt lat="44.47760106449827" lon="10.774643392414804"><ele>496.0</ele><time>2026-03-25T15:19:01Z</time></trkpt><trkpt lat="44.47764277781144" lon="10.77453627339212"><ele>496.00000000000006</ele><time>2026-03-25T15:19:03Z</time></trkpt><trkpt lat="44.477689496447056" lon="10.774431468197765"><ele>496.0</ele><time>2026-03-25T15:19:05Z</time></trkpt><trkpt lat="44.47772565716648" lon="10.774321501596727"><ele>496.0</ele><time>2026-03-25T15:19:07Z</time></trkpt><trkpt lat="44.47777567664523" lon="10.774232177579174"><ele>496.0</ele><time>2026-03-25T15:19:09Z</time></trkpt><trkpt lat="44.47782031817215" lon="10.774145387910407"><ele>496.00000000000006</ele><time>2026-03-25T15:19:11Z</time></trkpt><trkpt lat="44.47786705139336" lon="10.774077095132979"><ele>496.0</ele><time>2026-03-25T15:19:13Z</time></trkpt><trkpt lat="44.47792706311666" lon="10.774016764514032"><ele>496.50000000000006</ele><time>2026-03-25T15:19:15Z</time></trkpt><trkpt lat="44.477988338579706" lon="10.773969397137437"><ele>497.0</ele><time>2026-03-25T15:19:17Z</time></trkpt><trkpt lat="44.47805161415885" lon="10.773925079812162"><ele>497.5</ele><time>2026-03-25T15:19:19Z</time></trkpt><trkpt lat="44.478120557962804" lon="10.773887609177466"><ele>498.0</ele><time>2026-03-25T15:19:21Z</time></trkpt><trkpt lat="44.478204460986" lon="10.77386154662006"><ele>498.50000000000006</ele><time>2026-03-25T15:19:24Z</time></trkpt><trkpt lat="44.47828846072028" lon="10.773858220323277"><ele>499.0</ele><time>2026-03-25T15:19:27Z</time></trkpt><trkpt lat="44.47836761454806" lon="10.773869507172614"><ele>499.00000000000006</ele><time>2026-03-25T15:19:30Z</time></trkpt><trkpt lat="44.47845589199507" lon="10.773921159647267"><ele>499.0</ele><time>2026-03-25T15:19:33Z</time></trkpt><trkpt lat="44.47852043006127" lon="10.77398397975718"><ele>499.0</ele><time>2026-03-25T15:19:35Z</time></trkpt><trkpt lat="44.47855714768054" lon="10.77408937113076"><ele>499.0</ele><time>2026-03-25T15:19:37Z</time></trkpt><trkpt lat="44.4785909427631" lon="10.774185428015622"><ele>499.00000000000006</ele><time>2026-03-25T15:19:39Z</time></trkpt><trkpt lat="44.47862113001666" lon="10.774296847967241"><ele>499.0</ele><time>2026-03-25T15:19:41Z</time></trkpt><trkpt lat="44.478665478882284" lon="10.774406505327226"><ele>499.6</ele><time>2026-03-25T15:19:43Z</time></trkpt><trkpt lat="44.478703675522546" lon="10.774524977819572"><ele>500.2</ele><time>2026-03-25T15:19:45Z</time></trkpt><trkpt lat="44.47873648782452" lon="10.774649173265859"><ele>500.80000000000007</ele><time>2026-03-25T15:19:47Z</time></trkpt><trkpt lat="44.47877635964633" lon="10.774768503238288"><ele>501.40000000000003</ele><time>2026-03-25T15:19:49Z</time></trkpt><trkpt lat="44.47882001164671" lon="10.774881064091604"><ele>502.0</ele><time>2026-03-25T15:19:51Z</time></trkpt><trkpt lat="44.47887287551904" lon="10.774985761587367"><ele>502.00000000000006</ele><time>2026-03-25T15:19:53Z</time></trkpt><trkpt lat="44.47892073178899" lon="10.775087316019082"><ele>502.0</ele><time>2026-03-25T15:19:55Z</time></trkpt><trkpt lat="44.47898218664223" lon="10.775179151122945"><ele>502.0</ele><time>2026-03-25T15:19:57Z</time></trkpt><trkpt lat="44.479048489951566" lon="10.77525522640542"><ele>502.0</ele><time>2026-03-25T15:19:59Z</time></trkpt><trkpt lat="44.47911462827657" lon="10.775313515385946"><ele>502.00000000000006</ele><time>2026-03-25T15:20:01Z</time></trkpt><trkpt lat="44.47918653543898" lon="10.775387603570433"><ele>502.0</ele><time>2026-03-25T15:20:03Z</time></trkpt><trkpt lat="44.479269291148206" lon="10.775444944356558"><ele>500.40000000000003</ele><time>2026-03-25T15:20:05Z</time></trkpt><trkpt lat="44.47935854034846" lon="10.775489483600092"><ele>498.80000000000007</ele><time>2026-03-25T15:20:07Z</time></trkpt><trkpt lat="44.479459188051365" lon="10.775525541432513"><ele>497.2</ele><time>2026-03-25T15:20:09Z</time></trkpt><trkpt lat="44.47956194616686" lon="10.775567026396763"><ele>495.6</ele><time>2026-03-25T15:20:11Z</time></trkpt><trkpt lat="44.479677013001094" lon="10.775600476552725"><ele>494.0</ele><time>2026-03-25T15:20:13Z</time></trkpt><trkpt lat="44.47978943308937" lon="10.77565700550452"><ele>494.0</ele><time>2026-03-25T15:20:15Z</time></trkpt><trkpt lat="44.479849060010174" lon="10.775691026066736"><ele>494.0</ele><time>2026-03-25T15:20:16Z</time></trkpt><trkpt lat="44.47991033808524" lon="10.775732897296994"><ele>494.0</ele><time>2026-03-25T15:20:17Z</time></trkpt><trkpt lat="44.47997053325337" lon="10.775780862979788"><ele>494.0</ele><time>2026-03-25T15:20:18Z</time></trkpt><trkpt lat="44.48002940180505" lon="10.775838577308555"><ele>494.0</ele><time>2026-03-25T15:20:19Z</time></trkpt><trkpt lat="44.4800878747655" lon="10.775900666817742"><ele>494.0</ele><time>2026-03-25T15:20:20Z</time></trkpt><trkpt lat="44.48014573307251" lon="10.77596358687921"><ele>494.0</ele><time>2026-03-25T15:20:21Z</time></trkpt><trkpt lat="44.480202421075106" lon="10.776029531642898"><ele>493.42857142857144</ele><time>2026-03-25T15:20:22Z</time></trkpt><trkpt lat="44.48025830954187" lon="10.77609396002798"><ele>492.85714285714283</ele><time>2026-03-25T15:20:23Z</time></trkpt><trkpt lat="44.48031446606849" lon="10.776156604746754"><ele>492.2857142857143</ele><time>2026-03-25T15:20:24Z</time></trkpt><trkpt lat="44.48037016706816" lon="10.776219615558814"><ele>491.7142857142857</ele><time>2026-03-25T15:20:25Z</time></trkpt><trkpt lat="44.48042884800547" lon="10.776286660989298"><ele>491.1428571428571</ele><time>2026-03-25T15:20:26Z</time></trkpt><trkpt lat="44.48048634027818" lon="10.776348799345918"><ele>490.57142857142856</ele><time>2026-03-25T15:20:27Z</time></trkpt><trkpt lat="44.48054807572437" lon="10.776404205649126"><ele>490.0</ele><time>2026-03-25T15:20:28Z</time></trkpt><trkpt lat="44.48061143465528" lon="10.776458055924548"><ele>490.00000000000006</ele><time>2026-03-25T15:20:29Z</time></trkpt><trkpt lat="44.48067634708633" lon="10.77651071324922"><ele>490.0</ele><time>2026-03-25T15:20:30Z</time></trkpt><trkpt lat="44.48074375144176" lon="10.776564660362185"><ele>490.0</ele><time>2026-03-25T15:20:31Z</time></trkpt><trkpt lat="44.48081528994924" lon="10.776610841051882"><ele>490.0</ele><time>2026-03-25T15:20:32Z</time></trkpt><trkpt lat="44.48088948368145" lon="10.776642948032197"><ele>490.00000000000006</ele><time>2026-03-25T15:20:33Z</time></trkpt><trkpt lat="44.480970228478235" lon="10.776659355731567"><ele>490.0</ele><time>2026-03-25T15:20:34Z</time></trkpt><trkpt lat="44.48104696441963" lon="10.776679128088329"><ele>490.00000000000006</ele><time>2026-03-25T15:20:35Z</time></trkpt><trkpt lat="44.481130741794054" lon="10.776700429537163"><ele>490.0</ele><time>2026-03-25T15:20:36Z</time></trkpt><trkpt lat="44.48121136267108" lon="10.776717521508926"><ele>490.0</ele><time>2026-03-25T15:20:37Z</time></trkpt><trkpt lat="44.48129029993776" lon="10.776736404027687"><ele>490.0</ele><time>2026-03-25T15:20:38Z</time></trkpt><trkpt lat="44.48137331812029" lon="10.776743250694148"><ele>490.00000000000006</ele><time>2026-03-25T15:20:39Z</time></trkpt><trkpt lat="44.48144992714655" lon="10.776743429736348"><ele>490.0</ele><time>2026-03-25T15:20:40Z</time></trkpt><trkpt lat="44.48151536183395" lon="10.77674213911641"><ele>489.83333333333337</ele><time>2026-03-25T15:20:41Z</time></trkpt><trkpt lat="44.48159860395198" lon="10.77673452859339"><ele>489.6666666666667</ele><time>2026-03-25T15:20:43Z</time></trkpt><trkpt lat="44.481664085439256" lon="10.776734141610484"><ele>489.5</ele><time>2026-03-25T15:20:45Z</time></trkpt><trkpt lat="44.481748032706946" lon="10.776713030070706"><ele>489.33333333333337</ele><time>2026-03-25T15:20:48Z</time></trkpt><trkpt lat="44.481854012453226" lon="10.776694670247945"><ele>489.1666666666667</ele><time>2026-03-25T15:20:51Z</time></trkpt><trkpt lat="44.48194938727459" lon="10.776679786060447"><ele>489.0</ele><time>2026-03-25T15:20:53Z</time></trkpt><trkpt lat="44.482054606204535" lon="10.776639277730673"><ele>488.25</ele><time>2026-03-25T15:20:55Z</time></trkpt><trkpt lat="44.48215911166857" lon="10.77659274028123"><ele>487.5</ele><time>2026-03-25T15:20:57Z</time></trkpt><trkpt lat="44.48226531822199" lon="10.776536260589626"><ele>486.75</ele><time>2026-03-25T15:20:59Z</time></trkpt><trkpt lat="44.482378525906725" lon="10.776498076283536"><ele>486.0</ele><time>2026-03-25T15:21:01Z</time></trkpt><trkpt lat="44.48249301652237" lon="10.776440920869316"><ele>486.0</ele><time>2026-03-25T15:21:03Z</time></trkpt><trkpt lat="44.48260774946535" lon="10.776393333757591"><ele>486.0</ele><time>2026-03-25T15:21:05Z</time></trkpt><trkpt lat="44.48272358121086" lon="10.776359433103314"><ele>486.0</ele><time>2026-03-25T15:21:07Z</time></trkpt><trkpt lat="44.482786389535924" lon="10.77634150177314"><ele>486.0</ele><time>2026-03-25T15:21:08Z</time></trkpt><trkpt lat="44.482908839282366" lon="10.776316324410505"><ele>486.0</ele><time>2026-03-25T15:21:10Z</time></trkpt><trkpt lat="44.48300314257075" lon="10.776287840675627"><ele>486.1666666666667</ele><time>2026-03-25T15:21:12Z</time></trkpt><trkpt lat="44.48309879673317" lon="10.776252635562305"><ele>486.33333333333337</ele><time>2026-03-25T15:21:14Z</time></trkpt><trkpt lat="44.483191162283845" lon="10.776228279189487"><ele>486.5</ele><time>2026-03-25T15:21:16Z</time></trkpt><trkpt lat="44.483267930498926" lon="10.776218202164673"><ele>486.6666666666667</ele><time>2026-03-25T15:21:18Z</time></trkpt><trkpt lat="44.48334210329809" lon="10.776224157898321"><ele>486.83333333333337</ele><time>2026-03-25T15:21:20Z</time></trkpt><trkpt lat="44.48343587472346" lon="10.776261781306513"><ele>487.0</ele><time>2026-03-25T15:21:22Z</time></trkpt><trkpt lat="44.48353996129957" lon="10.776346077501577"><ele>487.00000000000006</ele><time>2026-03-25T15:21:24Z</time></trkpt><trkpt lat="44.48359509002177" lon="10.776398637919778"><ele>487.0</ele><time>2026-03-25T15:21:25Z</time></trkpt><trkpt lat="44.48364875032502" lon="10.776459542447927"><ele>487.0</ele><time>2026-03-25T15:21:26Z</time></trkpt><trkpt lat="44.48370031212764" lon="10.776528322274762"><ele>487.0</ele><time>2026-03-25T15:21:27Z</time></trkpt><trkpt lat="44.48375874569705" lon="10.776606166159917"><ele>487.00000000000006</ele><time>2026-03-25T15:21:28Z</time></trkpt><trkpt lat="44.483822055812496" lon="10.776676489416236"><ele>487.0</ele><time>2026-03-25T15:21:29Z</time></trkpt><trkpt lat="44.48389202586046" lon="10.776744237796102"><ele>486.83333333333337</ele><time>2026-03-25T15:21:30Z</time></trkpt><trkpt lat="44.48396204588448" lon="10.776810659736165"><ele>486.6666666666667</ele><time>2026-03-25T15:21:31Z</time></trkpt><trkpt lat="44.48401578344103" lon="10.776867994161941"><ele>486.5</ele><time>2026-03-25T15:21:32Z</time></trkpt><trkpt lat="44.48408034795862" lon="10.776897593898418"><ele>486.33333333333337</ele><time>2026-03-25T15:21:35Z</time></trkpt><trkpt lat="44.48414192211586" lon="10.776927515338905"><ele>486.1666666666667</ele><time>2026-03-25T15:21:37Z</time></trkpt><trkpt lat="44.48421494728795" lon="10.776995656045703"><ele>486.0</ele><time>2026-03-25T15:21:39Z</time></trkpt><trkpt lat="44.48431577126743" lon="10.777041858626873"><ele>486.0</ele><time>2026-03-25T15:21:41Z</time></trkpt><trkpt lat="44.48443153513481" lon="10.777079182530287"><ele>486.0</ele><time>2026-03-25T15:21:43Z</time></trkpt><trkpt lat="44.48456242100771" lon="10.777087027508921"><ele>486.0</ele><time>2026-03-25T15:21:45Z</time></trkpt><trkpt lat="44.48463572378249" lon="10.777095560550142"><ele>486.0</ele><time>2026-03-25T15:21:46Z</time></trkpt><trkpt lat="44.48471290898108" lon="10.777099569088161"><ele>486.0</ele><time>2026-03-25T15:21:47Z</time></trkpt><trkpt lat="44.48479673515938" lon="10.777087838991271"><ele>484.0</ele><time>2026-03-25T15:21:48Z</time></trkpt><trkpt lat="44.484888654833874" lon="10.777074489281109"><ele>482.0</ele><time>2026-03-25T15:21:49Z</time></trkpt><trkpt lat="44.48497169746012" lon="10.77707547612264"><ele>480.0</ele><time>2026-03-25T15:21:50Z</time></trkpt><trkpt lat="44.485061462687995" lon="10.777085226852916"><ele>478.0</ele><time>2026-03-25T15:21:51Z</time></trkpt><trkpt lat="44.4851321403688" lon="10.777120246432771"><ele>476.0</ele><time>2026-03-25T15:21:52Z</time></trkpt><trkpt lat="44.48520019870165" lon="10.77718259303951"><ele>474.0</ele><time>2026-03-25T15:21:53Z</time></trkpt><trkpt lat="44.485260447763196" lon="10.777265503722584"><ele>474.0</ele><time>2026-03-25T15:21:54Z</time></trkpt><trkpt lat="44.48531075048769" lon="10.777374978038097"><ele>474.0</ele><time>2026-03-25T15:21:55Z</time></trkpt><trkpt lat="44.48536438539287" lon="10.777483728729157"><ele>474.0</ele><time>2026-03-25T15:21:56Z</time></trkpt><trkpt lat="44.48542618370874" lon="10.777581174576992"><ele>474.0</ele><time>2026-03-25T15:21:57Z</time></trkpt><trkpt lat="44.485493647021364" lon="10.777677195858397"><ele>474.0</ele><time>2026-03-25T15:21:58Z</time></trkpt><trkpt lat="44.48557855096542" lon="10.77775012308321"><ele>473.2</ele><time>2026-03-25T15:21:59Z</time></trkpt><trkpt lat="44.48568066870867" lon="10.777804413744073"><ele>472.4</ele><time>2026-03-25T15:22:00Z</time></trkpt><trkpt lat="44.485775040591605" lon="10.777864223694298"><ele>471.6</ele><time>2026-03-25T15:22:01Z</time></trkpt><trkpt lat="44.4858739759959" lon="10.77792822579503"><ele>470.8</ele><time>2026-03-25T15:22:02Z</time></trkpt><trkpt lat="44.48597246879132" lon="10.777993220616647"><ele>470.0</ele><time>2026-03-25T15:22:03Z</time></trkpt><trkpt lat="44.486063812903" lon="10.778052402291305"><ele>470.0</ele><time>2026-03-25T15:22:04Z</time></trkpt><trkpt lat="44.48616818474458" lon="10.778060043380577"><ele>470.0</ele><time>2026-03-25T15:22:05Z</time></trkpt><trkpt lat="44.486273773863765" lon="10.778034601502442"><ele>470.0</ele><time>2026-03-25T15:22:06Z</time></trkpt><trkpt lat="44.4863731235948" lon="10.777982579262941"><ele>470.0</ele><time>2026-03-25T15:22:07Z</time></trkpt><trkpt lat="44.48645851886007" lon="10.777923073113252"><ele>470.0</ele><time>2026-03-25T15:22:08Z</time></trkpt><trkpt lat="44.4865347846146" lon="10.77786957408345"><ele>467.2857142857143</ele><time>2026-03-25T15:22:09Z</time></trkpt><trkpt lat="44.48660806106327" lon="10.777838272053106"><ele>464.57142857142856</ele><time>2026-03-25T15:22:10Z</time></trkpt><trkpt lat="44.4866768769395" lon="10.777823227992117"><ele>461.85714285714283</ele><time>2026-03-25T15:22:11Z</time></trkpt><trkpt lat="44.48674316826954" lon="10.777820784484769"><ele>459.1428571428571</ele><time>2026-03-25T15:22:12Z</time></trkpt><trkpt lat="44.48681167470253" lon="10.777842281255888"><ele>456.42857142857144</ele><time>2026-03-25T15:22:13Z</time></trkpt><trkpt lat="44.48688055600164" lon="10.777874267944417"><ele>453.71428571428567</ele><time>2026-03-25T15:22:14Z</time></trkpt><trkpt lat="44.48694194635675" lon="10.777910569837791"><ele>451.0</ele><time>2026-03-25T15:22:15Z</time></trkpt><trkpt lat="44.48700009132525" lon="10.777947760361315"><ele>451.00000000000006</ele><time>2026-03-25T15:22:16Z</time></trkpt><trkpt lat="44.48706320407753" lon="10.77799440737617"><ele>451.0</ele><time>2026-03-25T15:22:17Z</time></trkpt><trkpt lat="44.48713223897569" lon="10.778046559454255"><ele>451.0</ele><time>2026-03-25T15:22:18Z</time></trkpt><trkpt lat="44.4872045032101" lon="10.778099818214942"><ele>451.0</ele><time>2026-03-25T15:22:19Z</time></trkpt><trkpt lat="44.48728257360733" lon="10.778163091942579"><ele>451.00000000000006</ele><time>2026-03-25T15:22:20Z</time></trkpt><trkpt lat="44.487356751303544" lon="10.778235251328715"><ele>451.0</ele><time>2026-03-25T15:22:21Z</time></trkpt><trkpt lat="44.48743668284907" lon="10.778299540546932"><ele>449.50000000000006</ele><time>2026-03-25T15:22:22Z</time></trkpt><trkpt lat="44.487512319998324" lon="10.778368611266897"><ele>448.0</ele><time>2026-03-25T15:22:23Z</time></trkpt><trkpt lat="44.48757077498394" lon="10.778462083294919"><ele>446.5</ele><time>2026-03-25T15:22:24Z</time></trkpt><trkpt lat="44.487617495331634" lon="10.778562703737535"><ele>445.0</ele><time>2026-03-25T15:22:25Z</time></trkpt><trkpt lat="44.48765602919476" lon="10.778668335813885"><ele>443.50000000000006</ele><time>2026-03-25T15:22:26Z</time></trkpt><trkpt lat="44.487692950902435" lon="10.778765668189726"><ele>442.0</ele><time>2026-03-25T15:22:27Z</time></trkpt><trkpt lat="44.48772331432416" lon="10.778862681052404"><ele>441.1666666666667</ele><time>2026-03-25T15:22:28Z</time></trkpt><trkpt lat="44.48774837654204" lon="10.778950902042778"><ele>440.33333333333337</ele><time>2026-03-25T15:22:29Z</time></trkpt><trkpt lat="44.48780450063357" lon="10.779079737934715"><ele>439.5</ele><time>2026-03-25T15:22:31Z</time></trkpt><trkpt lat="44.48785395038555" lon="10.7791752329121"><ele>438.66666666666663</ele><time>2026-03-25T15:22:33Z</time></trkpt><trkpt lat="44.487914581275746" lon="10.7792606777856"><ele>437.8333333333333</ele><time>2026-03-25T15:22:35Z</time></trkpt><trkpt lat="44.4879816120919" lon="10.779341529161258"><ele>437.0</ele><time>2026-03-25T15:22:37Z</time></trkpt><trkpt lat="44.48807158959296" lon="10.77945219971712"><ele>435.7142857142857</ele><time>2026-03-25T15:22:39Z</time></trkpt><trkpt lat="44.48811928690387" lon="10.779517083979734"><ele>434.42857142857144</ele><time>2026-03-25T15:22:40Z</time></trkpt><trkpt lat="44.48816692082501" lon="10.77958195339294"><ele>433.14285714285717</ele><time>2026-03-25T15:22:41Z</time></trkpt><trkpt lat="44.488224752845376" lon="10.77963995242649"><ele>431.8571428571429</ele><time>2026-03-25T15:22:42Z</time></trkpt><trkpt lat="44.488290976614785" lon="10.779690971489243"><ele>430.57142857142856</ele><time>2026-03-25T15:22:43Z</time></trkpt><trkpt lat="44.488363581768844" lon="10.779722118593792"><ele>429.28571428571433</ele><time>2026-03-25T15:22:44Z</time></trkpt><trkpt lat="44.48844149399573" lon="10.779723832267809"><ele>428.0</ele><time>2026-03-25T15:22:45Z</time></trkpt><trkpt lat="44.4885172645209" lon="10.779695395311974"><ele>427.99999999999994</ele><time>2026-03-25T15:22:46Z</time></trkpt><trkpt lat="44.48858984589315" lon="10.779643575168485"><ele>428.0</ele><time>2026-03-25T15:22:47Z</time></trkpt><trkpt lat="44.4886591677189" lon="10.779580655079755"><ele>428.0</ele><time>2026-03-25T15:22:48Z</time></trkpt><trkpt lat="44.48873342237327" lon="10.779514573006294"><ele>428.0</ele><time>2026-03-25T15:22:49Z</time></trkpt><trkpt lat="44.48880941848255" lon="10.779452094951036"><ele>427.99999999999994</ele><time>2026-03-25T15:22:50Z</time></trkpt><trkpt lat="44.48889252033073" lon="10.779399199044464"><ele>428.0</ele><time>2026-03-25T15:22:51Z</time></trkpt><trkpt lat="44.488980058573766" lon="10.7793556156047"><ele>426.79999999999995</ele><time>2026-03-25T15:22:52.001Z</time></trkpt><trkpt lat="44.489072544858715" lon="10.779328316888012"><ele>425.59999999999997</ele><time>2026-03-25T15:22:53.001Z</time></trkpt><trkpt lat="44.489163940548146" lon="10.779304509879093"><ele>424.4</ele><time>2026-03-25T15:22:54.001Z</time></trkpt><trkpt lat="44.48925358546133" lon="10.779284903889323"><ele>423.20000000000005</ele><time>2026-03-25T15:22:55.001Z</time></trkpt><trkpt lat="44.48934179862735" lon="10.779264695427932"><ele>422.0</ele><time>2026-03-25T15:22:56.001Z</time></trkpt><trkpt lat="44.489428968010394" lon="10.779244719052874"><ele>421.99999999999994</ele><time>2026-03-25T15:22:57.001Z</time></trkpt><trkpt lat="44.489517595344346" lon="10.779234449142542"><ele>422.0</ele><time>2026-03-25T15:22:58.001Z</time></trkpt><trkpt lat="44.48960435615183" lon="10.779231380858516"><ele>422.0</ele><time>2026-03-25T15:22:59.001Z</time></trkpt><trkpt lat="44.4896891909219" lon="10.779229942039148"><ele>422.0</ele><time>2026-03-25T15:23:00.001Z</time></trkpt><trkpt lat="44.489771112193736" lon="10.77924670734188"><ele>421.99999999999994</ele><time>2026-03-25T15:23:01.001Z</time></trkpt><trkpt lat="44.48984459830574" lon="10.779289338609606"><ele>422.0</ele><time>2026-03-25T15:23:02.001Z</time></trkpt><trkpt lat="44.48990955549616" lon="10.779345461657414"><ele>422.0</ele><time>2026-03-25T15:23:03.001Z</time></trkpt><trkpt lat="44.48997778397482" lon="10.779402370481929"><ele>422.0</ele><time>2026-03-25T15:23:04.001Z</time></trkpt><trkpt lat="44.49003432299486" lon="10.779459409846691"><ele>422.0</ele><time>2026-03-25T15:23:05.001Z</time></trkpt><trkpt lat="44.4900917974005" lon="10.779526182760387"><ele>422.0</ele><time>2026-03-25T15:23:06.001Z</time></trkpt><trkpt lat="44.49014308201882" lon="10.779590723413786"><ele>422.0</ele><time>2026-03-25T15:23:07.001Z</time></trkpt><trkpt lat="44.490191871541676" lon="10.779663027589637"><ele>422.0</ele><time>2026-03-25T15:23:08.001Z</time></trkpt><trkpt lat="44.49023809810699" lon="10.779745356855196"><ele>422.0</ele><time>2026-03-25T15:23:09.001Z</time></trkpt><trkpt lat="44.490279064224865" lon="10.779828221775185"><ele>422.0</ele><time>2026-03-25T15:23:10.001Z</time></trkpt><trkpt lat="44.49031566623691" lon="10.779918332307785"><ele>422.0</ele><time>2026-03-25T15:23:11.001Z</time></trkpt><trkpt lat="44.49034509783867" lon="10.780014566893623"><ele>422.0</ele><time>2026-03-25T15:23:12.001Z</time></trkpt><trkpt lat="44.490376933094765" lon="10.780105534152806"><ele>422.0</ele><time>2026-03-25T15:23:13.001Z</time></trkpt><trkpt lat="44.490401384583826" lon="10.78020367380715"><ele>422.0</ele><time>2026-03-25T15:23:14.001Z</time></trkpt><trkpt lat="44.490415689241004" lon="10.780306983653356"><ele>422.0</ele><time>2026-03-25T15:23:15.001Z</time></trkpt><trkpt lat="44.490424295488" lon="10.780407838591149"><ele>422.0</ele><time>2026-03-25T15:23:16.001Z</time></trkpt><trkpt lat="44.49043680692789" lon="10.78050526919458"><ele>422.14285714285717</ele><time>2026-03-25T15:23:17.001Z</time></trkpt><trkpt lat="44.49045268613895" lon="10.780609443897436"><ele>422.28571428571433</ele><time>2026-03-25T15:23:18.001Z</time></trkpt><trkpt lat="44.490464518335806" lon="10.780710341716675"><ele>422.42857142857144</ele><time>2026-03-25T15:23:19.001Z</time></trkpt><trkpt lat="44.49047324817945" lon="10.780808505322485"><ele>422.57142857142856</ele><time>2026-03-25T15:23:20.001Z</time></trkpt><trkpt lat="44.49048513402035" lon="10.780907538495597"><ele>422.7142857142857</ele><time>2026-03-25T15:23:21.001Z</time></trkpt><trkpt lat="44.490499066192776" lon="10.78100584275345"><ele>422.85714285714283</ele><time>2026-03-25T15:23:22.001Z</time></trkpt><trkpt lat="44.49051219833706" lon="10.781106644020712"><ele>423.0</ele><time>2026-03-25T15:23:23.001Z</time></trkpt><trkpt lat="44.49052178740972" lon="10.78120921673994"><ele>423.0</ele><time>2026-03-25T15:23:24.001Z</time></trkpt><trkpt lat="44.49052838921128" lon="10.78131449402247"><ele>423.0</ele><time>2026-03-25T15:23:25.001Z</time></trkpt><trkpt lat="44.490541632369535" lon="10.781421284243729"><ele>423.0</ele><time>2026-03-25T15:23:26.001Z</time></trkpt><trkpt lat="44.490558703111034" lon="10.781529540640532"><ele>423.0</ele><time>2026-03-25T15:23:27.001Z</time></trkpt><trkpt lat="44.4905742068668" lon="10.781641398064492"><ele>423.0</ele><time>2026-03-25T15:23:28.001Z</time></trkpt><trkpt lat="44.49058514993762" lon="10.78175413205714"><ele>423.0</ele><time>2026-03-25T15:23:29.001Z</time></trkpt><trkpt lat="44.49059856311244" lon="10.781869360852165"><ele>421.6666666666667</ele><time>2026-03-25T15:23:30.001Z</time></trkpt><trkpt lat="44.490604304024856" lon="10.781985940579375"><ele>420.33333333333337</ele><time>2026-03-25T15:23:31.001Z</time></trkpt><trkpt lat="44.490619887266924" lon="10.782103699089507"><ele>419.0</ele><time>2026-03-25T15:23:32.001Z</time></trkpt><trkpt lat="44.490641518491046" lon="10.782228748750647"><ele>417.6666666666667</ele><time>2026-03-25T15:23:33.001Z</time></trkpt><trkpt lat="44.49065393008898" lon="10.782353201895846"><ele>416.33333333333337</ele><time>2026-03-25T15:23:34.001Z</time></trkpt><trkpt lat="44.49066000367811" lon="10.782483215902866"><ele>415.0</ele><time>2026-03-25T15:23:35.001Z</time></trkpt><trkpt lat="44.490662120626375" lon="10.78261776633812"><ele>413.6</ele><time>2026-03-25T15:23:36.001Z</time></trkpt><trkpt lat="44.49065428193841" lon="10.782752770608187"><ele>412.2</ele><time>2026-03-25T15:23:37.001Z</time></trkpt><trkpt lat="44.490642822149724" lon="10.78288505991588"><ele>410.79999999999995</ele><time>2026-03-25T15:23:38.001Z</time></trkpt><trkpt lat="44.49062862486457" lon="10.78301690239748"><ele>409.4</ele><time>2026-03-25T15:23:39.001Z</time></trkpt><trkpt lat="44.49061816989198" lon="10.783145758700128"><ele>408.0</ele><time>2026-03-25T15:23:40.001Z</time></trkpt><trkpt lat="44.490639521526454" lon="10.78327393096766"><ele>408.0</ele><time>2026-03-25T15:23:41.001Z</time></trkpt><trkpt lat="44.490685392301955" lon="10.78339383166146"><ele>408.0</ele><time>2026-03-25T15:23:42.001Z</time></trkpt><trkpt lat="44.49074743294566" lon="10.783502656635818"><ele>408.0</ele><time>2026-03-25T15:23:43.001Z</time></trkpt><trkpt lat="44.490821486402616" lon="10.783600359350254"><ele>408.0</ele><time>2026-03-25T15:23:44Z</time></trkpt><trkpt lat="44.490896899524756" lon="10.783693987656576"><ele>408.0</ele><time>2026-03-25T15:23:45Z</time></trkpt><trkpt lat="44.49093910912784" lon="10.783826387287007"><ele>407.4</ele><time>2026-03-25T15:23:46Z</time></trkpt><trkpt lat="44.49094890376858" lon="10.783966247969126"><ele>406.79999999999995</ele><time>2026-03-25T15:23:47Z</time></trkpt><trkpt lat="44.49092877974144" lon="10.784100259215235"><ele>406.2</ele><time>2026-03-25T15:23:48Z</time></trkpt><trkpt lat="44.49090543570565" lon="10.784219701320724"><ele>405.6</ele><time>2026-03-25T15:23:49Z</time></trkpt><trkpt lat="44.49088125827911" lon="10.784331936615576"><ele>405.0</ele><time>2026-03-25T15:23:50Z</time></trkpt><trkpt lat="44.490856213340365" lon="10.78444211520202"><ele>405.0</ele><time>2026-03-25T15:23:51Z</time></trkpt><trkpt lat="44.490829385649405" lon="10.78454437585138"><ele>405.0</ele><time>2026-03-25T15:23:52Z</time></trkpt><trkpt lat="44.4907997687316" lon="10.784639771949648"><ele>405.0</ele><time>2026-03-25T15:23:53Z</time></trkpt><trkpt lat="44.490766636569525" lon="10.784727574535896"><ele>405.0</ele><time>2026-03-25T15:23:54Z</time></trkpt><trkpt lat="44.49073376751792" lon="10.78480663046642"><ele>405.0</ele><time>2026-03-25T15:23:55Z</time></trkpt><trkpt lat="44.49067503858612" lon="10.784950502249773"><ele>405.0</ele><time>2026-03-25T15:23:57Z</time></trkpt><trkpt lat="44.49061910807613" lon="10.785071518462482"><ele>406.2</ele><time>2026-03-25T15:23:59.001Z</time></trkpt><trkpt lat="44.4905720526275" lon="10.785185229126043"><ele>407.4</ele><time>2026-03-25T15:24:01.001Z</time></trkpt><trkpt lat="44.49052734959147" lon="10.785300128520483"><ele>408.6</ele><time>2026-03-25T15:24:03.001Z</time></trkpt><trkpt lat="44.49049744434145" lon="10.785417565569324"><ele>409.8</ele><time>2026-03-25T15:24:05.001Z</time></trkpt><trkpt lat="44.49047261415073" lon="10.78554041752513"><ele>411.0</ele><time>2026-03-25T15:24:07.001Z</time></trkpt><trkpt lat="44.49046436733824" lon="10.785662248598658"><ele>411.0</ele><time>2026-03-25T15:24:09.001Z</time></trkpt><trkpt lat="44.490452796323794" lon="10.785779335204145"><ele>411.0</ele><time>2026-03-25T15:24:11.001Z</time></trkpt><trkpt lat="44.49044940714697" lon="10.78589134443517"><ele>411.0</ele><time>2026-03-25T15:24:13.001Z</time></trkpt><trkpt lat="44.490448885955715" lon="10.786003131191663"><ele>411.0</ele><time>2026-03-25T15:24:15.001Z</time></trkpt><trkpt lat="44.490447309992085" lon="10.78611463335865"><ele>411.0</ele><time>2026-03-25T15:24:17.001Z</time></trkpt><trkpt lat="44.49044815296876" lon="10.786220244937436"><ele>411.0</ele><time>2026-03-25T15:24:19.001Z</time></trkpt><trkpt lat="44.490454664202446" lon="10.786326032252006"><ele>411.3333333333333</ele><time>2026-03-25T15:24:21.001Z</time></trkpt><trkpt lat="44.4904649461466" lon="10.786428539283838"><ele>411.66666666666663</ele><time>2026-03-25T15:24:23.001Z</time></trkpt><trkpt lat="44.49047289447509" lon="10.786530934529893"><ele>412.0</ele><time>2026-03-25T15:24:25.001Z</time></trkpt><trkpt lat="44.49048349368587" lon="10.786634588343553"><ele>412.3333333333333</ele><time>2026-03-25T15:24:27.001Z</time></trkpt><trkpt lat="44.4905042934363" lon="10.786738506877208"><ele>412.66666666666663</ele><time>2026-03-25T15:24:29.001Z</time></trkpt><trkpt lat="44.49053288884036" lon="10.786846280800301"><ele>413.0</ele><time>2026-03-25T15:24:31.001Z</time></trkpt><trkpt lat="44.49057087486362" lon="10.786950628583297"><ele>413.8333333333333</ele><time>2026-03-25T15:24:33.001Z</time></trkpt><trkpt lat="44.49060653290314" lon="10.787054797038067"><ele>414.66666666666663</ele><time>2026-03-25T15:24:35.001Z</time></trkpt><trkpt lat="44.490629644658895" lon="10.787163207422546"><ele>415.5</ele><time>2026-03-25T15:24:37.001Z</time></trkpt><trkpt lat="44.49064368688749" lon="10.7872752296895"><ele>416.33333333333337</ele><time>2026-03-25T15:24:39.001Z</time></trkpt><trkpt lat="44.490657167645395" lon="10.787388050596896"><ele>417.1666666666667</ele><time>2026-03-25T15:24:41.001Z</time></trkpt><trkpt lat="44.490663214608375" lon="10.787502564317837"><ele>418.0</ele><time>2026-03-25T15:24:43.001Z</time></trkpt><trkpt lat="44.49067315114648" lon="10.78762158654881"><ele>418.1666666666667</ele><time>2026-03-25T15:24:45.001Z</time></trkpt><trkpt lat="44.4907134105778" lon="10.787727848476752"><ele>418.33333333333337</ele><time>2026-03-25T15:24:47.001Z</time></trkpt><trkpt lat="44.49077650904706" lon="10.787814061384953"><ele>418.5</ele><time>2026-03-25T15:24:49.001Z</time></trkpt><trkpt lat="44.49085482264333" lon="10.787894352178062"><ele>418.66666666666663</ele><time>2026-03-25T15:24:51.001Z</time></trkpt><trkpt lat="44.49091538239089" lon="10.787985593810824"><ele>418.8333333333333</ele><time>2026-03-25T15:24:53.001Z</time></trkpt><trkpt lat="44.49096141464584" lon="10.788091120781665"><ele>419.0</ele><time>2026-03-25T15:24:55.001Z</time></trkpt><trkpt lat="44.49099506256144" lon="10.788225167798343"><ele>419.0</ele><time>2026-03-25T15:24:57.001Z</time></trkpt><trkpt lat="44.49102033165255" lon="10.788385347498119"><ele>419.0</ele><time>2026-03-25T15:24:59.001Z</time></trkpt><trkpt lat="44.4910335608962" lon="10.788558616934154"><ele>419.0</ele><time>2026-03-25T15:25:01.001Z</time></trkpt><trkpt lat="44.49104659749277" lon="10.78864543568129"><ele>419.0</ele><time>2026-03-25T15:25:02.001Z</time></trkpt><trkpt lat="44.49106022915313" lon="10.788732406464373"><ele>419.0</ele><time>2026-03-25T15:25:03.001Z</time></trkpt><trkpt lat="44.491084841517214" lon="10.788899815213185"><ele>417.6</ele><time>2026-03-25T15:25:05.001Z</time></trkpt><trkpt lat="44.491111727265526" lon="10.789067567179607"><ele>416.2</ele><time>2026-03-25T15:25:07.001Z</time></trkpt><trkpt lat="44.4911454905532" lon="10.789210650639387"><ele>414.8</ele><time>2026-03-25T15:25:09.001Z</time></trkpt><trkpt lat="44.49118674705942" lon="10.789327057712615"><ele>413.40000000000003</ele><time>2026-03-25T15:25:11.001Z</time></trkpt><trkpt lat="44.491256668085626" lon="10.789411585865741"><ele>412.0</ele><time>2026-03-25T15:25:13.001Z</time></trkpt><trkpt lat="44.49133852241736" lon="10.789485941814652"><ele>411.8</ele><time>2026-03-25T15:25:15.001Z</time></trkpt><trkpt lat="44.49142032870041" lon="10.789539735320622"><ele>411.6</ele><time>2026-03-25T15:25:17.001Z</time></trkpt><trkpt lat="44.49150203166195" lon="10.78957761364603"><ele>411.40000000000003</ele><time>2026-03-25T15:25:19.001Z</time></trkpt><trkpt lat="44.49159392393367" lon="10.789631822818711"><ele>411.20000000000005</ele><time>2026-03-25T15:25:21.001Z</time></trkpt><trkpt lat="44.491695270039756" lon="10.7897095793158"><ele>411.0</ele><time>2026-03-25T15:25:23.001Z</time></trkpt><trkpt lat="44.4917513214952" lon="10.789749851659527"><ele>411.0</ele><time>2026-03-25T15:25:24.001Z</time></trkpt><trkpt lat="44.49180588149728" lon="10.789804459808856"><ele>411.0</ele><time>2026-03-25T15:25:25.001Z</time></trkpt><trkpt lat="44.49185584542306" lon="10.789873966261787"><ele>411.0</ele><time>2026-03-25T15:25:26.001Z</time></trkpt><trkpt lat="44.491908401698204" lon="10.78994759049806"><ele>411.0</ele><time>2026-03-25T15:25:27.001Z</time></trkpt><trkpt lat="44.491967981284176" lon="10.790022735944346"><ele>411.0</ele><time>2026-03-25T15:25:28.001Z</time></trkpt><trkpt lat="44.49203214285051" lon="10.790097577310846"><ele>411.0</ele><time>2026-03-25T15:25:29.001Z</time></trkpt><trkpt lat="44.49210191873966" lon="10.790175191872578"><ele>408.5</ele><time>2026-03-25T15:25:30.001Z</time></trkpt><trkpt lat="44.49216880560161" lon="10.790251392634213"><ele>406.0</ele><time>2026-03-25T15:25:31.001Z</time></trkpt><trkpt lat="44.49223312009492" lon="10.790329866301764"><ele>403.5</ele><time>2026-03-25T15:25:32.001Z</time></trkpt><trkpt lat="44.49229343648268" lon="10.790408471909167"><ele>401.0</ele><time>2026-03-25T15:25:33.001Z</time></trkpt><trkpt lat="44.49235156614197" lon="10.790489015922043"><ele>398.5</ele><time>2026-03-25T15:25:34.001Z</time></trkpt><trkpt lat="44.492401248779856" lon="10.790568529251221"><ele>396.0</ele><time>2026-03-25T15:25:35.001Z</time></trkpt><trkpt lat="44.492449516889074" lon="10.79063873067243"><ele>396.0</ele><time>2026-03-25T15:25:36.001Z</time></trkpt><trkpt lat="44.492527164902825" lon="10.79073459060311"><ele>396.0</ele><time>2026-03-25T15:25:38.001Z</time></trkpt><trkpt lat="44.4925910636219" lon="10.790792379958893"><ele>396.0</ele><time>2026-03-25T15:25:40.001Z</time></trkpt><trkpt lat="44.492650996650575" lon="10.790819834973805"><ele>396.0</ele><time>2026-03-25T15:25:42.001Z</time></trkpt><trkpt lat="44.49272461479614" lon="10.790845219334368"><ele>396.0</ele><time>2026-03-25T15:25:45.001Z</time></trkpt><trkpt lat="44.49279927920575" lon="10.79085990326347"><ele>396.0</ele><time>2026-03-25T15:25:48.001Z</time></trkpt><trkpt lat="44.492877913236434" lon="10.790884057156385"><ele>395.2857142857143</ele><time>2026-03-25T15:25:52Z</time></trkpt><trkpt lat="44.492948957825234" lon="10.79090432526897"><ele>394.57142857142856</ele><time>2026-03-25T15:25:55Z</time></trkpt><trkpt lat="44.49301882045683" lon="10.790916382402637"><ele>393.85714285714283</ele><time>2026-03-25T15:25:58Z</time></trkpt><trkpt lat="44.4930873991026" lon="10.790929488581092"><ele>393.1428571428571</ele><time>2026-03-25T15:26:01Z</time></trkpt><trkpt lat="44.49315169150506" lon="10.79095641987914"><ele>392.42857142857144</ele><time>2026-03-25T15:26:05Z</time></trkpt><trkpt lat="44.49322050763508" lon="10.790984580694465"><ele>391.71428571428567</ele><time>2026-03-25T15:26:09Z</time></trkpt><trkpt lat="44.49329012395858" lon="10.791009728473124"><ele>391.0</ele><time>2026-03-25T15:26:13Z</time></trkpt><trkpt lat="44.493359549029734" lon="10.791032458586162"><ele>390.50000000000006</ele><time>2026-03-25T15:26:17.001Z</time></trkpt><trkpt lat="44.49343476664917" lon="10.791054711023905"><ele>390.0</ele><time>2026-03-25T15:26:21.001Z</time></trkpt><trkpt lat="44.49350915481493" lon="10.791079248760829"><ele>389.5</ele><time>2026-03-25T15:26:25.001Z</time></trkpt><trkpt lat="44.4935936975206" lon="10.791119424461657"><ele>389.0</ele><time>2026-03-25T15:26:28.001Z</time></trkpt><trkpt lat="44.4936508788123" lon="10.791170631637844"><ele>388.50000000000006</ele><time>2026-03-25T15:26:30.001Z</time></trkpt><trkpt lat="44.493713267890776" lon="10.791215921387"><ele>388.0</ele><time>2026-03-25T15:26:32.001Z</time></trkpt><trkpt lat="44.49377643381555" lon="10.791254595061437"><ele>388.00000000000006</ele><time>2026-03-25T15:26:34.001Z</time></trkpt><trkpt lat="44.49384643401075" lon="10.791327560343637"><ele>388.0</ele><time>2026-03-25T15:26:37.001Z</time></trkpt><trkpt lat="44.49391020400879" lon="10.79138529901366"><ele>388.0</ele><time>2026-03-25T15:26:40.001Z</time></trkpt><trkpt lat="44.49397748540145" lon="10.791455912451148"><ele>388.0</ele><time>2026-03-25T15:26:43.001Z</time></trkpt><trkpt lat="44.49404373420915" lon="10.791506097969366"><ele>388.00000000000006</ele><time>2026-03-25T15:26:46.001Z</time></trkpt><trkpt lat="44.494094060991934" lon="10.791597060136388"><ele>388.0</ele><time>2026-03-25T15:26:49.001Z</time></trkpt><trkpt lat="44.49412695369983" lon="10.79172576272525"><ele>385.2</ele><time>2026-03-25T15:26:51.001Z</time></trkpt><trkpt lat="44.49419067992777" lon="10.79190032172981"><ele>382.4</ele><time>2026-03-25T15:26:53.001Z</time></trkpt><trkpt lat="44.49422398961793" lon="10.791990640524972"><ele>379.59999999999997</ele><time>2026-03-25T15:26:54.001Z</time></trkpt><trkpt lat="44.494272769854" lon="10.792131971489896"><ele>376.79999999999995</ele><time>2026-03-25T15:26:56.001Z</time></trkpt><trkpt lat="44.49431943582457" lon="10.792247583350486"><ele>374.0</ele><time>2026-03-25T15:26:58.001Z</time></trkpt><trkpt lat="44.494343951762865" lon="10.792367012673404"><ele>374.0</ele><time>2026-03-25T15:27:00.001Z</time></trkpt><trkpt lat="44.49438634788679" lon="10.792510389021412"><ele>374.0</ele><time>2026-03-25T15:27:02.001Z</time></trkpt><trkpt lat="44.49441067539816" lon="10.792603444157635"><ele>374.0</ele><time>2026-03-25T15:27:03.001Z</time></trkpt><trkpt lat="44.49443531210153" lon="10.792687359563121"><ele>374.0</ele><time>2026-03-25T15:27:04.001Z</time></trkpt><trkpt lat="44.494457929964646" lon="10.79277396829813"><ele>374.0</ele><time>2026-03-25T15:27:05.001Z</time></trkpt><trkpt lat="44.49452398326511" lon="10.792910173473905"><ele>374.0</ele><time>2026-03-25T15:27:07.001Z</time></trkpt><trkpt lat="44.49459983200089" lon="10.793046109031776"><ele>373.0</ele><time>2026-03-25T15:27:09.001Z</time></trkpt><trkpt lat="44.494654050588764" lon="10.793117933977177"><ele>372.0</ele><time>2026-03-25T15:27:10.001Z</time></trkpt><trkpt lat="44.49471560009656" lon="10.793186469735227"><ele>371.0</ele><time>2026-03-25T15:27:11.001Z</time></trkpt><trkpt lat="44.49476189287861" lon="10.793250377924245"><ele>370.0</ele><time>2026-03-25T15:27:12.001Z</time></trkpt><trkpt lat="44.49483382779874" lon="10.793378537471684"><ele>369.0</ele><time>2026-03-25T15:27:14.001Z</time></trkpt><trkpt lat="44.49487786404124" lon="10.793444289296755"><ele>368.0</ele><time>2026-03-25T15:27:15.001Z</time></trkpt><trkpt lat="44.494935768894244" lon="10.79356902223517"><ele>366.1666666666667</ele><time>2026-03-25T15:27:17.001Z</time></trkpt><trkpt lat="44.49497617239615" lon="10.793662808947891"><ele>364.33333333333337</ele><time>2026-03-25T15:27:19.001Z</time></trkpt><trkpt lat="44.49504556425976" lon="10.793716684990343"><ele>362.5</ele><time>2026-03-25T15:28:32Z</time></trkpt><trkpt lat="44.495129218242774" lon="10.79375721619798"><ele>360.6666666666667</ele><time>2026-03-25T15:28:34Z</time></trkpt><trkpt lat="44.4951970322567" lon="10.793790053953737"><ele>358.8333333333333</ele><time>2026-03-25T15:28:36Z</time></trkpt><trkpt lat="44.49525587094955" lon="10.793828976358906"><ele>357.0</ele><time>2026-03-25T15:28:38Z</time></trkpt><trkpt lat="44.495323997082764" lon="10.793885665934715"><ele>357.0</ele><time>2026-03-25T15:28:40Z</time></trkpt><trkpt lat="44.49538842650786" lon="10.793952535754528"><ele>357.0</ele><time>2026-03-25T15:28:42Z</time></trkpt><trkpt lat="44.49545435609717" lon="10.794011302743284"><ele>357.0</ele><time>2026-03-25T15:28:44Z</time></trkpt><trkpt lat="44.49553208917947" lon="10.79405250271497"><ele>357.0</ele><time>2026-03-25T15:28:46.001Z</time></trkpt><trkpt lat="44.495621491065265" lon="10.794068630178467"><ele>357.0</ele><time>2026-03-25T15:28:48.001Z</time></trkpt><trkpt lat="44.49570715828547" lon="10.794104576026008"><ele>357.0</ele><time>2026-03-25T15:28:50.001Z</time></trkpt><trkpt lat="44.495793485227814" lon="10.794145172430298"><ele>355.3333333333333</ele><time>2026-03-25T15:28:52.001Z</time></trkpt><trkpt lat="44.49585901138651" lon="10.794185970821477"><ele>353.6666666666667</ele><time>2026-03-25T15:28:54.001Z</time></trkpt><trkpt lat="44.49593133409658" lon="10.794217515406098"><ele>352.0</ele><time>2026-03-25T15:28:56.001Z</time></trkpt><trkpt lat="44.4960174661348" lon="10.794272282025839"><ele>350.33333333333337</ele><time>2026-03-25T15:28:58.001Z</time></trkpt><trkpt lat="44.496082242317456" lon="10.794362651815808"><ele>348.6666666666667</ele><time>2026-03-25T15:29:00.001Z</time></trkpt><trkpt lat="44.496143232433354" lon="10.794451613915415"><ele>347.0</ele><time>2026-03-25T15:29:02.001Z</time></trkpt><trkpt lat="44.49619313946851" lon="10.794586268708304"><ele>344.40000000000003</ele><time>2026-03-25T15:29:04.001Z</time></trkpt><trkpt lat="44.49623184191366" lon="10.794728216625"><ele>341.8</ele><time>2026-03-25T15:29:06.001Z</time></trkpt><trkpt lat="44.496288344960874" lon="10.7948449406967"><ele>339.2</ele><time>2026-03-25T15:29:08.001Z</time></trkpt><trkpt lat="44.496327238756734" lon="10.794957741473207"><ele>336.6</ele><time>2026-03-25T15:29:10.001Z</time></trkpt><trkpt lat="44.49636049423385" lon="10.795065245208518"><ele>334.0</ele><time>2026-03-25T15:29:12.001Z</time></trkpt><trkpt lat="44.496384410697566" lon="10.795155904680355"><ele>333.2857142857143</ele><time>2026-03-25T15:29:14.001Z</time></trkpt><trkpt lat="44.49642928896772" lon="10.795239374428911"><ele>332.57142857142856</ele><time>2026-03-25T15:29:17.001Z</time></trkpt><trkpt lat="44.49646193558147" lon="10.795324261768467"><ele>331.8571428571429</ele><time>2026-03-25T15:29:22.001Z</time></trkpt><trkpt lat="44.49652038971604" lon="10.795423039130949"><ele>331.1428571428571</ele><time>2026-03-25T15:29:24.001Z</time></trkpt><trkpt lat="44.49656791378163" lon="10.795481076281918"><ele>330.42857142857144</ele><time>2026-03-25T15:29:25.001Z</time></trkpt><trkpt lat="44.496621651828185" lon="10.795533138190217"><ele>329.7142857142857</ele><time>2026-03-25T15:29:26.001Z</time></trkpt><trkpt lat="44.4966826432214" lon="10.795611641929332"><ele>329.0</ele><time>2026-03-25T15:29:27.001Z</time></trkpt><trkpt lat="44.496735982914096" lon="10.795687220787922"><ele>329.0</ele><time>2026-03-25T15:29:28.001Z</time></trkpt><trkpt lat="44.496787185417126" lon="10.795772039045769"><ele>329.0</ele><time>2026-03-25T15:29:29.001Z</time></trkpt><trkpt lat="44.49683070609585" lon="10.795862060098964"><ele>329.0</ele><time>2026-03-25T15:29:30.001Z</time></trkpt><trkpt lat="44.496868152423616" lon="10.795934458086586"><ele>329.0</ele><time>2026-03-25T15:29:31.001Z</time></trkpt><trkpt lat="44.49689502173581" lon="10.796021980750064"><ele>329.0</ele><time>2026-03-25T15:29:32.001Z</time></trkpt><trkpt lat="44.49695116271358" lon="10.79618452806034"><ele>329.0</ele><time>2026-03-25T15:29:34.001Z</time></trkpt><trkpt lat="44.496982844921924" lon="10.796275771653843"><ele>328.85714285714283</ele><time>2026-03-25T15:29:35.001Z</time></trkpt><trkpt lat="44.497019001284556" lon="10.796365807050204"><ele>328.7142857142857</ele><time>2026-03-25T15:29:36.001Z</time></trkpt><trkpt lat="44.49705697451106" lon="10.79645693921859"><ele>328.57142857142856</ele><time>2026-03-25T15:29:37.001Z</time></trkpt><trkpt lat="44.49709187695079" lon="10.796550381559973"><ele>328.42857142857144</ele><time>2026-03-25T15:29:38.001Z</time></trkpt><trkpt lat="44.49712933110057" lon="10.796629320231485"><ele>328.2857142857143</ele><time>2026-03-25T15:29:39.001Z</time></trkpt><trkpt lat="44.497174941224" lon="10.796717521257047"><ele>328.1428571428571</ele><time>2026-03-25T15:29:40.001Z</time></trkpt><trkpt lat="44.49721432597551" lon="10.7967961355334"><ele>328.0</ele><time>2026-03-25T15:29:41.001Z</time></trkpt><trkpt lat="44.497259029894785" lon="10.796864410294425"><ele>329.0</ele><time>2026-03-25T15:29:42.001Z</time></trkpt><trkpt lat="44.49733915292105" lon="10.796981482492251"><ele>330.0</ele><time>2026-03-25T15:29:44.001Z</time></trkpt><trkpt lat="44.497414269729894" lon="10.797071583925039"><ele>331.0</ele><time>2026-03-25T15:29:46.001Z</time></trkpt><trkpt lat="44.49741024938724" lon="10.797214875209628"><ele>332.0</ele><time>2026-03-25T15:29:48.001Z</time></trkpt><trkpt lat="44.49739311227222" lon="10.79730524350631"><ele>333.0</ele><time>2026-03-25T15:29:49.001Z</time></trkpt><trkpt lat="44.497374815210435" lon="10.79740406690349"><ele>333.0</ele><time>2026-03-25T15:29:50.001Z</time></trkpt><trkpt lat="44.49735378367828" lon="10.797510280794828"><ele>333.0</ele><time>2026-03-25T15:29:51.001Z</time></trkpt><trkpt lat="44.49733917291896" lon="10.797623624770901"><ele>333.0</ele><time>2026-03-25T15:29:52.001Z</time></trkpt><trkpt lat="44.497336411733" lon="10.797743275790646"><ele>333.0</ele><time>2026-03-25T15:29:53.001Z</time></trkpt><trkpt lat="44.49733470188591" lon="10.797866691056749"><ele>333.0</ele><time>2026-03-25T15:29:54.001Z</time></trkpt><trkpt lat="44.49735896210953" lon="10.797996533550707"><ele>333.0</ele><time>2026-03-25T15:29:55.001Z</time></trkpt><trkpt lat="44.49740251701775" lon="10.798125028545385"><ele>331.59999999999997</ele><time>2026-03-25T15:29:56.001Z</time></trkpt><trkpt lat="44.49742886538316" lon="10.798228457949033"><ele>330.2</ele><time>2026-03-25T15:29:57.001Z</time></trkpt><trkpt lat="44.49742231117645" lon="10.798338407079127"><ele>328.8</ele><time>2026-03-25T15:29:58.001Z</time></trkpt><trkpt lat="44.49736387795984" lon="10.798453118394852"><ele>327.4</ele><time>2026-03-25T15:29:59.001Z</time></trkpt><trkpt lat="44.49731263777375" lon="10.798577725413535"><ele>326.0</ele><time>2026-03-25T15:30:00.001Z</time></trkpt><trkpt lat="44.49727586237546" lon="10.798721881189632"><ele>324.0</ele><time>2026-03-25T15:30:01.001Z</time></trkpt><trkpt lat="44.49727882000521" lon="10.79888027150284"><ele>322.0</ele><time>2026-03-25T15:30:02Z</time></trkpt><trkpt lat="44.497323004161885" lon="10.799024252135707"><ele>320.0</ele><time>2026-03-25T15:30:03Z</time></trkpt><trkpt lat="44.49738048330375" lon="10.79914734353732"><ele>318.0</ele><time>2026-03-25T15:30:04Z</time></trkpt><trkpt lat="44.4974441856475" lon="10.799259927429674"><ele>316.0</ele><time>2026-03-25T15:30:05Z</time></trkpt><trkpt lat="44.49749010364281" lon="10.799369986600782"><ele>315.5</ele><time>2026-03-25T15:30:06Z</time></trkpt><trkpt lat="44.497521390949736" lon="10.799463594864628"><ele>315.0</ele><time>2026-03-25T15:30:07Z</time></trkpt><trkpt lat="44.49755043613249" lon="10.799545446867016"><ele>314.5</ele><time>2026-03-25T15:30:08Z</time></trkpt><trkpt lat="44.4976075368609" lon="10.799697270410961"><ele>314.0</ele><time>2026-03-25T15:30:10Z</time></trkpt><trkpt lat="44.49764189158518" lon="10.79978096550378"><ele>313.5</ele><time>2026-03-25T15:30:11Z</time></trkpt><trkpt lat="44.497682358400915" lon="10.799861889239754"><ele>313.0</ele><time>2026-03-25T15:30:12Z</time></trkpt><trkpt lat="44.497729200069664" lon="10.799932540665688"><ele>313.0</ele><time>2026-03-25T15:30:13Z</time></trkpt><trkpt lat="44.49778141792942" lon="10.80000574712687"><ele>313.0</ele><time>2026-03-25T15:30:14Z</time></trkpt><trkpt lat="44.49783978256418" lon="10.800084733474268"><ele>313.0</ele><time>2026-03-25T15:30:15Z</time></trkpt><trkpt lat="44.49789966978528" lon="10.800177239883407"><ele>313.0</ele><time>2026-03-25T15:30:16Z</time></trkpt><trkpt lat="44.497966097318276" lon="10.800282356921338"><ele>313.0</ele><time>2026-03-25T15:30:17Z</time></trkpt><trkpt lat="44.4980202118605" lon="10.800374554403362"><ele>313.0</ele><time>2026-03-25T15:30:18Z</time></trkpt><trkpt lat="44.49807290817378" lon="10.800476634659985"><ele>312.2</ele><time>2026-03-25T15:30:19Z</time></trkpt><trkpt lat="44.49812184364887" lon="10.800578668621203"><ele>311.4</ele><time>2026-03-25T15:30:20Z</time></trkpt><trkpt lat="44.49817442008633" lon="10.800675922144823"><ele>310.59999999999997</ele><time>2026-03-25T15:30:21Z</time></trkpt><trkpt lat="44.49825462034507" lon="10.800742551273325"><ele>309.8</ele><time>2026-03-25T15:30:22Z</time></trkpt><trkpt lat="44.498355925238286" lon="10.800804663312018"><ele>309.0</ele><time>2026-03-25T15:30:23Z</time></trkpt><trkpt lat="44.498433817794826" lon="10.800906244423187"><ele>309.0</ele><time>2026-03-25T15:30:24Z</time></trkpt><trkpt lat="44.49848580119703" lon="10.800980917967323"><ele>309.0</ele><time>2026-03-25T15:30:25Z</time></trkpt><trkpt lat="44.498536564855414" lon="10.801096748118592"><ele>309.0</ele><time>2026-03-25T15:30:26Z</time></trkpt><trkpt lat="44.498574870657066" lon="10.801236882029619"><ele>309.0</ele><time>2026-03-25T15:30:27Z</time></trkpt><trkpt lat="44.49859365862253" lon="10.80137801273488"><ele>309.0</ele><time>2026-03-25T15:30:28Z</time></trkpt><trkpt lat="44.49861902859925" lon="10.801522147261116"><ele>307.8</ele><time>2026-03-25T15:30:29Z</time></trkpt><trkpt lat="44.498658479602334" lon="10.801661027224727"><ele>306.59999999999997</ele><time>2026-03-25T15:30:30Z</time></trkpt><trkpt lat="44.4987141274536" lon="10.8017801777247"><ele>305.4</ele><time>2026-03-25T15:30:31Z</time></trkpt><trkpt lat="44.498788788988826" lon="10.801894319947506"><ele>304.2</ele><time>2026-03-25T15:30:32Z</time></trkpt><trkpt lat="44.49887689482862" lon="10.801981401367886"><ele>303.0</ele><time>2026-03-25T15:30:33Z</time></trkpt><trkpt lat="44.49894960718621" lon="10.802027772017086"><ele>301.2</ele><time>2026-03-25T15:30:34Z</time></trkpt><trkpt lat="44.499028674892024" lon="10.802063757116057"><ele>299.4</ele><time>2026-03-25T15:30:35Z</time></trkpt><trkpt lat="44.499121253574" lon="10.802098258936564"><ele>297.59999999999997</ele><time>2026-03-25T15:30:36Z</time></trkpt><trkpt lat="44.49921693596931" lon="10.802135821964779"><ele>295.8</ele><time>2026-03-25T15:30:37Z</time></trkpt><trkpt lat="44.49929964444503" lon="10.802209375122322"><ele>294.0</ele><time>2026-03-25T15:30:38Z</time></trkpt><trkpt lat="44.499354484823016" lon="10.802332938285197"><ele>294.0</ele><time>2026-03-25T15:30:39Z</time></trkpt><trkpt lat="44.499384947939014" lon="10.80245610609614"><ele>294.0</ele><time>2026-03-25T15:30:40Z</time></trkpt><trkpt lat="44.49942264766295" lon="10.802569291967755"><ele>294.0</ele><time>2026-03-25T15:30:41Z</time></trkpt><trkpt lat="44.499484087429686" lon="10.80265563026317"><ele>294.0</ele><time>2026-03-25T15:30:42Z</time></trkpt><trkpt lat="44.49955604269266" lon="10.802729591935584"><ele>294.0</ele><time>2026-03-25T15:30:43Z</time></trkpt><trkpt lat="44.4996327052631" lon="10.802789379384777"><ele>294.0</ele><time>2026-03-25T15:30:44Z</time></trkpt><trkpt lat="44.49971003430446" lon="10.802847901526563"><ele>294.8333333333333</ele><time>2026-03-25T15:30:45Z</time></trkpt><trkpt lat="44.49977943766132" lon="10.802911164188934"><ele>295.6666666666667</ele><time>2026-03-25T15:30:46Z</time></trkpt><trkpt lat="44.4998430225249" lon="10.802961976434554"><ele>296.5</ele><time>2026-03-25T15:30:47Z</time></trkpt><trkpt lat="44.49990181208687" lon="10.803009249712423"><ele>297.33333333333337</ele><time>2026-03-25T15:30:48Z</time></trkpt><trkpt lat="44.4999605248667" lon="10.803053671978144"><ele>298.1666666666667</ele><time>2026-03-25T15:30:49Z</time></trkpt><trkpt lat="44.50001712701413" lon="10.803099233336834"><ele>299.0</ele><time>2026-03-25T15:30:50Z</time></trkpt><trkpt lat="44.50011061473974" lon="10.803173873111227"><ele>299.0</ele><time>2026-03-25T15:30:52Z</time></trkpt><trkpt lat="44.50016364092349" lon="10.803222858871674"><ele>299.0</ele><time>2026-03-25T15:30:54Z</time></trkpt><trkpt lat="44.50022167730593" lon="10.803269165754438"><ele>299.0</ele><time>2026-03-25T15:30:58Z</time></trkpt><trkpt lat="44.500283523093486" lon="10.803317988499694"><ele>299.0</ele><time>2026-03-25T15:31:01Z</time></trkpt><trkpt lat="44.50034233624554" lon="10.803362303160915"><ele>299.0</ele><time>2026-03-25T15:31:04Z</time></trkpt><trkpt lat="44.50041244301194" lon="10.80341734927806"><ele>299.0</ele><time>2026-03-25T15:31:08Z</time></trkpt><trkpt lat="44.50048249078278" lon="10.803468743824995"><ele>299.0</ele><time>2026-03-25T15:31:12Z</time></trkpt><trkpt lat="44.500551437773396" lon="10.80352353763671"><ele>302.1428571428571</ele><time>2026-03-25T15:31:16Z</time></trkpt><trkpt lat="44.50061962854287" lon="10.803573615508583"><ele>305.2857142857143</ele><time>2026-03-25T15:31:20Z</time></trkpt><trkpt lat="44.50069105225628" lon="10.803621712230113"><ele>308.42857142857144</ele><time>2026-03-25T15:31:24Z</time></trkpt><trkpt lat="44.50075514484466" lon="10.80366655259822"><ele>311.57142857142856</ele><time>2026-03-25T15:31:28.001Z</time></trkpt><trkpt lat="44.50081840779515" lon="10.803706968128264"><ele>314.7142857142857</ele><time>2026-03-25T15:31:32.001Z</time></trkpt><trkpt lat="44.500879497197" lon="10.803744055774333"><ele>317.85714285714283</ele><time>2026-03-25T15:31:36.001Z</time></trkpt><trkpt lat="44.50094144045971" lon="10.803782648784205"><ele>321.0</ele><time>2026-03-25T15:31:40.001Z</time></trkpt><trkpt lat="44.50100398612602" lon="10.803823195592665"><ele>320.99999999999994</ele><time>2026-03-25T15:31:44.001Z</time></trkpt><trkpt lat="44.50106844814294" lon="10.803857856381635"><ele>321.0</ele><time>2026-03-25T15:31:48.001Z</time></trkpt><trkpt lat="44.50112720713364" lon="10.803891585106095"><ele>321.0</ele><time>2026-03-25T15:31:51.001Z</time></trkpt><trkpt lat="44.50119995897467" lon="10.803937995310807"><ele>321.0</ele><time>2026-03-25T15:31:55.001Z</time></trkpt><trkpt lat="44.50126478738507" lon="10.803982419723457"><ele>321.0</ele><time>2026-03-25T15:31:59.001Z</time></trkpt><trkpt lat="44.501328613866534" lon="10.804025214628822"><ele>320.99999999999994</ele><time>2026-03-25T15:32:03.001Z</time></trkpt><trkpt lat="44.5013955171976" lon="10.804067124782852"><ele>321.0</ele><time>2026-03-25T15:32:07.001Z</time></trkpt><trkpt lat="44.50146239686644" lon="10.804111960409777"><ele>323.3333333333333</ele><time>2026-03-25T15:32:11Z</time></trkpt><trkpt lat="44.50152531314976" lon="10.804158694368821"><ele>325.6666666666667</ele><time>2026-03-25T15:32:15Z</time></trkpt><trkpt lat="44.50158910275704" lon="10.804204564560033"><ele>328.0</ele><time>2026-03-25T15:32:19Z</time></trkpt><trkpt lat="44.50164762299976" lon="10.804257068231527"><ele>330.33333333333337</ele><time>2026-03-25T15:32:23Z</time></trkpt><trkpt lat="44.50171295967803" lon="10.80431606353606"><ele>332.6666666666667</ele><time>2026-03-25T15:32:27Z</time></trkpt><trkpt lat="44.50177888712838" lon="10.80438668960007"><ele>335.0</ele><time>2026-03-25T15:32:31Z</time></trkpt><trkpt lat="44.501831595522454" lon="10.804465894290393"><ele>335.33333333333337</ele><time>2026-03-25T15:32:35Z</time></trkpt><trkpt lat="44.50187327067829" lon="10.80457004083522"><ele>335.6666666666667</ele><time>2026-03-25T15:32:39Z</time></trkpt><trkpt lat="44.50192926897583" lon="10.804663729375408"><ele>336.0</ele><time>2026-03-25T15:32:43Z</time></trkpt><trkpt lat="44.50197039815897" lon="10.804755573766952"><ele>336.3333333333333</ele><time>2026-03-25T15:32:46Z</time></trkpt><trkpt lat="44.502003203668565" lon="10.804834462316064"><ele>336.66666666666663</ele><time>2026-03-25T15:32:49Z</time></trkpt><trkpt lat="44.50204691799218" lon="10.80491985876209"><ele>337.0</ele><time>2026-03-25T15:32:52Z</time></trkpt><trkpt lat="44.502087082003655" lon="10.805008360522589"><ele>337.0</ele><time>2026-03-25T15:32:55Z</time></trkpt><trkpt lat="44.50213044351953" lon="10.805093122932949"><ele>337.0</ele><time>2026-03-25T15:32:58Z</time></trkpt><trkpt lat="44.50217519352301" lon="10.805182031256905"><ele>337.0</ele><time>2026-03-25T15:33:01Z</time></trkpt><trkpt lat="44.50221831792477" lon="10.805277900011614"><ele>337.0</ele><time>2026-03-25T15:33:04Z</time></trkpt><trkpt lat="44.502262021905516" lon="10.805379651267346"><ele>337.0</ele><time>2026-03-25T15:33:07Z</time></trkpt><trkpt lat="44.50230203995806" lon="10.805474962998678"><ele>337.0</ele><time>2026-03-25T15:33:10Z</time></trkpt><trkpt lat="44.502341997242276" lon="10.805574052002441"><ele>338.5</ele><time>2026-03-25T15:33:13Z</time></trkpt><trkpt lat="44.50237569241161" lon="10.805672347994706"><ele>340.0</ele><time>2026-03-25T15:33:16Z</time></trkpt><trkpt lat="44.50240016818924" lon="10.80577145914904"><ele>341.5</ele><time>2026-03-25T15:33:19Z</time></trkpt><trkpt lat="44.502416175580095" lon="10.80588416333119"><ele>343.0</ele><time>2026-03-25T15:33:22Z</time></trkpt><trkpt lat="44.502430299503324" lon="10.805986886660373"><ele>344.5</ele><time>2026-03-25T15:33:25Z</time></trkpt><trkpt lat="44.50244089072836" lon="10.806100440800924"><ele>346.0</ele><time>2026-03-25T15:33:28Z</time></trkpt><trkpt lat="44.50245948617741" lon="10.806198865186428"><ele>346.0</ele><time>2026-03-25T15:33:31Z</time></trkpt><trkpt lat="44.50247960657741" lon="10.806305379082472"><ele>346.0</ele><time>2026-03-25T15:33:35Z</time></trkpt><trkpt lat="44.502506122936644" lon="10.806413803276184"><ele>346.0</ele><time>2026-03-25T15:33:39Z</time></trkpt><trkpt lat="44.50253025839724" lon="10.806508019561697"><ele>346.0</ele><time>2026-03-25T15:33:42Z</time></trkpt><trkpt lat="44.502558141228334" lon="10.80661009403559"><ele>346.0</ele><time>2026-03-25T15:33:44Z</time></trkpt><trkpt lat="44.50260347430265" lon="10.806729889260668"><ele>346.0</ele><time>2026-03-25T15:33:46Z</time></trkpt><trkpt lat="44.502666727281294" lon="10.806867416859738"><ele>345.1428571428571</ele><time>2026-03-25T15:33:48Z</time></trkpt><trkpt lat="44.502704917258725" lon="10.80694198335114"><ele>344.28571428571433</ele><time>2026-03-25T15:33:49Z</time></trkpt><trkpt lat="44.50275631505119" lon="10.807025106600193"><ele>343.42857142857144</ele><time>2026-03-25T15:33:50Z</time></trkpt><trkpt lat="44.50280995719482" lon="10.807100655894804"><ele>342.57142857142856</ele><time>2026-03-25T15:33:51Z</time></trkpt><trkpt lat="44.50287047596813" lon="10.80716544915875"><ele>341.71428571428567</ele><time>2026-03-25T15:33:52.001Z</time></trkpt><trkpt lat="44.5029300173489" lon="10.80721759155113"><ele>340.8571428571429</ele><time>2026-03-25T15:33:53.001Z</time></trkpt><trkpt lat="44.50299324816249" lon="10.807280456768497"><ele>340.0</ele><time>2026-03-25T15:33:54.001Z</time></trkpt><trkpt lat="44.503051465858476" lon="10.807342572080584"><ele>340.0</ele><time>2026-03-25T15:33:55.001Z</time></trkpt><trkpt lat="44.50311372071646" lon="10.807403425628955"><ele>340.0</ele><time>2026-03-25T15:33:56.001Z</time></trkpt><trkpt lat="44.503186194128496" lon="10.807464170400692"><ele>340.0</ele><time>2026-03-25T15:33:57.001Z</time></trkpt><trkpt lat="44.50325138594408" lon="10.807533607345835"><ele>340.0</ele><time>2026-03-25T15:33:58.001Z</time></trkpt><trkpt lat="44.50331372552893" lon="10.807599598848878"><ele>340.0</ele><time>2026-03-25T15:33:59.001Z</time></trkpt><trkpt lat="44.503372870205254" lon="10.807648004017503"><ele>340.0</ele><time>2026-03-25T15:34:00.001Z</time></trkpt><trkpt lat="44.503437548190995" lon="10.807699891499327"><ele>338.5714285714286</ele><time>2026-03-25T15:34:01.001Z</time></trkpt><trkpt lat="44.50350410732314" lon="10.80774403649332"><ele>337.1428571428571</ele><time>2026-03-25T15:34:02.001Z</time></trkpt><trkpt lat="44.50356488451283" lon="10.8077776919593"><ele>335.7142857142857</ele><time>2026-03-25T15:34:03.001Z</time></trkpt><trkpt lat="44.503626808122675" lon="10.8078029580274"><ele>334.28571428571433</ele><time>2026-03-25T15:34:04.001Z</time></trkpt><trkpt lat="44.50369516873213" lon="10.807820798710422"><ele>332.8571428571429</ele><time>2026-03-25T15:34:05.001Z</time></trkpt><trkpt lat="44.503772930153865" lon="10.80783325817223"><ele>331.42857142857144</ele><time>2026-03-25T15:34:06.001Z</time></trkpt><trkpt lat="44.503857722640745" lon="10.80785305774774"><ele>330.0</ele><time>2026-03-25T15:34:07.001Z</time></trkpt><trkpt lat="44.50393453297484" lon="10.807888436452497"><ele>329.0</ele><time>2026-03-25T15:34:08.001Z</time></trkpt><trkpt lat="44.50400794241248" lon="10.807944444597949"><ele>328.0</ele><time>2026-03-25T15:34:09.001Z</time></trkpt><trkpt lat="44.50409703280637" lon="10.808046767216219"><ele>327.0</ele><time>2026-03-25T15:34:11.001Z</time></trkpt><trkpt lat="44.50410937697807" lon="10.808141633943901"><ele>326.0</ele><time>2026-03-25T15:34:12.001Z</time></trkpt><trkpt lat="44.5041177523962" lon="10.80825269518967"><ele>325.0</ele><time>2026-03-25T15:34:13.001Z</time></trkpt><trkpt lat="44.50414468840661" lon="10.80836166983492"><ele>324.0</ele><time>2026-03-25T15:34:14Z</time></trkpt><trkpt lat="44.50418220485292" lon="10.808474022779695"><ele>323.2</ele><time>2026-03-25T15:34:15Z</time></trkpt><trkpt lat="44.50423317223244" lon="10.808582423309593"><ele>322.4</ele><time>2026-03-25T15:34:16Z</time></trkpt><trkpt lat="44.50427740631134" lon="10.808700346722452"><ele>321.6</ele><time>2026-03-25T15:34:17Z</time></trkpt><trkpt lat="44.50430352631744" lon="10.808823107835325"><ele>320.8</ele><time>2026-03-25T15:34:18Z</time></trkpt><trkpt lat="44.50433426749629" lon="10.8089492990463"><ele>320.0</ele><time>2026-03-25T15:34:19Z</time></trkpt><trkpt lat="44.504358384457134" lon="10.809076951770749"><ele>320.0</ele><time>2026-03-25T15:34:20Z</time></trkpt><trkpt lat="44.504389208608906" lon="10.809216708435061"><ele>320.0</ele><time>2026-03-25T15:34:21Z</time></trkpt><trkpt lat="44.504409644464516" lon="10.80935550029545"><ele>320.0</ele><time>2026-03-25T15:34:22Z</time></trkpt><trkpt lat="44.50442732607386" lon="10.809482334102583"><ele>320.0</ele><time>2026-03-25T15:34:23Z</time></trkpt><trkpt lat="44.504445041083386" lon="10.809589236811268"><ele>320.0</ele><time>2026-03-25T15:34:24Z</time></trkpt><trkpt lat="44.50446301790332" lon="10.809690459598588"><ele>318.2</ele><time>2026-03-25T15:34:25Z</time></trkpt><trkpt lat="44.50448926345337" lon="10.809803282728483"><ele>316.4</ele><time>2026-03-25T15:34:26Z</time></trkpt><trkpt lat="44.50450547223323" lon="10.809911210981792"><ele>314.6</ele><time>2026-03-25T15:34:27Z</time></trkpt><trkpt lat="44.504533029992594" lon="10.810065072706069"><ele>312.8</ele><time>2026-03-25T15:34:29Z</time></trkpt><trkpt lat="44.5045498000271" lon="10.810202485052692"><ele>311.0</ele><time>2026-03-25T15:34:31Z</time></trkpt><trkpt lat="44.504566342045194" lon="10.810323482332288"><ele>310.1666666666667</ele><time>2026-03-25T15:34:33Z</time></trkpt><trkpt lat="44.5045812746258" lon="10.810430051285298"><ele>309.33333333333337</ele><time>2026-03-25T15:34:35Z</time></trkpt><trkpt lat="44.50459097280628" lon="10.810526729662028"><ele>308.5</ele><time>2026-03-25T15:34:37Z</time></trkpt><trkpt lat="44.50458988730607" lon="10.810618175526745"><ele>307.6666666666667</ele><time>2026-03-25T15:34:40Z</time></trkpt><trkpt lat="44.504656934878874" lon="10.810689189884831"><ele>306.8333333333333</ele><time>2026-03-25T15:35:08Z</time></trkpt><trkpt lat="44.504700951806875" lon="10.810767540835059"><ele>306.0</ele><time>2026-03-25T15:35:11Z</time></trkpt><trkpt lat="44.504742323888344" lon="10.81087608551364"><ele>306.0</ele><time>2026-03-25T15:35:14Z</time></trkpt><trkpt lat="44.50478224127453" lon="10.810970387773462"><ele>306.0</ele><time>2026-03-25T15:35:17Z</time></trkpt><trkpt lat="44.50481042694367" lon="10.811057498047756"><ele>306.0</ele><time>2026-03-25T15:35:20Z</time></trkpt><trkpt lat="44.504852595134786" lon="10.811140641385379"><ele>306.0</ele><time>2026-03-25T15:35:23Z</time></trkpt><trkpt lat="44.50488628088167" lon="10.811229574701338"><ele>306.0</ele><time>2026-03-25T15:35:26Z</time></trkpt><trkpt lat="44.5049218376749" lon="10.811325019741904"><ele>306.0</ele><time>2026-03-25T15:35:29Z</time></trkpt><trkpt lat="44.504954924491976" lon="10.81140654327831"><ele>306.0</ele><time>2026-03-25T15:35:32Z</time></trkpt><trkpt lat="44.504993121448145" lon="10.811500020418716"><ele>306.5</ele><time>2026-03-25T15:35:35Z</time></trkpt><trkpt lat="44.50504330539969" lon="10.811591273597054"><ele>307.0</ele><time>2026-03-25T15:35:38Z</time></trkpt><trkpt lat="44.50510076719033" lon="10.811668423959008"><ele>307.5</ele><time>2026-03-25T15:35:41Z</time></trkpt><trkpt lat="44.50517212589916" lon="10.811733492297506"><ele>308.0</ele><time>2026-03-25T15:35:44Z</time></trkpt><trkpt lat="44.50522813827073" lon="10.811779555318958"><ele>308.5</ele><time>2026-03-25T15:35:46Z</time></trkpt><trkpt lat="44.50529654504281" lon="10.811837256461994"><ele>309.0</ele><time>2026-03-25T15:35:48Z</time></trkpt><trkpt lat="44.50536475424416" lon="10.811887299850563"><ele>307.59999999999997</ele><time>2026-03-25T15:35:50Z</time></trkpt><trkpt lat="44.505451133366904" lon="10.811940087684986"><ele>306.2</ele><time>2026-03-25T15:35:52Z</time></trkpt><trkpt lat="44.50553951598969" lon="10.81201926420685"><ele>304.79999999999995</ele><time>2026-03-25T15:35:54Z</time></trkpt><trkpt lat="44.505625856546196" lon="10.812108141582573"><ele>303.4</ele><time>2026-03-25T15:35:56Z</time></trkpt><trkpt lat="44.50569477566779" lon="10.81221184573489"><ele>302.0</ele><time>2026-03-25T15:35:58Z</time></trkpt><trkpt lat="44.50575532326309" lon="10.812305729376558"><ele>302.0</ele><time>2026-03-25T15:36:00Z</time></trkpt><trkpt lat="44.50581179791259" lon="10.812412546934649"><ele>302.0</ele><time>2026-03-25T15:36:02Z</time></trkpt><trkpt lat="44.50588546992125" lon="10.812506663139859"><ele>302.0</ele><time>2026-03-25T15:36:04Z</time></trkpt><trkpt lat="44.505958697882946" lon="10.812586013058906"><ele>302.0</ele><time>2026-03-25T15:36:06Z</time></trkpt><trkpt lat="44.50602666606122" lon="10.812658929878845"><ele>302.0</ele><time>2026-03-25T15:36:08Z</time></trkpt><trkpt lat="44.50610477338144" lon="10.812726408879257"><ele>301.8</ele><time>2026-03-25T15:36:10Z</time></trkpt><trkpt lat="44.50618265152261" lon="10.812792158076178"><ele>301.6</ele><time>2026-03-25T15:36:12Z</time></trkpt><trkpt lat="44.50626451480449" lon="10.81285655255957"><ele>301.40000000000003</ele><time>2026-03-25T15:36:14Z</time></trkpt><trkpt lat="44.50635289709763" lon="10.81292467419824"><ele>301.2</ele><time>2026-03-25T15:36:16Z</time></trkpt><trkpt lat="44.506445996360846" lon="10.812988654105434"><ele>301.0</ele><time>2026-03-25T15:36:18Z</time></trkpt><trkpt lat="44.50653792329321" lon="10.813074091339198"><ele>300.40000000000003</ele><time>2026-03-25T15:36:20Z</time></trkpt><trkpt lat="44.50662066707469" lon="10.813170879758445"><ele>299.8</ele><time>2026-03-25T15:36:22Z</time></trkpt><trkpt lat="44.506706949813804" lon="10.813255365317"><ele>299.20000000000005</ele><time>2026-03-25T15:36:24Z</time></trkpt><trkpt lat="44.50678552725358" lon="10.813327443884782"><ele>298.6</ele><time>2026-03-25T15:36:26Z</time></trkpt><trkpt lat="44.50684808103382" lon="10.81340379270506"><ele>298.0</ele><time>2026-03-25T15:36:28Z</time></trkpt><trkpt lat="44.50690467741918" lon="10.813478175310697"><ele>298.4</ele><time>2026-03-25T15:36:30Z</time></trkpt><trkpt lat="44.50696323106859" lon="10.813558031287174"><ele>298.8</ele><time>2026-03-25T15:36:32Z</time></trkpt><trkpt lat="44.50702176463041" lon="10.8136503190917"><ele>299.2</ele><time>2026-03-25T15:36:34Z</time></trkpt><trkpt lat="44.5070762376269" lon="10.813762645547177"><ele>299.6</ele><time>2026-03-25T15:36:36Z</time></trkpt><trkpt lat="44.507142536814705" lon="10.81389674232938"><ele>300.0</ele><time>2026-03-25T15:36:38Z</time></trkpt><trkpt lat="44.507180067342965" lon="10.813973924959496"><ele>297.99999999999994</ele><time>2026-03-25T15:36:39Z</time></trkpt><trkpt lat="44.50721761352685" lon="10.814050701781923"><ele>296.0</ele><time>2026-03-25T15:36:40Z</time></trkpt><trkpt lat="44.50725547170205" lon="10.814126233085114"><ele>294.0</ele><time>2026-03-25T15:36:41Z</time></trkpt><trkpt lat="44.50729640512006" lon="10.814202753249518"><ele>292.0</ele><time>2026-03-25T15:36:42Z</time></trkpt><trkpt lat="44.50734026579178" lon="10.814275136757045"><ele>290.0</ele><time>2026-03-25T15:36:43Z</time></trkpt><trkpt lat="44.507380010034446" lon="10.814349112054986"><ele>287.99999999999994</ele><time>2026-03-25T15:36:44Z</time></trkpt><trkpt lat="44.50741620103075" lon="10.81442259494169"><ele>286.0</ele><time>2026-03-25T15:36:45Z</time></trkpt><trkpt lat="44.50749989433211" lon="10.81455684049248"><ele>286.0</ele><time>2026-03-25T15:36:47Z</time></trkpt><trkpt lat="44.507544313941544" lon="10.814620310291415"><ele>286.0</ele><time>2026-03-25T15:36:48Z</time></trkpt><trkpt lat="44.50758824773368" lon="10.8146850201852"><ele>286.0</ele><time>2026-03-25T15:36:49Z</time></trkpt><trkpt lat="44.5076672020776" lon="10.814798471837399"><ele>286.0</ele><time>2026-03-25T15:36:51Z</time></trkpt><trkpt lat="44.50774915192465" lon="10.814905502964896"><ele>286.0</ele><time>2026-03-25T15:36:53Z</time></trkpt><trkpt lat="44.50782095391763" lon="10.814986971223325"><ele>286.0</ele><time>2026-03-25T15:36:55Z</time></trkpt><trkpt lat="44.50787218375971" lon="10.81504836719288"><ele>286.0</ele><time>2026-03-25T15:36:57Z</time></trkpt><trkpt lat="44.50781128255623" lon="10.815114427175121"><ele>286.0</ele><time>2026-03-25T15:37:01Z</time></trkpt><trkpt lat="44.50773377328771" lon="10.815209822165135"><ele>286.0</ele><time>2026-03-25T15:37:04Z</time></trkpt><trkpt lat="44.507658970409736" lon="10.815328072007643"><ele>286.0</ele><time>2026-03-25T15:37:06Z</time></trkpt><trkpt lat="44.507613504524606" lon="10.815396474649708"><ele>286.0</ele><time>2026-03-25T15:37:07Z</time></trkpt><trkpt lat="44.5075182365088" lon="10.81549999964312"><ele>284.5</ele><time>2026-03-25T15:37:09Z</time></trkpt><trkpt lat="44.50745577139186" lon="10.815598175284318"><ele>283.0</ele><time>2026-03-25T15:37:11Z</time></trkpt><trkpt lat="44.5074080168678" lon="10.815685404725944"><ele>281.5</ele><time>2026-03-25T15:37:13Z</time></trkpt><trkpt lat="44.50735556641414" lon="10.815760318990465"><ele>280.0</ele><time>2026-03-25T15:37:15Z</time></trkpt><trkpt lat="44.50731220197873" lon="10.815845989740085"><ele>278.5</ele><time>2026-03-25T15:37:17Z</time></trkpt><trkpt lat="44.50726971769993" lon="10.81593078653972"><ele>277.0</ele><time>2026-03-25T15:37:19Z</time></trkpt><trkpt lat="44.50722062123801" lon="10.816019260172734"><ele>276.16666666666663</ele><time>2026-03-25T15:37:21Z</time></trkpt><trkpt lat="44.50717488301143" lon="10.816129289926144"><ele>275.3333333333333</ele><time>2026-03-25T15:37:24Z</time></trkpt><trkpt lat="44.50713552136268" lon="10.816204371993448"><ele>274.5</ele><time>2026-03-25T15:37:26Z</time></trkpt><trkpt lat="44.50708653278195" lon="10.816315484631891"><ele>273.6666666666667</ele><time>2026-03-25T15:37:28Z</time></trkpt><trkpt lat="44.50703820583421" lon="10.816422793224776"><ele>272.83333333333337</ele><time>2026-03-25T15:37:30Z</time></trkpt><trkpt lat="44.50699785443685" lon="10.8165377305727"><ele>272.0</ele><time>2026-03-25T15:37:32Z</time></trkpt><trkpt lat="44.5069560670475" lon="10.816655592741085"><ele>272.0</ele><time>2026-03-25T15:37:34Z</time></trkpt><trkpt lat="44.50691698294808" lon="10.816778562487382"><ele>272.0</ele><time>2026-03-25T15:37:36Z</time></trkpt><trkpt lat="44.506879630737636" lon="10.8168914157776"><ele>272.0</ele><time>2026-03-25T15:37:38Z</time></trkpt><trkpt lat="44.506843071493115" lon="10.817014908999804"><ele>272.0</ele><time>2026-03-25T15:37:40Z</time></trkpt><trkpt lat="44.50679857714601" lon="10.817140016033123"><ele>272.0</ele><time>2026-03-25T15:37:42Z</time></trkpt><trkpt lat="44.50674621403578" lon="10.817263903720395"><ele>269.2</ele><time>2026-03-25T15:37:44Z</time></trkpt><trkpt lat="44.50668904627838" lon="10.81739868011316"><ele>266.4</ele><time>2026-03-25T15:37:46Z</time></trkpt><trkpt lat="44.50662049593842" lon="10.817518113665848"><ele>263.6</ele><time>2026-03-25T15:37:48Z</time></trkpt><trkpt lat="44.50655039676083" lon="10.817606250600933"><ele>260.8</ele><time>2026-03-25T15:37:50Z</time></trkpt><trkpt lat="44.50648050836703" lon="10.817669311438614"><ele>258.0</ele><time>2026-03-25T15:37:52Z</time></trkpt><trkpt lat="44.50642994686793" lon="10.817729665664853"><ele>256.5</ele><time>2026-03-25T15:37:55Z</time></trkpt><trkpt lat="44.50637463977158" lon="10.817796105387691"><ele>255.0</ele><time>2026-03-25T15:37:58Z</time></trkpt><trkpt lat="44.5063090464647" lon="10.817866506829422"><ele>253.5</ele><time>2026-03-25T15:38:01Z</time></trkpt><trkpt lat="44.506243616103944" lon="10.817955633025674"><ele>252.0</ele><time>2026-03-25T15:38:04Z</time></trkpt><trkpt lat="44.50619057346393" lon="10.818050700806197"><ele>250.5</ele><time>2026-03-25T15:38:07Z</time></trkpt><trkpt lat="44.506133171980345" lon="10.818144227601035"><ele>249.0</ele><time>2026-03-25T15:38:10Z</time></trkpt><trkpt lat="44.50608794793625" lon="10.818206923992491"><ele>249.0</ele><time>2026-03-25T15:38:12Z</time></trkpt><trkpt lat="44.506041598671125" lon="10.81827063246497"><ele>249.0</ele><time>2026-03-25T15:38:14Z</time></trkpt><trkpt lat="44.506018610818934" lon="10.818380227773039"><ele>249.0</ele><time>2026-03-25T15:38:19Z</time></trkpt><trkpt lat="44.506009042831906" lon="10.818478634068734"><ele>249.0</ele><time>2026-03-25T15:38:22Z</time></trkpt><trkpt lat="44.505977733271294" lon="10.818575447160987"><ele>249.0</ele><time>2026-03-25T15:38:25Z</time></trkpt><trkpt lat="44.505962028202696" lon="10.818698142286067"><ele>249.0</ele><time>2026-03-25T15:38:28Z</time></trkpt><trkpt lat="44.50594224033726" lon="10.818832993759091"><ele>247.79999999999998</ele><time>2026-03-25T15:38:31Z</time></trkpt><trkpt lat="44.50593953730928" lon="10.818941407171694"><ele>246.59999999999997</ele><time>2026-03-25T15:38:33Z</time></trkpt><trkpt lat="44.50593500388957" lon="10.81906436168501"><ele>245.4</ele><time>2026-03-25T15:38:35Z</time></trkpt><trkpt lat="44.5059308801005" lon="10.819188848613994"><ele>244.2</ele><time>2026-03-25T15:38:37Z</time></trkpt><trkpt lat="44.505933225095895" lon="10.819321319471305"><ele>243.0</ele><time>2026-03-25T15:38:39Z</time></trkpt><trkpt lat="44.50593182060224" lon="10.819463831059311"><ele>241.83333333333334</ele><time>2026-03-25T15:38:41Z</time></trkpt><trkpt lat="44.50593525660171" lon="10.819606340281393"><ele>240.66666666666669</ele><time>2026-03-25T15:38:43Z</time></trkpt><trkpt lat="44.50594219480276" lon="10.819739414966108"><ele>239.5</ele><time>2026-03-25T15:38:45Z</time></trkpt><trkpt lat="44.505942561203966" lon="10.819849558055534"><ele>238.33333333333334</ele><time>2026-03-25T15:38:47Z</time></trkpt><trkpt lat="44.505934282776835" lon="10.81994295031154"><ele>237.16666666666669</ele><time>2026-03-25T15:38:50Z</time></trkpt><trkpt lat="44.50593072463219" lon="10.820033242942959"><ele>236.0</ele><time>2026-03-25T15:38:53Z</time></trkpt><trkpt lat="44.50593081868101" lon="10.820124300529622"><ele>234.16666666666669</ele><time>2026-03-25T15:39:12Z</time></trkpt><trkpt lat="44.50596290575988" lon="10.820222430330071"><ele>232.33333333333334</ele><time>2026-03-25T15:39:15Z</time></trkpt><trkpt lat="44.50597753460002" lon="10.820335799628092"><ele>230.5</ele><time>2026-03-25T15:39:26Z</time></trkpt><trkpt lat="44.505985857079715" lon="10.82044517341789"><ele>228.66666666666669</ele><time>2026-03-25T15:39:29Z</time></trkpt><trkpt lat="44.50598195145244" lon="10.820555323245655"><ele>226.83333333333334</ele><time>2026-03-25T15:39:32Z</time></trkpt><trkpt lat="44.50597830390888" lon="10.820644845076428"><ele>225.0</ele><time>2026-03-25T15:39:35Z</time></trkpt><trkpt lat="44.5059778577925" lon="10.820754543258134"><ele>225.0</ele><time>2026-03-25T15:39:38Z</time></trkpt><trkpt lat="44.50597085863629" lon="10.820864523615592"><ele>225.0</ele><time>2026-03-25T15:39:42Z</time></trkpt><trkpt lat="44.505955478548096" lon="10.820965912464612"><ele>225.0</ele><time>2026-03-25T15:39:45Z</time></trkpt><trkpt lat="44.5059494669977" lon="10.821092989127251"><ele>225.0</ele><time>2026-03-25T15:39:48Z</time></trkpt><trkpt lat="44.50592424268204" lon="10.82121296415938"><ele>225.0</ele><time>2026-03-25T15:39:50Z</time></trkpt><trkpt lat="44.50590220684385" lon="10.821333816918589"><ele>225.0</ele><time>2026-03-25T15:39:52Z</time></trkpt><trkpt lat="44.50590651768559" lon="10.821454505087802"><ele>223.16666666666666</ele><time>2026-03-25T15:39:54Z</time></trkpt><trkpt lat="44.50593274909138" lon="10.821578737573958"><ele>221.33333333333331</ele><time>2026-03-25T15:39:56Z</time></trkpt><trkpt lat="44.50596692998083" lon="10.821678293299021"><ele>219.5</ele><time>2026-03-25T15:39:58Z</time></trkpt><trkpt lat="44.50600815881487" lon="10.821780382677638"><ele>217.66666666666666</ele><time>2026-03-25T15:40:01Z</time></trkpt><trkpt lat="44.50604991956147" lon="10.821860463745686"><ele>215.83333333333331</ele><time>2026-03-25T15:40:03Z</time></trkpt><trkpt lat="44.50608463408257" lon="10.821956862727454"><ele>214.0</ele><time>2026-03-25T15:40:05Z</time></trkpt><trkpt lat="44.50611784774074" lon="10.822040052592115"><ele>212.66666666666666</ele><time>2026-03-25T15:40:07Z</time></trkpt><trkpt lat="44.50615660363003" lon="10.82212926591243"><ele>211.33333333333331</ele><time>2026-03-25T15:40:09Z</time></trkpt><trkpt lat="44.5061951717193" lon="10.822223499644313"><ele>210.0</ele><time>2026-03-25T15:40:11Z</time></trkpt><trkpt lat="44.506237217409335" lon="10.822316063525356"><ele>208.66666666666669</ele><time>2026-03-25T15:40:13Z</time></trkpt><trkpt lat="44.50627040106067" lon="10.822414859163334"><ele>207.33333333333334</ele><time>2026-03-25T15:40:15Z</time></trkpt><trkpt lat="44.5063073989636" lon="10.822521105207015"><ele>206.0</ele><time>2026-03-25T15:40:17Z</time></trkpt><trkpt lat="44.50633909871091" lon="10.822611220631941"><ele>206.00000000000003</ele><time>2026-03-25T15:40:19Z</time></trkpt><trkpt lat="44.50636522119759" lon="10.82269581108236"><ele>206.0</ele><time>2026-03-25T15:40:21Z</time></trkpt><trkpt lat="44.506405978259096" lon="10.822806115174243"><ele>206.0</ele><time>2026-03-25T15:40:24Z</time></trkpt><trkpt lat="44.50643579512165" lon="10.822909420944919"><ele>206.0</ele><time>2026-03-25T15:40:27Z</time></trkpt><trkpt lat="44.50648257574512" lon="10.822978099590259"><ele>206.00000000000003</ele><time>2026-03-25T15:40:29Z</time></trkpt><trkpt lat="44.506539973217734" lon="10.823084560126135"><ele>206.0</ele><time>2026-03-25T15:40:31Z</time></trkpt><trkpt lat="44.50657831185495" lon="10.823210282225194"><ele>206.00000000000003</ele><time>2026-03-25T15:40:33Z</time></trkpt><trkpt lat="44.50661330841228" lon="10.823312451634676"><ele>206.0</ele><time>2026-03-25T15:40:35Z</time></trkpt><trkpt lat="44.50666871027731" lon="10.823371388417415"><ele>206.0</ele><time>2026-03-25T15:40:38Z</time></trkpt><trkpt lat="44.506721752394675" lon="10.823451483670336"><ele>206.0</ele><time>2026-03-25T15:40:44Z</time></trkpt><trkpt lat="44.50679186539152" lon="10.823515731932348"><ele>206.00000000000003</ele><time>2026-03-25T15:40:49Z</time></trkpt><trkpt lat="44.50686019274863" lon="10.823543520830267"><ele>206.0</ele><time>2026-03-25T15:40:52Z</time></trkpt><trkpt lat="44.50694732327864" lon="10.82360460709746"><ele>206.50000000000003</ele><time>2026-03-25T15:40:55Z</time></trkpt><trkpt lat="44.5070310552731" lon="10.823635560932646"><ele>207.0</ele><time>2026-03-25T15:40:57Z</time></trkpt><trkpt lat="44.50709083610962" lon="10.823703625283338"><ele>207.5</ele><time>2026-03-25T15:40:59Z</time></trkpt><trkpt lat="44.507145594632775" lon="10.823768085862662"><ele>208.0</ele><time>2026-03-25T15:41:02Z</time></trkpt><trkpt lat="44.507203122752045" lon="10.823858198822489"><ele>208.50000000000003</ele><time>2026-03-25T15:41:06Z</time></trkpt><trkpt lat="44.507245397527356" lon="10.82394896464421"><ele>209.0</ele><time>2026-03-25T15:41:10Z</time></trkpt><trkpt lat="44.507320580018146" lon="10.82400455998373"><ele>209.00000000000003</ele><time>2026-03-25T15:41:13Z</time></trkpt><trkpt lat="44.50738547847421" lon="10.824068445859316"><ele>209.0</ele><time>2026-03-25T15:41:16Z</time></trkpt><trkpt lat="44.507438911018156" lon="10.824115517896226"><ele>209.0</ele><time>2026-03-25T15:41:18Z</time></trkpt><trkpt lat="44.507500190783695" lon="10.824209949297314"><ele>209.0</ele><time>2026-03-25T15:41:21Z</time></trkpt><trkpt lat="44.50753245347423" lon="10.824314275435343"><ele>209.00000000000003</ele><time>2026-03-25T15:41:24Z</time></trkpt><trkpt lat="44.50755021632369" lon="10.824419292803361"><ele>209.0</ele><time>2026-03-25T15:41:27Z</time></trkpt><trkpt lat="44.5075601081646" lon="10.824534683186174"><ele>209.66666666666669</ele><time>2026-03-25T15:41:30Z</time></trkpt><trkpt lat="44.50757728711879" lon="10.824645255132568"><ele>210.33333333333334</ele><time>2026-03-25T15:41:33Z</time></trkpt><trkpt lat="44.507592812456565" lon="10.824740147844315"><ele>211.0</ele><time>2026-03-25T15:41:36Z</time></trkpt><trkpt lat="44.50762830218564" lon="10.824841360354364"><ele>211.66666666666669</ele><time>2026-03-25T15:41:39Z</time></trkpt><trkpt lat="44.507672536552036" lon="10.824927674894392"><ele>212.33333333333334</ele><time>2026-03-25T15:41:42Z</time></trkpt><trkpt lat="44.507719671148095" lon="10.825025179319207"><ele>213.0</ele><time>2026-03-25T15:41:45Z</time></trkpt><trkpt lat="44.50776462446957" lon="10.825133927496061"><ele>213.83333333333334</ele><time>2026-03-25T15:41:48Z</time></trkpt><trkpt lat="44.50781483037512" lon="10.82524448672064"><ele>214.66666666666669</ele><time>2026-03-25T15:41:51Z</time></trkpt><trkpt lat="44.50785610925351" lon="10.825344526319133"><ele>215.5</ele><time>2026-03-25T15:41:54Z</time></trkpt><trkpt lat="44.50788532318199" lon="10.825423301585154"><ele>216.33333333333334</ele><time>2026-03-25T15:41:56Z</time></trkpt><trkpt lat="44.50792780508741" lon="10.82551450334177"><ele>217.16666666666669</ele><time>2026-03-25T15:41:58Z</time></trkpt><trkpt lat="44.50797695406055" lon="10.825596299682447"><ele>218.0</ele><time>2026-03-25T15:42:00Z</time></trkpt><trkpt lat="44.508026601774965" lon="10.825688668083483"><ele>218.0</ele><time>2026-03-25T15:42:03Z</time></trkpt><trkpt lat="44.50806746936109" lon="10.82575877245996"><ele>218.0</ele><time>2026-03-25T15:42:05Z</time></trkpt><trkpt lat="44.508108238203086" lon="10.82582692832266"><ele>218.0</ele><time>2026-03-25T15:42:07Z</time></trkpt><trkpt lat="44.508145156258436" lon="10.825919442130584"><ele>218.0</ele><time>2026-03-25T15:42:10Z</time></trkpt><trkpt lat="44.50818667753869" lon="10.826006417300219"><ele>218.0</ele><time>2026-03-25T15:42:13Z</time></trkpt><trkpt lat="44.50822992243435" lon="10.826084195056504"><ele>218.0</ele><time>2026-03-25T15:42:16Z</time></trkpt><trkpt lat="44.50826815589692" lon="10.826176698888192"><ele>218.0</ele><time>2026-03-25T15:42:20Z</time></trkpt><trkpt lat="44.508289471102024" lon="10.82626614826664"><ele>218.50000000000003</ele><time>2026-03-25T15:42:23Z</time></trkpt><trkpt lat="44.50834334721259" lon="10.826351149242777"><ele>219.0</ele><time>2026-03-25T15:42:27Z</time></trkpt><trkpt lat="44.50838837053264" lon="10.826442453370964"><ele>219.5</ele><time>2026-03-25T15:42:30Z</time></trkpt><trkpt lat="44.508386242822354" lon="10.826571935974036"><ele>220.0</ele><time>2026-03-25T15:42:33Z</time></trkpt><trkpt lat="44.50841204573315" lon="10.826674801668"><ele>220.50000000000003</ele><time>2026-03-25T15:42:35Z</time></trkpt><trkpt lat="44.50844120906903" lon="10.826772513350708"><ele>221.0</ele><time>2026-03-25T15:42:37Z</time></trkpt><trkpt lat="44.508460772931855" lon="10.82685730210877"><ele>221.00000000000003</ele><time>2026-03-25T15:42:39Z</time></trkpt><trkpt lat="44.508508102141114" lon="10.826932009964066"><ele>221.0</ele><time>2026-03-25T15:42:41Z</time></trkpt><trkpt lat="44.508565470294734" lon="10.827000320512429"><ele>221.0</ele><time>2026-03-25T15:42:43Z</time></trkpt><trkpt lat="44.50860280668913" lon="10.827092660125667"><ele>221.0</ele><time>2026-03-25T15:42:45Z</time></trkpt><trkpt lat="44.50861797104097" lon="10.827193954714717"><ele>221.00000000000003</ele><time>2026-03-25T15:42:47Z</time></trkpt><trkpt lat="44.50862422830072" lon="10.827323601149121"><ele>221.0</ele><time>2026-03-25T15:42:50Z</time></trkpt><trkpt lat="44.50864423497395" lon="10.827438983831144"><ele>221.00000000000003</ele><time>2026-03-25T15:42:53Z</time></trkpt><trkpt lat="44.50868484960493" lon="10.827549939728682"><ele>221.0</ele><time>2026-03-25T15:42:56Z</time></trkpt><trkpt lat="44.50872397741427" lon="10.827653578001376"><ele>221.0</ele><time>2026-03-25T15:42:59Z</time></trkpt><trkpt lat="44.508767538592565" lon="10.827763799140945"><ele>221.0</ele><time>2026-03-25T15:43:02Z</time></trkpt><trkpt lat="44.508806620352" lon="10.827872203996417"><ele>221.00000000000003</ele><time>2026-03-25T15:43:05Z</time></trkpt><trkpt lat="44.50884230350809" lon="10.82797382288608"><ele>221.0</ele><time>2026-03-25T15:43:08Z</time></trkpt><trkpt lat="44.50887984783766" lon="10.82807752871147"><ele>220.83333333333334</ele><time>2026-03-25T15:43:11Z</time></trkpt><trkpt lat="44.50892029109978" lon="10.828171652729855"><ele>220.66666666666669</ele><time>2026-03-25T15:43:14Z</time></trkpt><trkpt lat="44.50896549122117" lon="10.82827254933378"><ele>220.5</ele><time>2026-03-25T15:43:17Z</time></trkpt><trkpt lat="44.509037569449994" lon="10.828355069276828"><ele>220.33333333333331</ele><time>2026-03-25T15:43:20Z</time></trkpt><trkpt lat="44.509075717435415" lon="10.828426320253465"><ele>220.16666666666666</ele><time>2026-03-25T15:43:22Z</time></trkpt><trkpt lat="44.509141214736054" lon="10.828496982105285"><ele>220.0</ele><time>2026-03-25T15:43:25Z</time></trkpt><trkpt lat="44.509207843397895" lon="10.82854971260123"><ele>219.99999999999997</ele><time>2026-03-25T15:43:27Z</time></trkpt><trkpt lat="44.50929089051915" lon="10.828622270804763"><ele>220.0</ele><time>2026-03-25T15:43:29Z</time></trkpt><trkpt lat="44.5093892483624" lon="10.828697498990076"><ele>220.0</ele><time>2026-03-25T15:43:31Z</time></trkpt><trkpt lat="44.50945581964269" lon="10.828731013973353"><ele>220.0</ele><time>2026-03-25T15:43:32Z</time></trkpt><trkpt lat="44.509514739781046" lon="10.82877549746399"><ele>219.99999999999997</ele><time>2026-03-25T15:43:33Z</time></trkpt><trkpt lat="44.50957817436999" lon="10.828819625106178"><ele>220.0</ele><time>2026-03-25T15:43:34Z</time></trkpt><trkpt lat="44.509651232328146" lon="10.828854937839367"><ele>220.2</ele><time>2026-03-25T15:43:35Z</time></trkpt><trkpt lat="44.509755453408076" lon="10.828926439296975"><ele>220.4</ele><time>2026-03-25T15:43:37Z</time></trkpt><trkpt lat="44.5098470654" lon="10.829038578399967"><ele>220.60000000000002</ele><time>2026-03-25T15:43:39Z</time></trkpt><trkpt lat="44.50992562442756" lon="10.82916704602308"><ele>220.8</ele><time>2026-03-25T15:43:41Z</time></trkpt><trkpt lat="44.50998117064713" lon="10.82926043619393"><ele>221.0</ele><time>2026-03-25T15:43:43Z</time></trkpt><trkpt lat="44.510040011709314" lon="10.829342560769977"><ele>220.50000000000003</ele><time>2026-03-25T15:43:45Z</time></trkpt><trkpt lat="44.51005974010222" lon="10.829426953633416"><ele>220.0</ele><time>2026-03-25T15:43:47Z</time></trkpt><trkpt lat="44.51004566979724" lon="10.82955388121778"><ele>219.5</ele><time>2026-03-25T15:43:50Z</time></trkpt><trkpt lat="44.51003484834191" lon="10.82968876796986"><ele>219.0</ele><time>2026-03-25T15:43:52Z</time></trkpt><trkpt lat="44.51003380519567" lon="10.829788579405946"><ele>218.50000000000003</ele><time>2026-03-25T15:43:54Z</time></trkpt><trkpt lat="44.510065851057156" lon="10.829891548871531"><ele>218.0</ele><time>2026-03-25T15:43:57Z</time></trkpt><trkpt lat="44.51010688752625" lon="10.829966131202092"><ele>218.00000000000003</ele><time>2026-03-25T15:43:59Z</time></trkpt><trkpt lat="44.510166839867516" lon="10.830056215659189"><ele>218.0</ele><time>2026-03-25T15:44:02Z</time></trkpt><trkpt lat="44.51021794743565" lon="10.830114187271144"><ele>218.0</ele><time>2026-03-25T15:44:04Z</time></trkpt><trkpt lat="44.51029602556477" lon="10.830088435659679"><ele>218.0</ele><time>2026-03-25T15:44:08Z</time></trkpt><trkpt lat="44.510367290630754" lon="10.830064334974201"><ele>218.00000000000003</ele><time>2026-03-25T15:44:11Z</time></trkpt><trkpt lat="44.5104398166621" lon="10.830095503525497"><ele>218.0</ele><time>2026-03-25T15:44:16Z</time></trkpt><trkpt lat="44.510506103085554" lon="10.830163534214488"><ele>216.50000000000003</ele><time>2026-03-25T15:44:19Z</time></trkpt><trkpt lat="44.51054958058644" lon="10.830232099209312"><ele>215.0</ele><time>2026-03-25T15:44:22Z</time></trkpt><trkpt lat="44.510611774986074" lon="10.83030848445103"><ele>213.5</ele><time>2026-03-25T15:44:25Z</time></trkpt><trkpt lat="44.51065569527246" lon="10.8303833368526"><ele>212.0</ele><time>2026-03-25T15:44:27Z</time></trkpt><trkpt lat="44.51071872503836" lon="10.830466060875102"><ele>210.50000000000003</ele><time>2026-03-25T15:44:29Z</time></trkpt><trkpt lat="44.510779832438296" lon="10.830553130512973"><ele>209.0</ele><time>2026-03-25T15:44:31Z</time></trkpt><trkpt lat="44.510827704208864" lon="10.830635753587805"><ele>209.0</ele><time>2026-03-25T15:44:33Z</time></trkpt><trkpt lat="44.51086685915618" lon="10.830711447679699"><ele>209.0</ele><time>2026-03-25T15:44:35Z</time></trkpt><trkpt lat="44.510922006909254" lon="10.830763585032148"><ele>209.0</ele><time>2026-03-25T15:44:39Z</time></trkpt><trkpt lat="44.510986330089196" lon="10.830824932409543"><ele>209.0</ele><time>2026-03-25T15:44:42Z</time></trkpt><trkpt lat="44.511038239606464" lon="10.830883897965215"><ele>209.0</ele><time>2026-03-25T15:44:46Z</time></trkpt><trkpt lat="44.51108311119566" lon="10.830946428600997"><ele>209.0</ele><time>2026-03-25T15:44:49Z</time></trkpt><trkpt lat="44.511109621379404" lon="10.83104060192422"><ele>209.0</ele><time>2026-03-25T15:44:52Z</time></trkpt><trkpt lat="44.51113480046283" lon="10.831123075683553"><ele>207.28571428571428</ele><time>2026-03-25T15:44:56Z</time></trkpt><trkpt lat="44.51118248201554" lon="10.831185016434828"><ele>205.57142857142856</ele><time>2026-03-25T15:44:59Z</time></trkpt><trkpt lat="44.511233515144916" lon="10.831268106943842"><ele>203.85714285714286</ele><time>2026-03-25T15:45:01Z</time></trkpt><trkpt lat="44.51126309927289" lon="10.83137174189804"><ele>202.14285714285714</ele><time>2026-03-25T15:45:03Z</time></trkpt><trkpt lat="44.51129039452115" lon="10.83146423196033"><ele>200.42857142857144</ele><time>2026-03-25T15:45:05Z</time></trkpt><trkpt lat="44.511330212393545" lon="10.831549120960748"><ele>198.71428571428572</ele><time>2026-03-25T15:45:07Z</time></trkpt><trkpt lat="44.511374797067205" lon="10.831643794573065"><ele>197.0</ele><time>2026-03-25T15:45:09Z</time></trkpt><trkpt lat="44.51142784195479" lon="10.831727733566415"><ele>193.50000000000003</ele><time>2026-03-25T15:45:11Z</time></trkpt><trkpt lat="44.51148185369789" lon="10.831809141898518"><ele>190.0</ele><time>2026-03-25T15:45:13Z</time></trkpt><trkpt lat="44.51153731051886" lon="10.831906497746767"><ele>186.5</ele><time>2026-03-25T15:45:15Z</time></trkpt><trkpt lat="44.511591847328184" lon="10.83199658812921"><ele>183.0</ele><time>2026-03-25T15:45:17Z</time></trkpt><trkpt lat="44.511652899399785" lon="10.832088623047639"><ele>179.5</ele><time>2026-03-25T15:45:19Z</time></trkpt><trkpt lat="44.51171999215231" lon="10.832177722421141"><ele>176.0</ele><time>2026-03-25T15:45:21Z</time></trkpt><trkpt lat="44.51178245251794" lon="10.832272566981459"><ele>176.0</ele><time>2026-03-25T15:45:23Z</time></trkpt><trkpt lat="44.511844172598614" lon="10.83237338913103"><ele>176.0</ele><time>2026-03-25T15:45:25Z</time></trkpt><trkpt lat="44.51190238177832" lon="10.832470431683307"><ele>176.0</ele><time>2026-03-25T15:45:27Z</time></trkpt><trkpt lat="44.51195851010537" lon="10.832565926541115"><ele>176.0</ele><time>2026-03-25T15:45:29Z</time></trkpt><trkpt lat="44.512027489024604" lon="10.832659667988974"><ele>176.0</ele><time>2026-03-25T15:45:31Z</time></trkpt><trkpt lat="44.512078807657765" lon="10.83273733362275"><ele>176.0</ele><time>2026-03-25T15:45:33Z</time></trkpt><trkpt lat="44.51210211183611" lon="10.832829447724977"><ele>174.66666666666666</ele><time>2026-03-25T15:45:35Z</time></trkpt><trkpt lat="44.51206329116384" lon="10.832926670421104"><ele>173.33333333333331</ele><time>2026-03-25T15:45:38Z</time></trkpt><trkpt lat="44.51204587980218" lon="10.83301267436746"><ele>172.0</ele><time>2026-03-25T15:46:03Z</time></trkpt><trkpt lat="44.512027099519585" lon="10.833140998301808"><ele>170.66666666666666</ele><time>2026-03-25T15:46:06Z</time></trkpt><trkpt lat="44.51200019417016" lon="10.833234290319197"><ele>169.33333333333334</ele><time>2026-03-25T15:46:08Z</time></trkpt><trkpt lat="44.51198175354479" lon="10.833377260008486"><ele>168.0</ele><time>2026-03-25T15:46:10Z</time></trkpt><trkpt lat="44.51196184831735" lon="10.833531160131036"><ele>166.83333333333334</ele><time>2026-03-25T15:46:12Z</time></trkpt><trkpt lat="44.511935987780745" lon="10.833632124799133"><ele>165.66666666666666</ele><time>2026-03-25T15:46:14Z</time></trkpt><trkpt lat="44.51191616561731" lon="10.833734680820514"><ele>164.5</ele><time>2026-03-25T15:46:16Z</time></trkpt><trkpt lat="44.511894101888444" lon="10.833837165261675"><ele>163.33333333333331</ele><time>2026-03-25T15:46:18Z</time></trkpt><trkpt lat="44.511870224043875" lon="10.833938113418212"><ele>162.16666666666666</ele><time>2026-03-25T15:46:20Z</time></trkpt><trkpt lat="44.51185307495437" lon="10.83402931255828"><ele>161.0</ele><time>2026-03-25T15:46:22Z</time></trkpt><trkpt lat="44.51184501698137" lon="10.834144791093895"><ele>161.0</ele><time>2026-03-25T15:46:25Z</time></trkpt><trkpt lat="44.51186376221659" lon="10.834241267481477"><ele>161.0</ele><time>2026-03-25T15:46:30Z</time></trkpt><trkpt lat="44.51186136123662" lon="10.834352573587188"><ele>161.0</ele><time>2026-03-25T15:46:34Z</time></trkpt><trkpt lat="44.511890398828925" lon="10.834459925349346"><ele>161.0</ele><time>2026-03-25T15:46:38Z</time></trkpt><trkpt lat="44.51191901603927" lon="10.834555280363134"><ele>161.0</ele><time>2026-03-25T15:46:41Z</time></trkpt><trkpt lat="44.51195316462644" lon="10.834646375164986"><ele>161.0</ele><time>2026-03-25T15:46:44Z</time></trkpt><trkpt lat="44.51199877515824" lon="10.8347187270884"><ele>161.0</ele><time>2026-03-25T15:46:47Z</time></trkpt><trkpt lat="44.512045687568154" lon="10.834806589105881"><ele>160.66666666666666</ele><time>2026-03-25T15:46:50Z</time></trkpt><trkpt lat="44.51209724068187" lon="10.834894816772232"><ele>160.33333333333331</ele><time>2026-03-25T15:46:53Z</time></trkpt><trkpt lat="44.51215219563809" lon="10.834989908262417"><ele>160.0</ele><time>2026-03-25T15:46:56Z</time></trkpt><trkpt lat="44.512215888669395" lon="10.835083465332616"><ele>159.66666666666666</ele><time>2026-03-25T15:46:59Z</time></trkpt><trkpt lat="44.512279110773" lon="10.835180779799106"><ele>159.33333333333334</ele><time>2026-03-25T15:47:02Z</time></trkpt><trkpt lat="44.5123462415071" lon="10.835272989313417"><ele>159.0</ele><time>2026-03-25T15:47:05Z</time></trkpt><trkpt lat="44.512391792550375" lon="10.835338781235869"><ele>158.85714285714286</ele><time>2026-03-25T15:47:07Z</time></trkpt><trkpt lat="44.51244325785222" lon="10.835400418823685"><ele>158.71428571428572</ele><time>2026-03-25T15:47:09Z</time></trkpt><trkpt lat="44.51250145384255" lon="10.835458934262208"><ele>158.57142857142858</ele><time>2026-03-25T15:47:11Z</time></trkpt><trkpt lat="44.51256126216975" lon="10.835518569167391"><ele>158.42857142857144</ele><time>2026-03-25T15:47:13Z</time></trkpt><trkpt lat="44.51262596382318" lon="10.835576811143543"><ele>158.28571428571428</ele><time>2026-03-25T15:47:15Z</time></trkpt><trkpt lat="44.5126921912637" lon="10.835632217729863"><ele>158.14285714285717</ele><time>2026-03-25T15:47:17Z</time></trkpt><trkpt lat="44.51275777608722" lon="10.835691768337659"><ele>158.0</ele><time>2026-03-25T15:47:19Z</time></trkpt><trkpt lat="44.51282768425897" lon="10.83574805892908"><ele>158.0</ele><time>2026-03-25T15:47:21Z</time></trkpt><trkpt lat="44.51289930528248" lon="10.835809285403435"><ele>158.0</ele><time>2026-03-25T15:47:23Z</time></trkpt><trkpt lat="44.51296900766459" lon="10.835874000002015"><ele>158.0</ele><time>2026-03-25T15:47:25Z</time></trkpt><trkpt lat="44.513033627079146" lon="10.835939816867185"><ele>158.0</ele><time>2026-03-25T15:47:27Z</time></trkpt><trkpt lat="44.513092538049925" lon="10.836007753277597"><ele>158.0</ele><time>2026-03-25T15:47:29Z</time></trkpt><trkpt lat="44.513155367435466" lon="10.836049234927783"><ele>158.0</ele><time>2026-03-25T15:47:31Z</time></trkpt><trkpt lat="44.513230824319386" lon="10.836141706097303"><ele>157.4</ele><time>2026-03-25T15:47:34Z</time></trkpt><trkpt lat="44.51329592169642" lon="10.836234932276065"><ele>156.8</ele><time>2026-03-25T15:47:36Z</time></trkpt><trkpt lat="44.51339165891521" lon="10.836302563029946"><ele>156.2</ele><time>2026-03-25T15:47:38Z</time></trkpt><trkpt lat="44.51350205166994" lon="10.836363982776827"><ele>155.6</ele><time>2026-03-25T15:47:40Z</time></trkpt><trkpt lat="44.513592955669075" lon="10.836463736050137"><ele>155.0</ele><time>2026-03-25T15:47:42Z</time></trkpt><trkpt lat="44.513674854436985" lon="10.836576410179772"><ele>155.0</ele><time>2026-03-25T15:47:44Z</time></trkpt><trkpt lat="44.51376326868824" lon="10.83667305661524"><ele>155.0</ele><time>2026-03-25T15:47:46Z</time></trkpt><trkpt lat="44.51382273830366" lon="10.836750911116354"><ele>155.0</ele><time>2026-03-25T15:47:48Z</time></trkpt><trkpt lat="44.51386846754511" lon="10.836813420399865"><ele>155.0</ele><time>2026-03-25T15:47:50Z</time></trkpt><trkpt lat="44.51392810883032" lon="10.83689381383634"><ele>155.0</ele><time>2026-03-25T15:47:54Z</time></trkpt><trkpt lat="44.51397995618716" lon="10.836955619468032"><ele>155.0</ele><time>2026-03-25T15:47:59Z</time></trkpt><trkpt lat="44.51402549394874" lon="10.837022740172902"><ele>155.0</ele><time>2026-03-25T15:48:02Z</time></trkpt><trkpt lat="44.51407234357456" lon="10.83708916091402"><ele>155.0</ele><time>2026-03-25T15:48:04Z</time></trkpt><trkpt lat="44.51413794496423" lon="10.837177800599216"><ele>155.0</ele><time>2026-03-25T15:48:06Z</time></trkpt><trkpt lat="44.51420858965695" lon="10.83726703477944"><ele>155.0</ele><time>2026-03-25T15:48:08Z</time></trkpt><trkpt lat="44.514284199624" lon="10.837379794113081"><ele>155.0</ele><time>2026-03-25T15:48:10Z</time></trkpt><trkpt lat="44.51436346944978" lon="10.837481228025856"><ele>155.0</ele><time>2026-03-25T15:48:12Z</time></trkpt><trkpt lat="44.51446091883638" lon="10.83756042936999"><ele>155.0</ele><time>2026-03-25T15:48:14Z</time></trkpt><trkpt lat="44.514534165911186" lon="10.837685622734814"><ele>155.0</ele><time>2026-03-25T15:48:16Z</time></trkpt><trkpt lat="44.51459872359856" lon="10.837819883511596"><ele>155.0</ele><time>2026-03-25T15:48:18Z</time></trkpt><trkpt lat="44.514680986016025" lon="10.837936060927776"><ele>153.5</ele><time>2026-03-25T15:48:20Z</time></trkpt><trkpt lat="44.51476079723608" lon="10.838048387672407"><ele>152.0</ele><time>2026-03-25T15:48:22Z</time></trkpt><trkpt lat="44.51483416234614" lon="10.838168748000683"><ele>150.5</ele><time>2026-03-25T15:48:24Z</time></trkpt><trkpt lat="44.51491280707091" lon="10.838280632319714"><ele>149.0</ele><time>2026-03-25T15:48:26Z</time></trkpt><trkpt lat="44.51500127779447" lon="10.838376612599061"><ele>149.4</ele><time>2026-03-25T15:48:28Z</time></trkpt><trkpt lat="44.51505819651294" lon="10.838512642488114"><ele>149.8</ele><time>2026-03-25T15:48:30Z</time></trkpt><trkpt lat="44.51514091121973" lon="10.838628103407297"><ele>150.2</ele><time>2026-03-25T15:48:32Z</time></trkpt><trkpt lat="44.51516261147942" lon="10.838716261745589"><ele>150.6</ele><time>2026-03-25T15:48:33Z</time></trkpt><trkpt lat="44.51525631259475" lon="10.838830290474263"><ele>151.0</ele><time>2026-03-25T15:48:35Z</time></trkpt><trkpt lat="44.51533792548174" lon="10.83888438087604"><ele>150.83333333333334</ele><time>2026-03-25T15:48:37Z</time></trkpt><trkpt lat="44.515421974453496" lon="10.838930628851054"><ele>150.66666666666669</ele><time>2026-03-25T15:48:40Z</time></trkpt><trkpt lat="44.5154749520236" lon="10.839007113083571"><ele>150.5</ele><time>2026-03-25T15:48:42Z</time></trkpt><trkpt lat="44.515523737013986" lon="10.839106871341883"><ele>150.33333333333334</ele><time>2026-03-25T15:48:44Z</time></trkpt><trkpt lat="44.51559445059429" lon="10.839184858963234"><ele>150.16666666666666</ele><time>2026-03-25T15:48:46Z</time></trkpt><trkpt lat="44.515673573553194" lon="10.839271562825271"><ele>150.0</ele><time>2026-03-25T15:48:48Z</time></trkpt><trkpt lat="44.51573626031641" lon="10.839385006633325"><ele>149.8</ele><time>2026-03-25T15:48:50Z</time></trkpt><trkpt lat="44.51581632069502" lon="10.83949339088604"><ele>149.6</ele><time>2026-03-25T15:48:52Z</time></trkpt><trkpt lat="44.515890692990666" lon="10.839606627613017"><ele>149.4</ele><time>2026-03-25T15:48:54Z</time></trkpt><trkpt lat="44.51596080413174" lon="10.839725720391055"><ele>149.2</ele><time>2026-03-25T15:48:56Z</time></trkpt><trkpt lat="44.51603573067539" lon="10.839847719268965"><ele>149.0</ele><time>2026-03-25T15:48:58Z</time></trkpt><trkpt lat="44.51612646321403" lon="10.839951343293446"><ele>149.0</ele><time>2026-03-25T15:49:00Z</time></trkpt><trkpt lat="44.51622675429067" lon="10.840020019849101"><ele>149.0</ele><time>2026-03-25T15:49:02Z</time></trkpt><trkpt lat="44.516290410866034" lon="10.840075136237934"><ele>149.0</ele><time>2026-03-25T15:49:04Z</time></trkpt><trkpt lat="44.51636735154854" lon="10.840159468575688"><ele>149.0</ele><time>2026-03-25T15:49:06Z</time></trkpt><trkpt lat="44.516457971755415" lon="10.840230896088162"><ele>149.0</ele><time>2026-03-25T15:49:08Z</time></trkpt><trkpt lat="44.51655583275449" lon="10.84030501923011"><ele>149.2</ele><time>2026-03-25T15:49:10Z</time></trkpt><trkpt lat="44.5166548733279" lon="10.840366401754375"><ele>149.4</ele><time>2026-03-25T15:49:12Z</time></trkpt><trkpt lat="44.516756345284854" lon="10.840406888982052"><ele>149.6</ele><time>2026-03-25T15:49:14Z</time></trkpt><trkpt lat="44.51686847920567" lon="10.840437853199449"><ele>149.8</ele><time>2026-03-25T15:49:16Z</time></trkpt><trkpt lat="44.516972558673885" lon="10.84051361794029"><ele>150.0</ele><time>2026-03-25T15:49:18Z</time></trkpt><trkpt lat="44.517079731387575" lon="10.84058514039062"><ele>149.33333333333334</ele><time>2026-03-25T15:49:20Z</time></trkpt><trkpt lat="44.51719161134289" lon="10.84063417886479"><ele>148.66666666666666</ele><time>2026-03-25T15:49:22Z</time></trkpt><trkpt lat="44.5172542206983" lon="10.840647053542638"><ele>148.0</ele><time>2026-03-25T15:49:23Z</time></trkpt><trkpt lat="44.51732074149814" lon="10.840658918730433"><ele>147.33333333333331</ele><time>2026-03-25T15:49:24Z</time></trkpt><trkpt lat="44.51745169272025" lon="10.840665909094248"><ele>146.66666666666666</ele><time>2026-03-25T15:49:26Z</time></trkpt><trkpt lat="44.51751765027491" lon="10.840663629284117"><ele>146.0</ele><time>2026-03-25T15:49:27Z</time></trkpt><trkpt lat="44.51758150107521" lon="10.840655197361428"><ele>146.0</ele><time>2026-03-25T15:49:28Z</time></trkpt><trkpt lat="44.51769284743968" lon="10.840668958926754"><ele>146.0</ele><time>2026-03-25T15:49:30Z</time></trkpt><trkpt lat="44.517795927938145" lon="10.840757915318196"><ele>146.0</ele><time>2026-03-25T15:49:32Z</time></trkpt><trkpt lat="44.51791748387634" lon="10.840803085613448"><ele>146.0</ele><time>2026-03-25T15:49:34Z</time></trkpt><trkpt lat="44.518029696349046" lon="10.840881775428059"><ele>146.0</ele><time>2026-03-25T15:49:36Z</time></trkpt><trkpt lat="44.518147600878535" lon="10.840924701123422"><ele>146.0</ele><time>2026-03-25T15:49:38Z</time></trkpt><trkpt lat="44.51825818496957" lon="10.8410095671335"><ele>146.0</ele><time>2026-03-25T15:49:40Z</time></trkpt><trkpt lat="44.51832034931136" lon="10.841060081912996"><ele>146.0</ele><time>2026-03-25T15:49:41Z</time></trkpt><trkpt lat="44.51838469611451" lon="10.841081366902626"><ele>146.0</ele><time>2026-03-25T15:49:42Z</time></trkpt><trkpt lat="44.51845136153352" lon="10.841098028694887"><ele>146.0</ele><time>2026-03-25T15:49:43Z</time></trkpt><trkpt lat="44.51851557872183" lon="10.841116260726933"><ele>146.0</ele><time>2026-03-25T15:49:44Z</time></trkpt><trkpt lat="44.518582401288725" lon="10.841134189645551"><ele>146.0</ele><time>2026-03-25T15:49:45Z</time></trkpt><trkpt lat="44.518650023350645" lon="10.841148870833953"><ele>146.0</ele><time>2026-03-25T15:49:46Z</time></trkpt><trkpt lat="44.518770092496105" lon="10.841182418271343"><ele>146.0</ele><time>2026-03-25T15:49:48Z</time></trkpt><trkpt lat="44.51888146035066" lon="10.841230199111662"><ele>146.0</ele><time>2026-03-25T15:49:50Z</time></trkpt><trkpt lat="44.518996659843516" lon="10.841271834831247"><ele>146.0</ele><time>2026-03-25T15:49:52Z</time></trkpt><trkpt lat="44.51909834913877" lon="10.841291415889712"><ele>146.0</ele><time>2026-03-25T15:49:54Z</time></trkpt><trkpt lat="44.519160193974066" lon="10.841316283739847"><ele>146.0</ele><time>2026-03-25T15:49:55Z</time></trkpt><trkpt lat="44.51928122442407" lon="10.84135279261144"><ele>146.0</ele><time>2026-03-25T15:49:57Z</time></trkpt><trkpt lat="44.51939959772379" lon="10.841347802464588"><ele>146.0</ele><time>2026-03-25T15:49:59Z</time></trkpt><trkpt lat="44.51952287718858" lon="10.84137167044709"><ele>145.0</ele><time>2026-03-25T15:50:01Z</time></trkpt><trkpt lat="44.51962506717628" lon="10.841449024830023"><ele>144.0</ele><time>2026-03-25T15:50:03Z</time></trkpt><trkpt lat="44.51970432012012" lon="10.84155898951623"><ele>143.0</ele><time>2026-03-25T15:50:05Z</time></trkpt><trkpt lat="44.51980657726649" lon="10.84163129657881"><ele>142.0</ele><time>2026-03-25T15:50:07Z</time></trkpt><trkpt lat="44.519918088681415" lon="10.841678995074416"><ele>142.0</ele><time>2026-03-25T15:50:09Z</time></trkpt><trkpt lat="44.52003051940729" lon="10.841741217253892"><ele>142.0</ele><time>2026-03-25T15:50:11Z</time></trkpt><trkpt lat="44.520139985407326" lon="10.841802369566219"><ele>142.0</ele><time>2026-03-25T15:50:13Z</time></trkpt><trkpt lat="44.52024766702619" lon="10.841876336027704"><ele>142.0</ele><time>2026-03-25T15:50:15Z</time></trkpt><trkpt lat="44.52034696759838" lon="10.841944850042648"><ele>142.0</ele><time>2026-03-25T15:50:17Z</time></trkpt><trkpt lat="44.520455549083" lon="10.842000447565958"><ele>142.0</ele><time>2026-03-25T15:50:19Z</time></trkpt><trkpt lat="44.52056652939116" lon="10.842055550903801"><ele>142.0</ele><time>2026-03-25T15:50:21Z</time></trkpt><trkpt lat="44.520681003135294" lon="10.842112593721033"><ele>142.0</ele><time>2026-03-25T15:50:23Z</time></trkpt><trkpt lat="44.52079331319061" lon="10.842178586659166"><ele>142.0</ele><time>2026-03-25T15:50:25Z</time></trkpt><trkpt lat="44.520892608696236" lon="10.842250339006227"><ele>142.0</ele><time>2026-03-25T15:50:27Z</time></trkpt><trkpt lat="44.52099536737376" lon="10.842306076951086"><ele>142.0</ele><time>2026-03-25T15:50:29Z</time></trkpt><trkpt lat="44.52109614730921" lon="10.842368007747533"><ele>142.0</ele><time>2026-03-25T15:50:31Z</time></trkpt><trkpt lat="44.52118406355785" lon="10.842403852360729"><ele>142.0</ele><time>2026-03-25T15:50:33Z</time></trkpt><trkpt lat="44.521281534189605" lon="10.84242777083742"><ele>142.0</ele><time>2026-03-25T15:50:35Z</time></trkpt><trkpt lat="44.52137701630213" lon="10.842422743845441"><ele>142.0</ele><time>2026-03-25T15:50:37Z</time></trkpt><trkpt lat="44.52147900950305" lon="10.84242052978636"><ele>142.0</ele><time>2026-03-25T15:50:39Z</time></trkpt><trkpt lat="44.521579735528725" lon="10.842466905431973"><ele>142.0</ele><time>2026-03-25T15:50:41Z</time></trkpt><trkpt lat="44.52167374754409" lon="10.842472163974463"><ele>142.0</ele><time>2026-03-25T15:50:43Z</time></trkpt><trkpt lat="44.52175539153815" lon="10.842435524331654"><ele>142.0</ele><time>2026-03-25T15:50:45Z</time></trkpt><trkpt lat="44.52185652928809" lon="10.842420987219743"><ele>142.0</ele><time>2026-03-25T15:50:47Z</time></trkpt><trkpt lat="44.52196655735375" lon="10.842438754478417"><ele>142.0</ele><time>2026-03-25T15:50:49Z</time></trkpt><trkpt lat="44.52207796487349" lon="10.842453892565224"><ele>142.0</ele><time>2026-03-25T15:50:51Z</time></trkpt><trkpt lat="44.52218874948461" lon="10.84243866980785"><ele>142.0</ele><time>2026-03-25T15:50:53Z</time></trkpt><trkpt lat="44.52225498993657" lon="10.842425294326974"><ele>141.6</ele><time>2026-03-25T15:50:54Z</time></trkpt><trkpt lat="44.52231796237482" lon="10.842417522462185"><ele>141.2</ele><time>2026-03-25T15:50:55Z</time></trkpt><trkpt lat="44.52243560199185" lon="10.842443686718592"><ele>140.8</ele><time>2026-03-25T15:50:57Z</time></trkpt><trkpt lat="44.5225413987517" lon="10.842410733686789"><ele>140.4</ele><time>2026-03-25T15:50:59Z</time></trkpt><trkpt lat="44.522628345360594" lon="10.842330119537534"><ele>140.0</ele><time>2026-03-25T15:51:01Z</time></trkpt><trkpt lat="44.522713396064475" lon="10.842274332151213"><ele>140.0</ele><time>2026-03-25T15:51:03Z</time></trkpt><trkpt lat="44.52281037792493" lon="10.842227224690758"><ele>140.0</ele><time>2026-03-25T15:51:05Z</time></trkpt><trkpt lat="44.52291667607105" lon="10.842200213870417"><ele>140.0</ele><time>2026-03-25T15:51:07Z</time></trkpt><trkpt lat="44.52301890804757" lon="10.842130931060716"><ele>140.0</ele><time>2026-03-25T15:51:09Z</time></trkpt><trkpt lat="44.52308963130837" lon="10.842043421838664"><ele>140.0</ele><time>2026-03-25T15:51:11Z</time></trkpt><trkpt lat="44.52316543651017" lon="10.841949750055347"><ele>140.0</ele><time>2026-03-25T15:51:13Z</time></trkpt><trkpt lat="44.52323438036566" lon="10.841889651477143"><ele>140.0</ele><time>2026-03-25T15:51:15Z</time></trkpt><trkpt lat="44.52329447068907" lon="10.841826934542874"><ele>140.0</ele><time>2026-03-25T15:51:17Z</time></trkpt><trkpt lat="44.52336869168394" lon="10.841749178939896"><ele>140.0</ele><time>2026-03-25T15:51:20Z</time></trkpt><trkpt lat="44.523440994948146" lon="10.841756102299808"><ele>140.0</ele><time>2026-03-25T15:51:22Z</time></trkpt><trkpt lat="44.52351026581007" lon="10.84178450339889"><ele>140.0</ele><time>2026-03-25T15:51:24Z</time></trkpt><trkpt lat="44.52358841174914" lon="10.84179340696401"><ele>140.0</ele><time>2026-03-25T15:51:26Z</time></trkpt><trkpt lat="44.523670209879086" lon="10.841814167676"><ele>140.0</ele><time>2026-03-25T15:51:28Z</time></trkpt><trkpt lat="44.523759314049784" lon="10.841850835633865"><ele>140.0</ele><time>2026-03-25T15:51:30Z</time></trkpt><trkpt lat="44.52385116118636" lon="10.841897614125948"><ele>140.0</ele><time>2026-03-25T15:51:32Z</time></trkpt><trkpt lat="44.52394064266262" lon="10.841942361755535"><ele>140.0</ele><time>2026-03-25T15:51:34Z</time></trkpt><trkpt lat="44.52402719518888" lon="10.841992077623912"><ele>139.8</ele><time>2026-03-25T15:51:36Z</time></trkpt><trkpt lat="44.52411183678409" lon="10.84204428623728"><ele>139.6</ele><time>2026-03-25T15:51:38Z</time></trkpt><trkpt lat="44.52419436446059" lon="10.842093848764852"><ele>139.4</ele><time>2026-03-25T15:51:40Z</time></trkpt><trkpt lat="44.52427654626014" lon="10.84213562272382"><ele>139.2</ele><time>2026-03-25T15:51:42Z</time></trkpt><trkpt lat="44.52435613906703" lon="10.84219282795423"><ele>139.0</ele><time>2026-03-25T15:51:44Z</time></trkpt><trkpt lat="44.52443823956426" lon="10.842249090372343"><ele>139.0</ele><time>2026-03-25T15:51:46Z</time></trkpt><trkpt lat="44.524515989683984" lon="10.842293104658317"><ele>139.0</ele><time>2026-03-25T15:51:48Z</time></trkpt><trkpt lat="44.52456824220913" lon="10.84234343464376"><ele>139.0</ele><time>2026-03-25T15:51:50Z</time></trkpt><trkpt lat="44.52462071739395" lon="10.842432085353764"><ele>139.0</ele><time>2026-03-25T15:51:53Z</time></trkpt><trkpt lat="44.52470409561301" lon="10.842475258863043"><ele>139.0</ele><time>2026-03-25T15:51:56Z</time></trkpt><trkpt lat="44.52475549241913" lon="10.84252769173897"><ele>139.0</ele><time>2026-03-25T15:51:58Z</time></trkpt><trkpt lat="44.52479472523174" lon="10.842599710639478"><ele>139.0</ele><time>2026-03-25T15:52:00Z</time></trkpt><trkpt lat="44.52486233254054" lon="10.84268603307672"><ele>138.83333333333334</ele><time>2026-03-25T15:52:03Z</time></trkpt><trkpt lat="44.524924714681816" lon="10.842775071559192"><ele>138.66666666666669</ele><time>2026-03-25T15:52:06Z</time></trkpt><trkpt lat="44.52488544016212" lon="10.842885083970277"><ele>138.5</ele><time>2026-03-25T15:52:09Z</time></trkpt><trkpt lat="44.52483907430145" lon="10.842951969602732"><ele>138.33333333333334</ele><time>2026-03-25T15:52:11Z</time></trkpt><trkpt lat="44.52478628641086" lon="10.84302891557203"><ele>138.16666666666666</ele><time>2026-03-25T15:52:13Z</time></trkpt><trkpt lat="44.524726523819496" lon="10.843118288557287"><ele>138.0</ele><time>2026-03-25T15:52:16Z</time></trkpt><trkpt lat="44.52466665354664" lon="10.843195213265966"><ele>138.0</ele><time>2026-03-25T15:52:18Z</time></trkpt><trkpt lat="44.524605613425116" lon="10.843258702711747"><ele>138.0</ele><time>2026-03-25T15:52:20Z</time></trkpt><trkpt lat="44.52455890928257" lon="10.843350175124673"><ele>138.0</ele><time>2026-03-25T15:52:22Z</time></trkpt><trkpt lat="44.52451504968932" lon="10.84344979600834"><ele>138.0</ele><time>2026-03-25T15:52:24Z</time></trkpt><trkpt lat="44.52447153636516" lon="10.843543804218568"><ele>138.0</ele><time>2026-03-25T15:52:26Z</time></trkpt><trkpt lat="44.524435656968535" lon="10.843630774273382"><ele>138.0</ele><time>2026-03-25T15:52:28Z</time></trkpt><trkpt lat="44.5243947928177" lon="10.843714927302548"><ele>138.71428571428572</ele><time>2026-03-25T15:52:30Z</time></trkpt><trkpt lat="44.52436054937653" lon="10.843791725042516"><ele>139.42857142857144</ele><time>2026-03-25T15:52:32Z</time></trkpt><trkpt lat="44.52432011770101" lon="10.843864632648955"><ele>140.14285714285714</ele><time>2026-03-25T15:52:34Z</time></trkpt><trkpt lat="44.52427085879483" lon="10.843934772062347"><ele>140.85714285714286</ele><time>2026-03-25T15:52:36Z</time></trkpt><trkpt lat="44.524228067279644" lon="10.844012889447434"><ele>141.57142857142856</ele><time>2026-03-25T15:52:38Z</time></trkpt><trkpt lat="44.52419054564329" lon="10.844097011888632"><ele>142.28571428571428</ele><time>2026-03-25T15:52:40Z</time></trkpt><trkpt lat="44.5241513051764" lon="10.844170676430522"><ele>143.0</ele><time>2026-03-25T15:52:42Z</time></trkpt><trkpt lat="44.5241186510796" lon="10.844251922216728"><ele>142.99999999999997</ele><time>2026-03-25T15:52:44Z</time></trkpt><trkpt lat="44.52408140887534" lon="10.844332043555804"><ele>143.0</ele><time>2026-03-25T15:52:46Z</time></trkpt><trkpt lat="44.52405304034516" lon="10.84441743598352"><ele>143.0</ele><time>2026-03-25T15:52:48Z</time></trkpt><trkpt lat="44.52402135725257" lon="10.844498886217481"><ele>143.0</ele><time>2026-03-25T15:52:50Z</time></trkpt><trkpt lat="44.523990802894026" lon="10.844588304973373"><ele>143.0</ele><time>2026-03-25T15:52:52Z</time></trkpt><trkpt lat="44.52396491622802" lon="10.844695755362885"><ele>142.99999999999997</ele><time>2026-03-25T15:52:54Z</time></trkpt><trkpt lat="44.52393503082131" lon="10.844804324621357"><ele>143.0</ele><time>2026-03-25T15:52:56Z</time></trkpt><trkpt lat="44.523895031203715" lon="10.844900984224402"><ele>142.99999999999997</ele><time>2026-03-25T15:52:58Z</time></trkpt><trkpt lat="44.523857577785336" lon="10.844996076871215"><ele>143.0</ele><time>2026-03-25T15:53:00Z</time></trkpt><trkpt lat="44.52381911769704" lon="10.845090286066974"><ele>143.0</ele><time>2026-03-25T15:53:02Z</time></trkpt><trkpt lat="44.52377590222058" lon="10.845177544525251"><ele>143.0</ele><time>2026-03-25T15:53:04Z</time></trkpt><trkpt lat="44.52373237836473" lon="10.84526266206166"><ele>143.0</ele><time>2026-03-25T15:53:06Z</time></trkpt><trkpt lat="44.52369955358278" lon="10.845348341243493"><ele>142.99999999999997</ele><time>2026-03-25T15:53:08Z</time></trkpt><trkpt lat="44.5236708569135" lon="10.845433939634727"><ele>143.0</ele><time>2026-03-25T15:53:10Z</time></trkpt><trkpt lat="44.52364583965956" lon="10.845537744909489"><ele>145.0</ele><time>2026-03-25T15:53:13Z</time></trkpt><trkpt lat="44.5236187339938" lon="10.845631891819995"><ele>145.0</ele><time>2026-03-25T15:53:17Z</time></trkpt><trkpt lat="44.5235912872595" lon="10.845720546373276"><ele>145.0</ele><time>2026-03-25T15:53:23Z</time></trkpt></trkseg></trk></gpx>